Wetterdaten: Freitag, 09.11.2018
Datum Zeit Temp. A. Pool Temp. Temp. 5cm Feuchte A. Luftdruck Regen Wind Richtung Richtung Sonnenschein ET UV Solar Taupunkt Windchill Windben Empfang
09.11.2018 00:00 9,6 C 10,0 C 9,4 C 93 % 1017,9 hPa 0,0 l/m 10,8 km/h (2 Bft) O-NO 71 0 min 0,000 mm 0,0 UV-I 0 W/m 8,5 C 6,7 C 14,5 km/h (3 Bft) 97,87 %
09.11.2018 00:02 9,6 C 10,0 C 9,4 C 93 % 1017,9 hPa 0,0 l/m 10,6 km/h (2 Bft) O-NO 75 0 min 0,000 mm 0,0 UV-I 0 W/m 8,5 C 6,8 C 14,5 km/h (3 Bft) 9,52 %
09.11.2018 00:04 9,6 C 10,0 C 9,4 C 93 % 1017,8 hPa 0,0 l/m 11,9 km/h (2 Bft) O-NO 68 0 min 0,000 mm 0,0 UV-I 0 W/m 8,5 C 6,1 C 20,9 km/h (4 Bft) 96,88 %
09.11.2018 00:06 9,5 C 10,0 C 9,4 C 93 % 1017,7 hPa 0,0 l/m 14,4 km/h (3 Bft) O 84 0 min 0,000 mm 0,0 UV-I 0 W/m 8,4 C 4,8 C 19,3 km/h (3 Bft) 100,00 %
09.11.2018 00:08 9,6 C 10,0 C 9,4 C 93 % 1017,7 hPa 0,0 l/m 10,5 km/h (2 Bft) O-NO 65 0 min 0,000 mm 0,0 UV-I 0 W/m 8,5 C 6,9 C 14,5 km/h (3 Bft) 100,00 %
09.11.2018 00:10 9,6 C 10,0 C 9,4 C 93 % 1017,7 hPa 0,0 l/m 10,1 km/h (2 Bft) O-NO 72 0 min 0,000 mm 0,0 UV-I 0 W/m 8,5 C 7,1 C 14,5 km/h (3 Bft) 98,00 %
09.11.2018 00:12 9,5 C 10,0 C 9,4 C 93 % 1017,7 hPa 0,0 l/m 8,5 km/h (2 Bft) O-NO 72 0 min 0,000 mm 0,0 UV-I 0 W/m 8,4 C 8,0 C 14,5 km/h (3 Bft) 100,00 %
09.11.2018 00:14 9,6 C 10,0 C 9,4 C 93 % 1017,7 hPa 0,0 l/m 12,4 km/h (3 Bft) O-NO 77 0 min 0,000 mm 0,0 UV-I 0 W/m 8,5 C 5,9 C 17,7 km/h (3 Bft) 100,00 %
09.11.2018 00:16 9,5 C 10,0 C 9,4 C 93 % 1017,7 hPa 0,0 l/m 11,3 km/h (2 Bft) O-NO 68 0 min 0,000 mm 0,0 UV-I 0 W/m 8,4 C 6,3 C 16,1 km/h (3 Bft) 100,00 %
09.11.2018 00:18 9,6 C 10,0 C 9,4 C 93 % 1017,7 hPa 0,0 l/m 9,8 km/h (2 Bft) O-NO 69 0 min 0,000 mm 0,0 UV-I 0 W/m 8,5 C 7,3 C 14,5 km/h (3 Bft) 100,00 %
09.11.2018 00:20 9,6 C 10,0 C 9,4 C 93 % 1017,6 hPa 0,0 l/m 10,7 km/h (2 Bft) O-NO 57 0 min 0,000 mm 0,0 UV-I 0 W/m 8,5 C 6,8 C 16,1 km/h (3 Bft) 97,87 %
09.11.2018 00:22 9,6 C 10,0 C 9,4 C 93 % 1017,6 hPa 0,0 l/m 15,1 km/h (3 Bft) O 86 0 min 0,000 mm 0,0 UV-I 0 W/m 8,5 C 4,6 C 19,3 km/h (3 Bft) 97,87 %
09.11.2018 00:24 9,6 C 10,0 C 9,4 C 93 % 1017,5 hPa 0,0 l/m 14,9 km/h (3 Bft) O 88 0 min 0,000 mm 0,0 UV-I 0 W/m 8,5 C 4,7 C 19,3 km/h (3 Bft) 95,74 %
09.11.2018 00:26 9,6 C 10,0 C 9,4 C 93 % 1017,5 hPa 0,0 l/m 15,9 km/h (3 Bft) O-NO 69 0 min 0,000 mm 0,0 UV-I 0 W/m 8,5 C 4,3 C 20,9 km/h (4 Bft) 97,87 %
09.11.2018 00:28 9,6 C 10,0 C 9,4 C 93 % 1017,5 hPa 0,0 l/m 14,2 km/h (3 Bft) O-NO 60 0 min 0,000 mm 0,0 UV-I 0 W/m 8,5 C 5,0 C 19,3 km/h (3 Bft) 97,87 %
09.11.2018 00:30 9,6 C 10,0 C 9,4 C 93 % 1017,5 hPa 0,2 l/m 15,2 km/h (3 Bft) O-NO 70 0 min 0,000 mm 0,0 UV-I 0 W/m 8,5 C 4,6 C 20,9 km/h (4 Bft) 97,87 %
09.11.2018 00:32 9,6 C 10,0 C 9,4 C 93 % 1017,5 hPa 0,0 l/m 14,4 km/h (3 Bft) O-NO 76 0 min 0,000 mm 0,0 UV-I 0 W/m 8,5 C 4,9 C 20,9 km/h (4 Bft) 97,37 %
09.11.2018 00:34 9,6 C 10,0 C 9,4 C 93 % 1017,4 hPa 0,0 l/m 15,4 km/h (3 Bft) O 92 0 min 0,000 mm 0,0 UV-I 0 W/m 8,5 C 4,5 C 19,3 km/h (3 Bft) 98,00 %
09.11.2018 00:36 9,6 C 10,0 C 9,4 C 93 % 1017,4 hPa 0,0 l/m 15,1 km/h (3 Bft) O-NO 78 0 min 0,000 mm 0,0 UV-I 0 W/m 8,5 C 4,6 C 19,3 km/h (3 Bft) 97,87 %
09.11.2018 00:38 9,6 C 10,0 C 9,4 C 93 % 1017,4 hPa 0,0 l/m 12,4 km/h (3 Bft) O-NO 78 0 min 0,000 mm 0,0 UV-I 0 W/m 8,5 C 5,9 C 16,1 km/h (3 Bft) 98,00 %
09.11.2018 00:40 9,6 C 10,0 C 9,4 C 93 % 1017,4 hPa 0,0 l/m 13,8 km/h (3 Bft) O 88 0 min 0,000 mm 0,0 UV-I 0 W/m 8,5 C 5,2 C 17,7 km/h (3 Bft) 97,92 %
09.11.2018 00:42 9,6 C 10,0 C 9,4 C 93 % 1017,4 hPa 0,0 l/m 14,4 km/h (3 Bft) O 86 0 min 0,000 mm 0,0 UV-I 0 W/m 8,5 C 4,9 C 19,3 km/h (3 Bft) 95,74 %
09.11.2018 00:44 9,6 C 10,0 C 9,4 C 93 % 1017,3 hPa 0,0 l/m 13,0 km/h (3 Bft) O-NO 67 0 min 0,000 mm 0,0 UV-I 0 W/m 8,5 C 5,6 C 16,1 km/h (3 Bft) 98,00 %
09.11.2018 00:46 9,6 C 10,0 C 9,4 C 93 % 1017,3 hPa 0,0 l/m 15,9 km/h (3 Bft) O 86 0 min 0,000 mm 0,0 UV-I 0 W/m 8,5 C 4,3 C 19,3 km/h (3 Bft) 97,87 %
09.11.2018 00:48 9,6 C 10,0 C 9,4 C 93 % 1017,3 hPa 0,0 l/m 13,5 km/h (3 Bft) O-NO 65 0 min 0,000 mm 0,0 UV-I 0 W/m 8,5 C 5,3 C 17,7 km/h (3 Bft) 97,87 %
09.11.2018 00:50 9,6 C 10,0 C 9,4 C 93 % 1017,3 hPa 0,0 l/m 13,3 km/h (3 Bft) O-NO 76 0 min 0,000 mm 0,0 UV-I 0 W/m 8,5 C 5,4 C 20,9 km/h (4 Bft) 95,74 %
09.11.2018 00:52 9,6 C 10,0 C 9,4 C 93 % 1017,3 hPa 0,0 l/m 14,8 km/h (3 Bft) O 83 0 min 0,000 mm 0,0 UV-I 0 W/m 8,5 C 4,7 C 17,7 km/h (3 Bft) 97,73 %
09.11.2018 00:54 9,6 C 10,0 C 9,4 C 93 % 1017,3 hPa 0,0 l/m 10,7 km/h (2 Bft) O-NO 78 0 min 0,000 mm 0,0 UV-I 0 W/m 8,5 C 6,8 C 14,5 km/h (3 Bft) 95,74 %
09.11.2018 00:56 9,6 C 10,0 C 9,4 C 93 % 1017,2 hPa 0,0 l/m 13,4 km/h (3 Bft) O 89 0 min 0,000 mm 0,0 UV-I 0 W/m 8,5 C 5,4 C 19,3 km/h (3 Bft) 95,74 %
09.11.2018 00:58 9,6 C 10,0 C 9,4 C 93 % 1017,2 hPa 0,0 l/m 15,0 km/h (3 Bft) O-NO 74 0 min 0,000 mm 0,0 UV-I 0 W/m 8,5 C 4,6 C 19,3 km/h (3 Bft) 93,62 %
09.11.2018 01:00 9,6 C 10,0 C 9,4 C 93 % 1017,2 hPa 0,0 l/m 14,4 km/h (3 Bft) O 83 0 min 0,000 mm 0,0 UV-I 0 W/m 8,5 C 4,9 C 19,3 km/h (3 Bft) 95,74 %
09.11.2018 01:02 9,6 C 10,0 C 9,4 C 93 % 1017,2 hPa 0,0 l/m 13,2 km/h (3 Bft) O-NO 67 0 min 0,000 mm 0,0 UV-I 0 W/m 8,5 C 5,5 C 16,1 km/h (3 Bft) 93,62 %
09.11.2018 01:04 9,6 C 10,0 C 9,4 C 93 % 1017,2 hPa 0,0 l/m 10,6 km/h (2 Bft) O-NO 63 0 min 0,000 mm 0,0 UV-I 0 W/m 8,5 C 6,8 C 16,1 km/h (3 Bft) 93,62 %
09.11.2018 01:06 9,6 C 10,0 C 9,4 C 93 % 1017,2 hPa 0,0 l/m 14,4 km/h (3 Bft) O-NO 76 0 min 0,000 mm 0,0 UV-I 0 W/m 8,5 C 4,9 C 19,3 km/h (3 Bft) 91,43 %
09.11.2018 01:08 9,6 C 10,0 C 9,4 C 93 % 1017,2 hPa 0,0 l/m 12,7 km/h (3 Bft) O-NO 71 0 min 0,000 mm 0,0 UV-I 0 W/m 8,5 C 5,7 C 17,7 km/h (3 Bft) 94,00 %
09.11.2018 01:10 9,6 C 10,0 C 9,4 C 93 % 1017,1 hPa 0,0 l/m 12,3 km/h (3 Bft) O 91 0 min 0,000 mm 0,0 UV-I 0 W/m 8,5 C 5,9 C 17,7 km/h (3 Bft) 93,62 %
09.11.2018 01:12 9,6 C 10,0 C 9,4 C 93 % 1017,1 hPa 0,0 l/m 13,4 km/h (3 Bft) O-NO 74 0 min 0,000 mm 0,0 UV-I 0 W/m 8,5 C 5,4 C 20,9 km/h (4 Bft) 93,62 %
09.11.2018 01:14 9,6 C 10,0 C 9,4 C 93 % 1017,1 hPa 0,0 l/m 14,1 km/h (3 Bft) O 80 0 min 0,000 mm 0,0 UV-I 0 W/m 8,5 C 5,0 C 19,3 km/h (3 Bft) 91,49 %
09.11.2018 01:16 9,6 C 10,0 C 9,4 C 93 % 1017,1 hPa 0,0 l/m 12,1 km/h (2 Bft) O-NO 74 0 min 0,000 mm 0,0 UV-I 0 W/m 8,5 C 6,0 C 17,7 km/h (3 Bft) 93,75 %
09.11.2018 01:18 9,6 C 10,0 C 9,4 C 93 % 1017,0 hPa 0,0 l/m 13,1 km/h (3 Bft) O-NO 66 0 min 0,000 mm 0,0 UV-I 0 W/m 8,5 C 5,5 C 19,3 km/h (3 Bft) 93,62 %
09.11.2018 01:20 9,6 C 10,0 C 9,4 C 93 % 1017,0 hPa 0,0 l/m 14,5 km/h (3 Bft) O-NO 75 0 min 0,000 mm 0,0 UV-I 0 W/m 8,5 C 4,9 C 19,3 km/h (3 Bft) 94,00 %
09.11.2018 01:22 9,6 C 10,0 C 9,4 C 93 % 1017,1 hPa 0,0 l/m 11,9 km/h (2 Bft) O-NO 74 0 min 0,000 mm 0,0 UV-I 0 W/m 8,5 C 6,1 C 17,7 km/h (3 Bft) 94,00 %
09.11.2018 01:24 9,6 C 10,0 C 9,4 C 93 % 1017,1 hPa 0,0 l/m 13,0 km/h (3 Bft) O-NO 67 0 min 0,000 mm 0,0 UV-I 0 W/m 8,5 C 5,6 C 22,5 km/h (4 Bft) 95,74 %
09.11.2018 01:26 9,6 C 10,0 C 9,4 C 93 % 1017,1 hPa 0,0 l/m 12,3 km/h (3 Bft) O-NO 59 0 min 0,000 mm 0,0 UV-I 0 W/m 8,5 C 5,9 C 17,7 km/h (3 Bft) 93,62 %
09.11.2018 01:28 9,6 C 10,0 C 9,4 C 93 % 1017,1 hPa 0,0 l/m 11,8 km/h (2 Bft) O-NO 76 0 min 0,000 mm 0,0 UV-I 0 W/m 8,5 C 6,2 C 16,1 km/h (3 Bft) 95,74 %
09.11.2018 01:30 9,6 C 10,0 C 9,4 C 93 % 1017,1 hPa 0,0 l/m 10,6 km/h (2 Bft) O-NO 76 0 min 0,000 mm 0,0 UV-I 0 W/m 8,5 C 6,8 C 14,5 km/h (3 Bft) 95,74 %
09.11.2018 01:32 9,6 C 10,0 C 9,4 C 93 % 1017,1 hPa 0,0 l/m 8,9 km/h (2 Bft) O 84 0 min 0,000 mm 0,0 UV-I 0 W/m 8,5 C 7,8 C 12,9 km/h (3 Bft) 92,11 %
09.11.2018 01:34 9,6 C 10,0 C 9,4 C 93 % 1017,1 hPa 0,0 l/m 6,2 km/h (2 Bft) O 81 0 min 0,000 mm 0,0 UV-I 0 W/m 8,5 C 9,6 C 12,9 km/h (3 Bft) 97,87 %
09.11.2018 01:36 9,6 C 10,0 C 9,4 C 93 % 1017,0 hPa 0,0 l/m 9,4 km/h (2 Bft) O-NO 68 0 min 0,000 mm 0,0 UV-I 0 W/m 8,5 C 7,5 C 12,9 km/h (3 Bft) 97,87 %
09.11.2018 01:38 9,6 C 10,0 C 9,4 C 93 % 1017,0 hPa 0,0 l/m 10,2 km/h (2 Bft) O-NO 63 0 min 0,000 mm 0,0 UV-I 0 W/m 8,5 C 7,0 C 14,5 km/h (3 Bft) 95,74 %
09.11.2018 01:40 9,6 C 10,0 C 9,4 C 93 % 1017,0 hPa 0,0 l/m 8,0 km/h (2 Bft) O-NO 61 0 min 0,000 mm 0,0 UV-I 0 W/m 8,5 C 8,4 C 11,3 km/h (2 Bft) 100,00 %
09.11.2018 01:42 9,6 C 10,0 C 9,4 C 93 % 1017,1 hPa 0,0 l/m 10,5 km/h (2 Bft) O 84 0 min 0,000 mm 0,0 UV-I 0 W/m 8,5 C 6,9 C 16,1 km/h (3 Bft) 100,00 %
09.11.2018 01:44 9,6 C 10,0 C 9,4 C 93 % 1017,0 hPa 0,0 l/m 12,3 km/h (3 Bft) O 96 0 min 0,000 mm 0,0 UV-I 0 W/m 8,5 C 5,9 C 17,7 km/h (3 Bft) 97,87 %
09.11.2018 01:46 9,6 C 10,0 C 9,4 C 93 % 1017,0 hPa 0,0 l/m 9,9 km/h (2 Bft) O 80 0 min 0,000 mm 0,0 UV-I 0 W/m 8,5 C 7,2 C 14,5 km/h (3 Bft) 100,00 %
09.11.2018 01:48 9,6 C 10,0 C 9,4 C 93 % 1017,0 hPa 0,0 l/m 12,3 km/h (3 Bft) O 98 0 min 0,000 mm 0,0 UV-I 0 W/m 8,5 C 5,9 C 17,7 km/h (3 Bft) 100,00 %
09.11.2018 01:50 9,6 C 10,0 C 9,4 C 93 % 1017,0 hPa 0,0 l/m 11,0 km/h (2 Bft) O-NO 65 0 min 0,000 mm 0,0 UV-I 0 W/m 8,5 C 6,6 C 16,1 km/h (3 Bft) 100,00 %
09.11.2018 01:52 9,6 C 10,0 C 9,4 C 93 % 1017,0 hPa 0,0 l/m 10,9 km/h (2 Bft) O-NO 61 0 min 0,000 mm 0,0 UV-I 0 W/m 8,5 C 6,6 C 16,1 km/h (3 Bft) 100,00 %
09.11.2018 01:54 9,6 C 10,0 C 9,4 C 93 % 1017,0 hPa 0,0 l/m 14,4 km/h (3 Bft) O-NO 65 0 min 0,000 mm 0,0 UV-I 0 W/m 8,5 C 4,9 C 19,3 km/h (3 Bft) 100,00 %
09.11.2018 01:56 9,6 C 10,0 C 9,4 C 93 % 1016,9 hPa 0,0 l/m 11,6 km/h (2 Bft) O 80 0 min 0,000 mm 0,0 UV-I 0 W/m 8,5 C 6,3 C 16,1 km/h (3 Bft) 100,00 %
09.11.2018 01:58 9,6 C 10,0 C 9,4 C 93 % 1016,9 hPa 0,0 l/m 12,7 km/h (3 Bft) O-NO 68 0 min 0,000 mm 0,0 UV-I 0 W/m 8,5 C 5,7 C 17,7 km/h (3 Bft) 100,00 %
09.11.2018 02:00 9,5 C 10,0 C 9,4 C 93 % 1016,8 hPa 0,0 l/m 13,4 km/h (3 Bft) O 94 0 min 0,000 mm 0,0 UV-I 0 W/m 8,4 C 5,2 C 17,7 km/h (3 Bft) 100,00 %
09.11.2018 02:02 9,5 C 10,0 C 9,4 C 93 % 1016,8 hPa 0,0 l/m 12,3 km/h (3 Bft) O 85 0 min 0,000 mm 0,0 UV-I 0 W/m 8,4 C 5,8 C 17,7 km/h (3 Bft) 97,87 %
09.11.2018 02:04 9,5 C 10,0 C 9,4 C 93 % 1016,7 hPa 0,0 l/m 12,6 km/h (3 Bft) O 101 0 min 0,000 mm 0,0 UV-I 0 W/m 8,4 C 5,6 C 19,3 km/h (3 Bft) 98,00 %
09.11.2018 02:06 9,5 C 10,0 C 9,4 C 93 % 1016,6 hPa 0,0 l/m 15,2 km/h (3 Bft) O 92 0 min 0,000 mm 0,0 UV-I 0 W/m 8,4 C 4,4 C 19,3 km/h (3 Bft) 100,00 %
09.11.2018 02:08 9,5 C 10,0 C 9,4 C 93 % 1016,7 hPa 0,0 l/m 12,5 km/h (3 Bft) O-NO 65 0 min 0,000 mm 0,0 UV-I 0 W/m 8,4 C 5,7 C 17,7 km/h (3 Bft) 100,00 %
09.11.2018 02:10 9,5 C 10,0 C 9,4 C 93 % 1016,6 hPa 0,0 l/m 13,6 km/h (3 Bft) O-NO 76 0 min 0,000 mm 0,0 UV-I 0 W/m 8,4 C 5,2 C 17,7 km/h (3 Bft) 100,00 %
09.11.2018 02:12 9,5 C 10,0 C 9,4 C 93 % 1016,8 hPa 0,0 l/m 9,5 km/h (2 Bft) O-NO 60 0 min 0,000 mm 0,0 UV-I 0 W/m 8,4 C 7,3 C 14,5 km/h (3 Bft) 100,00 %
09.11.2018 02:14 9,5 C 10,0 C 9,4 C 93 % 1016,7 hPa 0,0 l/m 12,4 km/h (3 Bft) O 89 0 min 0,000 mm 0,0 UV-I 0 W/m 8,4 C 5,7 C 17,7 km/h (3 Bft) 97,87 %
09.11.2018 02:16 9,5 C 10,0 C 9,4 C 93 % 1016,7 hPa 0,0 l/m 10,5 km/h (2 Bft) O-NO 73 0 min 0,000 mm 0,0 UV-I 0 W/m 8,4 C 6,8 C 14,5 km/h (3 Bft) 97,87 %
09.11.2018 02:18 9,5 C 10,0 C 9,4 C 93 % 1016,7 hPa 0,0 l/m 9,7 km/h (2 Bft) O-NO 71 0 min 0,000 mm 0,0 UV-I 0 W/m 8,4 C 7,2 C 14,5 km/h (3 Bft) 97,37 %
09.11.2018 02:20 9,4 C 10,0 C 9,4 C 93 % 1016,7 hPa 0,0 l/m 9,8 km/h (2 Bft) O 88 0 min 0,000 mm 0,0 UV-I 0 W/m 8,3 C 7,1 C 14,5 km/h (3 Bft) 95,74 %
09.11.2018 02:22 9,4 C 10,0 C 9,4 C 94 % 1016,7 hPa 0,0 l/m 9,2 km/h (2 Bft) O-SO 107 0 min 0,000 mm 0,0 UV-I 0 W/m 8,5 C 7,4 C 12,9 km/h (3 Bft) 95,74 %
09.11.2018 02:24 9,4 C 10,0 C 9,4 C 94 % 1016,7 hPa 0,0 l/m 9,7 km/h (2 Bft) O 90 0 min 0,000 mm 0,0 UV-I 0 W/m 8,5 C 7,1 C 14,5 km/h (3 Bft) 97,87 %
09.11.2018 02:26 9,4 C 10,0 C 9,4 C 94 % 1016,7 hPa 0,0 l/m 11,0 km/h (2 Bft) O-NO 73 0 min 0,000 mm 0,0 UV-I 0 W/m 8,5 C 6,4 C 16,1 km/h (3 Bft) 97,87 %
09.11.2018 02:28 9,4 C 10,0 C 9,4 C 94 % 1016,6 hPa 0,0 l/m 8,5 km/h (2 Bft) O 101 0 min 0,000 mm 0,0 UV-I 0 W/m 8,5 C 7,9 C 16,1 km/h (3 Bft) 97,87 %
09.11.2018 02:30 9,4 C 10,0 C 9,4 C 94 % 1016,6 hPa 0,0 l/m 10,9 km/h (2 Bft) O-NO 64 0 min 0,000 mm 0,0 UV-I 0 W/m 8,5 C 6,4 C 16,1 km/h (3 Bft) 95,83 %
09.11.2018 02:32 9,4 C 10,0 C 9,4 C 94 % 1016,6 hPa 0,0 l/m 11,3 km/h (2 Bft) O 79 0 min 0,000 mm 0,0 UV-I 0 W/m 8,5 C 6,2 C 16,1 km/h (3 Bft) 97,87 %
09.11.2018 02:34 9,4 C 10,0 C 9,4 C 94 % 1016,6 hPa 0,0 l/m 10,4 km/h (2 Bft) O-NO 69 0 min 0,000 mm 0,0 UV-I 0 W/m 8,5 C 6,7 C 14,5 km/h (3 Bft) 97,87 %
09.11.2018 02:36 9,4 C 10,0 C 9,4 C 94 % 1016,5 hPa 0,0 l/m 8,3 km/h (2 Bft) O 92 0 min 0,000 mm 0,0 UV-I 0 W/m 8,5 C 8,0 C 12,9 km/h (3 Bft) 97,87 %
09.11.2018 02:38 9,4 C 10,0 C 9,4 C 94 % 1016,6 hPa 0,0 l/m 10,2 km/h (2 Bft) O 86 0 min 0,000 mm 0,0 UV-I 0 W/m 8,5 C 6,8 C 16,1 km/h (3 Bft) 97,87 %
09.11.2018 02:40 9,4 C 10,0 C 9,4 C 94 % 1016,5 hPa 0,0 l/m 8,4 km/h (2 Bft) O 84 0 min 0,000 mm 0,0 UV-I 0 W/m 8,5 C 7,9 C 11,3 km/h (2 Bft) 98,00 %
09.11.2018 02:42 9,4 C 10,0 C 9,4 C 94 % 1016,5 hPa 0,0 l/m 9,4 km/h (2 Bft) O-NO 65 0 min 0,000 mm 0,0 UV-I 0 W/m 8,5 C 7,3 C 14,5 km/h (3 Bft) 100,00 %
09.11.2018 02:44 9,4 C 10,0 C 9,4 C 94 % 1016,4 hPa 0,0 l/m 11,9 km/h (2 Bft) O-NO 67 0 min 0,000 mm 0,0 UV-I 0 W/m 8,5 C 5,9 C 17,7 km/h (3 Bft) 100,00 %
09.11.2018 02:46 9,4 C 10,0 C 9,4 C 94 % 1016,4 hPa 0,0 l/m 11,5 km/h (2 Bft) O-NO 66 0 min 0,000 mm 0,0 UV-I 0 W/m 8,5 C 6,1 C 14,5 km/h (3 Bft) 100,00 %
09.11.2018 02:48 9,4 C 10,0 C 9,4 C 94 % 1016,4 hPa 0,0 l/m 11,9 km/h (2 Bft) O 84 0 min 0,000 mm 0,0 UV-I 0 W/m 8,5 C 5,9 C 16,1 km/h (3 Bft) 100,00 %
09.11.2018 02:50 9,4 C 10,0 C 9,4 C 94 % 1016,3 hPa 0,0 l/m 13,5 km/h (3 Bft) O-NO 77 0 min 0,000 mm 0,0 UV-I 0 W/m 8,5 C 5,1 C 17,7 km/h (3 Bft) 98,00 %
09.11.2018 02:52 9,4 C 10,0 C 9,4 C 94 % 1016,3 hPa 0,0 l/m 12,6 km/h (3 Bft) O 94 0 min 0,000 mm 0,0 UV-I 0 W/m 8,5 C 5,5 C 16,1 km/h (3 Bft) 100,00 %
09.11.2018 02:54 9,4 C 10,0 C 9,4 C 94 % 1016,3 hPa 0,0 l/m 10,4 km/h (2 Bft) O-NO 74 0 min 0,000 mm 0,0 UV-I 0 W/m 8,5 C 6,7 C 16,1 km/h (3 Bft) 100,00 %
09.11.2018 02:56 9,4 C 10,0 C 9,4 C 94 % 1016,3 hPa 0,0 l/m 12,0 km/h (2 Bft) O-NO 67 0 min 0,000 mm 0,0 UV-I 0 W/m 8,5 C 5,8 C 17,7 km/h (3 Bft) 95,74 %
09.11.2018 02:58 9,4 C 10,0 C 9,4 C 94 % 1016,3 hPa 0,0 l/m 9,5 km/h (2 Bft) NO 47 0 min 0,000 mm 0,0 UV-I 0 W/m 8,5 C 7,2 C 16,1 km/h (3 Bft) 100,00 %
09.11.2018 03:00 9,3 C 10,0 C 9,4 C 94 % 1016,2 hPa 0,0 l/m 11,7 km/h (2 Bft) O 89 0 min 0,000 mm 0,0 UV-I 0 W/m 8,4 C 5,9 C 17,7 km/h (3 Bft) 100,00 %
09.11.2018 03:02 9,3 C 10,0 C 9,4 C 94 % 1016,2 hPa 0,0 l/m 15,2 km/h (3 Bft) O 88 0 min 0,000 mm 0,0 UV-I 0 W/m 8,4 C 4,2 C 22,5 km/h (4 Bft) 100,00 %
09.11.2018 03:04 9,3 C 10,0 C 9,4 C 94 % 1016,2 hPa 0,0 l/m 11,7 km/h (2 Bft) O 81 0 min 0,000 mm 0,0 UV-I 0 W/m 8,4 C 5,9 C 17,7 km/h (3 Bft) 97,87 %
09.11.2018 03:06 9,3 C 10,0 C 9,4 C 94 % 1016,2 hPa 0,0 l/m 11,5 km/h (2 Bft) O 85 0 min 0,000 mm 0,0 UV-I 0 W/m 8,4 C 6,0 C 17,7 km/h (3 Bft) 97,87 %
09.11.2018 03:08 9,3 C 10,0 C 9,4 C 94 % 1016,3 hPa 0,0 l/m 12,1 km/h (2 Bft) O 81 0 min 0,000 mm 0,0 UV-I 0 W/m 8,4 C 5,7 C 14,5 km/h (3 Bft) 97,92 %
09.11.2018 03:10 9,3 C 10,0 C 9,4 C 94 % 1016,2 hPa 0,0 l/m 11,9 km/h (2 Bft) O 96 0 min 0,000 mm 0,0 UV-I 0 W/m 8,4 C 5,8 C 16,1 km/h (3 Bft) 97,87 %
09.11.2018 03:12 9,3 C 10,0 C 9,4 C 94 % 1016,2 hPa 0,0 l/m 9,4 km/h (2 Bft) O 90 0 min 0,000 mm 0,0 UV-I 0 W/m 8,4 C 7,2 C 14,5 km/h (3 Bft) 98,00 %
09.11.2018 03:14 9,3 C 10,0 C 9,4 C 94 % 1016,2 hPa 0,0 l/m 12,1 km/h (2 Bft) O-NO 76 0 min 0,000 mm 0,0 UV-I 0 W/m 8,4 C 5,7 C 16,1 km/h (3 Bft) 98,00 %
09.11.2018 03:16 9,3 C 10,0 C 9,4 C 94 % 1016,2 hPa 0,0 l/m 12,9 km/h (3 Bft) O 80 0 min 0,000 mm 0,0 UV-I 0 W/m 8,4 C 5,3 C 17,7 km/h (3 Bft) 97,87 %
09.11.2018 03:18 9,3 C 10,0 C 9,4 C 94 % 1016,2 hPa 0,0 l/m 13,4 km/h (3 Bft) O 97 0 min 0,000 mm 0,0 UV-I 0 W/m 8,4 C 5,0 C 17,7 km/h (3 Bft) 95,74 %
09.11.2018 03:20 9,3 C 10,0 C 9,4 C 94 % 1016,2 hPa 0,0 l/m 12,7 km/h (3 Bft) O 91 0 min 0,000 mm 0,0 UV-I 0 W/m 8,4 C 5,4 C 19,3 km/h (3 Bft) 97,87 %
09.11.2018 03:22 9,3 C 10,0 C 9,4 C 94 % 1016,2 hPa 0,0 l/m 13,4 km/h (3 Bft) O 93 0 min 0,000 mm 0,0 UV-I 0 W/m 8,4 C 5,0 C 16,1 km/h (3 Bft) 97,87 %
09.11.2018 03:24 9,3 C 10,0 C 9,4 C 94 % 1016,1 hPa 0,0 l/m 10,4 km/h (2 Bft) O-NO 71 0 min 0,000 mm 0,0 UV-I 0 W/m 8,4 C 6,6 C 14,5 km/h (3 Bft) 95,74 %
09.11.2018 03:26 9,3 C 10,0 C 9,4 C 94 % 1016,1 hPa 0,0 l/m 11,0 km/h (2 Bft) O 94 0 min 0,000 mm 0,0 UV-I 0 W/m 8,4 C 6,2 C 16,1 km/h (3 Bft) 97,87 %
09.11.2018 03:28 9,3 C 10,0 C 9,4 C 94 % 1016,1 hPa 0,0 l/m 12,5 km/h (3 Bft) O 89 0 min 0,000 mm 0,0 UV-I 0 W/m 8,4 C 5,5 C 17,7 km/h (3 Bft) 97,87 %
09.11.2018 03:30 9,3 C 10,0 C 9,4 C 94 % 1016,1 hPa 0,0 l/m 10,3 km/h (2 Bft) O 101 0 min 0,000 mm 0,0 UV-I 0 W/m 8,4 C 6,6 C 16,1 km/h (3 Bft) 97,14 %
09.11.2018 03:32 9,3 C 10,0 C 9,4 C 94 % 1016,2 hPa 0,0 l/m 10,2 km/h (2 Bft) O-NO 65 0 min 0,000 mm 0,0 UV-I 0 W/m 8,4 C 6,7 C 14,5 km/h (3 Bft) 97,87 %
09.11.2018 03:34 9,3 C 10,0 C 9,4 C 94 % 1016,2 hPa 0,0 l/m 8,6 km/h (2 Bft) O-NO 67 0 min 0,000 mm 0,0 UV-I 0 W/m 8,4 C 7,7 C 12,9 km/h (3 Bft) 98,00 %
09.11.2018 03:36 9,3 C 10,0 C 9,4 C 94 % 1016,2 hPa 0,0 l/m 10,2 km/h (2 Bft) O 93 0 min 0,000 mm 0,0 UV-I 0 W/m 8,4 C 6,7 C 16,1 km/h (3 Bft) 97,87 %
09.11.2018 03:38 9,3 C 10,0 C 9,4 C 94 % 1016,2 hPa 0,0 l/m 8,0 km/h (2 Bft) O 89 0 min 0,000 mm 0,0 UV-I 0 W/m 8,4 C 8,1 C 12,9 km/h (3 Bft) 97,87 %
09.11.2018 03:40 9,3 C 10,0 C 9,4 C 94 % 1016,2 hPa 0,0 l/m 8,2 km/h (2 Bft) O-NO 76 0 min 0,000 mm 0,0 UV-I 0 W/m 8,4 C 8,0 C 19,3 km/h (3 Bft) 95,74 %
09.11.2018 03:42 9,3 C 10,0 C 9,4 C 94 % 1016,2 hPa 0,0 l/m 12,1 km/h (2 Bft) O 101 0 min 0,000 mm 0,0 UV-I 0 W/m 8,4 C 5,7 C 17,7 km/h (3 Bft) 95,74 %
09.11.2018 03:44 9,3 C 10,0 C 9,4 C 94 % 1016,2 hPa 0,0 l/m 9,8 km/h (2 Bft) O 82 0 min 0,000 mm 0,0 UV-I 0 W/m 8,4 C 6,9 C 14,5 km/h (3 Bft) 96,00 %
09.11.2018 03:46 9,3 C 10,0 C 9,4 C 94 % 1016,2 hPa 0,0 l/m 10,4 km/h (2 Bft) O 82 0 min 0,000 mm 0,0 UV-I 0 W/m 8,4 C 6,6 C 16,1 km/h (3 Bft) 97,87 %
09.11.2018 03:48 9,3 C 10,0 C 9,4 C 94 % 1016,2 hPa 0,0 l/m 10,0 km/h (2 Bft) O-NO 68 0 min 0,000 mm 0,0 UV-I 0 W/m 8,4 C 6,8 C 14,5 km/h (3 Bft) 96,00 %
09.11.2018 03:50 9,3 C 10,0 C 9,4 C 94 % 1016,2 hPa 0,0 l/m 12,2 km/h (2 Bft) O 80 0 min 0,000 mm 0,0 UV-I 0 W/m 8,4 C 5,6 C 17,7 km/h (3 Bft) 97,22 %
09.11.2018 03:52 9,3 C 10,0 C 9,4 C 94 % 1016,0 hPa 0,0 l/m 11,9 km/h (2 Bft) O-NO 72 0 min 0,000 mm 0,0 UV-I 0 W/m 8,4 C 5,8 C 19,3 km/h (3 Bft) 94,00 %
09.11.2018 03:54 9,3 C 10,0 C 9,4 C 94 % 1016,0 hPa 0,0 l/m 14,5 km/h (3 Bft) O-NO 74 0 min 0,000 mm 0,0 UV-I 0 W/m 8,4 C 4,5 C 20,9 km/h (4 Bft) 95,74 %
09.11.2018 03:56 9,3 C 10,0 C 9,4 C 94 % 1016,0 hPa 0,0 l/m 13,0 km/h (3 Bft) O-NO 62 0 min 0,000 mm 0,0 UV-I 0 W/m 8,4 C 5,2 C 17,7 km/h (3 Bft) 97,87 %
09.11.2018 03:58 9,3 C 10,0 C 9,4 C 94 % 1015,9 hPa 0,0 l/m 15,8 km/h (3 Bft) O-NO 63 0 min 0,000 mm 0,0 UV-I 0 W/m 8,4 C 3,9 C 22,5 km/h (4 Bft) 98,00 %
09.11.2018 04:00 9,3 C 10,0 C 9,4 C 94 % 1015,9 hPa 0,0 l/m 18,2 km/h (3 Bft) O-NO 57 0 min 0,000 mm 0,0 UV-I 0 W/m 8,4 C 3,0 C 24,1 km/h (4 Bft) 95,74 %
09.11.2018 04:02 9,3 C 10,0 C 9,4 C 94 % 1015,9 hPa 0,0 l/m 16,2 km/h (3 Bft) O 100 0 min 0,000 mm 0,0 UV-I 0 W/m 8,4 C 3,8 C 19,3 km/h (3 Bft) 94,29 %
09.11.2018 04:04 9,3 C 10,0 C 9,4 C 94 % 1015,9 hPa 0,0 l/m 16,1 km/h (3 Bft) O 100 0 min 0,000 mm 0,0 UV-I 0 W/m 8,4 C 3,8 C 16,1 km/h (3 Bft) 95,74 %
09.11.2018 04:06 9,3 C 10,0 C 9,4 C 94 % 1015,9 hPa 0,0 l/m 16,1 km/h (3 Bft) O 100 0 min 0,000 mm 0,0 UV-I 0 W/m 8,4 C 3,8 C 16,1 km/h (3 Bft) 97,87 %
09.11.2018 04:08 9,3 C 10,0 C 9,4 C 93 % 1015,9 hPa 0,0 l/m 16,1 km/h (3 Bft) O 100 0 min 0,000 mm 0,0 UV-I 0 W/m 8,2 C 3,8 C 16,1 km/h (3 Bft) 95,74 %
09.11.2018 04:10 9,3 C 10,0 C 9,4 C 93 % 1015,9 hPa 0,0 l/m 14,0 km/h (3 Bft) O 93 0 min 0,000 mm 0,0 UV-I 0 W/m 8,2 C 4,7 C 16,1 km/h (3 Bft) 97,87 %
09.11.2018 04:12 9,3 C 10,0 C 9,4 C 93 % 1016,0 hPa 0,0 l/m 11,1 km/h (2 Bft) O 89 0 min 0,000 mm 0,0 UV-I 0 W/m 8,2 C 6,2 C 17,7 km/h (3 Bft) 97,87 %
09.11.2018 04:14 9,3 C 10,0 C 9,4 C 93 % 1016,0 hPa 0,0 l/m 8,9 km/h (2 Bft) O-SO 111 0 min 0,000 mm 0,0 UV-I 0 W/m 8,2 C 7,5 C 12,9 km/h (3 Bft) 100,00 %
09.11.2018 04:16 9,3 C 10,0 C 9,4 C 93 % 1016,1 hPa 0,0 l/m 10,0 km/h (2 Bft) O-SO 103 0 min 0,000 mm 0,0 UV-I 0 W/m 8,2 C 6,8 C 12,9 km/h (3 Bft) 100,00 %
09.11.2018 04:18 9,3 C 10,0 C 9,4 C 93 % 1016,1 hPa 0,0 l/m 9,3 km/h (2 Bft) O 94 0 min 0,000 mm 0,0 UV-I 0 W/m 8,2 C 7,3 C 12,9 km/h (3 Bft) 97,87 %
09.11.2018 04:20 9,3 C 10,0 C 9,4 C 93 % 1016,1 hPa 0,0 l/m 10,6 km/h (2 Bft) O 100 0 min 0,000 mm 0,0 UV-I 0 W/m 8,2 C 6,5 C 16,1 km/h (3 Bft) 100,00 %
09.11.2018 04:22 9,3 C 10,0 C 9,4 C 93 % 1016,1 hPa 0,0 l/m 8,5 km/h (2 Bft) O 94 0 min 0,000 mm 0,0 UV-I 0 W/m 8,2 C 7,8 C 14,5 km/h (3 Bft) 100,00 %
09.11.2018 04:24 9,3 C 10,0 C 9,4 C 93 % 1016,2 hPa 0,0 l/m 9,7 km/h (2 Bft) O-SO 105 0 min 0,000 mm 0,0 UV-I 0 W/m 8,2 C 7,0 C 16,1 km/h (3 Bft) 97,96 %
09.11.2018 04:26 9,3 C 10,0 C 9,4 C 93 % 1016,2 hPa 0,0 l/m 9,4 km/h (2 Bft) O 94 0 min 0,000 mm 0,0 UV-I 0 W/m 8,2 C 7,2 C 16,1 km/h (3 Bft) 100,00 %
09.11.2018 04:28 9,3 C 10,0 C 9,4 C 93 % 1016,2 hPa 0,0 l/m 8,3 km/h (2 Bft) O-SO 110 0 min 0,000 mm 0,0 UV-I 0 W/m 8,2 C 7,9 C 12,9 km/h (3 Bft) 96,00 %
09.11.2018 04:30 9,3 C 10,0 C 9,4 C 93 % 1016,1 hPa 0,0 l/m 10,9 km/h (2 Bft) O 82 0 min 0,000 mm 0,0 UV-I 0 W/m 8,2 C 6,3 C 16,1 km/h (3 Bft) 98,11 %
09.11.2018 04:32 9,3 C 10,0 C 9,4 C 93 % 1016,1 hPa 0,0 l/m 10,4 km/h (2 Bft) O-SO 107 0 min 0,000 mm 0,0 UV-I 0 W/m 8,2 C 6,6 C 16,1 km/h (3 Bft) 100,00 %
09.11.2018 04:34 9,3 C 10,0 C 9,4 C 93 % 1016,1 hPa 0,0 l/m 10,4 km/h (2 Bft) O-NO 60 0 min 0,000 mm 0,0 UV-I 0 W/m 8,2 C 6,6 C 17,7 km/h (3 Bft) 95,74 %
09.11.2018 04:36 9,3 C 10,0 C 9,4 C 93 % 1016,1 hPa 0,0 l/m 13,7 km/h (3 Bft) O 101 0 min 0,000 mm 0,0 UV-I 0 W/m 8,2 C 4,9 C 19,3 km/h (3 Bft) 95,74 %
09.11.2018 04:38 9,3 C 10,0 C 9,4 C 93 % 1016,2 hPa 0,0 l/m 10,5 km/h (2 Bft) O-NO 70 0 min 0,000 mm 0,0 UV-I 0 W/m 8,2 C 6,5 C 16,1 km/h (3 Bft) 91,49 %
09.11.2018 04:40 9,3 C 10,0 C 9,4 C 93 % 1016,2 hPa 0,0 l/m 12,8 km/h (3 Bft) O-NO 63 0 min 0,000 mm 0,0 UV-I 0 W/m 8,2 C 5,3 C 20,9 km/h (4 Bft) 97,87 %
09.11.2018 04:42 9,3 C 10,0 C 9,4 C 93 % 1016,2 hPa 0,0 l/m 14,7 km/h (3 Bft) O 86 0 min 0,000 mm 0,0 UV-I 0 W/m 8,2 C 4,4 C 19,3 km/h (3 Bft) 97,37 %
09.11.2018 04:44 9,3 C 10,0 C 9,4 C 93 % 1016,2 hPa 0,0 l/m 14,6 km/h (3 Bft) O 98 0 min 0,000 mm 0,0 UV-I 0 W/m 8,2 C 4,5 C 17,7 km/h (3 Bft) 97,87 %
09.11.2018 04:46 9,3 C 10,0 C 9,4 C 93 % 1016,2 hPa 0,0 l/m 11,0 km/h (2 Bft) O-NO 68 0 min 0,000 mm 0,0 UV-I 0 W/m 8,2 C 6,2 C 14,5 km/h (3 Bft) 93,62 %
09.11.2018 04:48 9,3 C 10,0 C 9,4 C 93 % 1016,2 hPa 0,0 l/m 10,7 km/h (2 Bft) O 96 0 min 0,000 mm 0,0 UV-I 0 W/m 8,2 C 6,4 C 16,1 km/h (3 Bft) 97,87 %
09.11.2018 04:50 9,3 C 10,0 C 9,4 C 93 % 1016,2 hPa 0,0 l/m 8,5 km/h (2 Bft) O 92 0 min 0,000 mm 0,0 UV-I 0 W/m 8,2 C 7,8 C 12,9 km/h (3 Bft) 97,87 %
09.11.2018 04:52 9,3 C 10,0 C 9,4 C 93 % 1016,2 hPa 0,0 l/m 8,9 km/h (2 Bft) O 90 0 min 0,000 mm 0,0 UV-I 0 W/m 8,2 C 7,5 C 14,5 km/h (3 Bft) 96,00 %
09.11.2018 04:54 9,3 C 10,0 C 9,4 C 93 % 1016,2 hPa 0,0 l/m 7,2 km/h (2 Bft) O 97 0 min 0,000 mm 0,0 UV-I 0 W/m 8,2 C 8,7 C 12,9 km/h (3 Bft) 95,74 %
09.11.2018 04:56 9,3 C 10,0 C 9,4 C 93 % 1016,2 hPa 0,0 l/m 6,7 km/h (2 Bft) O 96 0 min 0,000 mm 0,0 UV-I 0 W/m 8,2 C 9,1 C 11,3 km/h (2 Bft) 97,87 %
09.11.2018 04:58 9,3 C 10,0 C 9,4 C 93 % 1016,0 hPa 0,0 l/m 7,9 km/h (2 Bft) O-NO 71 0 min 0,000 mm 0,0 UV-I 0 W/m 8,2 C 8,2 C 12,9 km/h (3 Bft) 98,00 %
09.11.2018 05:00 9,3 C 10,0 C 9,4 C 93 % 1016,0 hPa 0,0 l/m 10,6 km/h (2 Bft) O-NO 63 0 min 0,000 mm 0,0 UV-I 0 W/m 8,2 C 6,5 C 16,1 km/h (3 Bft) 97,87 %
09.11.2018 05:02 9,3 C 10,0 C 9,4 C 93 % 1016,0 hPa 0,0 l/m 7,6 km/h (2 Bft) O-NO 65 0 min 0,000 mm 0,0 UV-I 0 W/m 8,2 C 8,4 C 12,9 km/h (3 Bft) 93,75 %
09.11.2018 05:04 9,3 C 10,0 C 9,4 C 93 % 1016,1 hPa 0,0 l/m 9,9 km/h (2 Bft) O-NO 65 0 min 0,000 mm 0,0 UV-I 0 W/m 8,2 C 6,9 C 16,1 km/h (3 Bft) 92,11 %
09.11.2018 05:06 9,2 C 10,0 C 9,4 C 93 % 1016,1 hPa 0,0 l/m 7,7 km/h (2 Bft) NO 40 0 min 0,000 mm 0,0 UV-I 0 W/m 8,1 C 8,2 C 12,9 km/h (3 Bft) 88,00 %
09.11.2018 05:08 9,2 C 10,0 C 9,4 C 93 % 1016,1 hPa 0,0 l/m 7,5 km/h (2 Bft) O 80 0 min 0,000 mm 0,0 UV-I 0 W/m 8,1 C 8,4 C 11,3 km/h (2 Bft) 95,74 %
09.11.2018 05:10 9,2 C 10,0 C 9,4 C 93 % 1016,2 hPa 0,0 l/m 6,9 km/h (2 Bft) O 82 0 min 0,000 mm 0,0 UV-I 0 W/m 8,1 C 8,8 C 12,9 km/h (3 Bft) 91,49 %
09.11.2018 05:12 9,2 C 10,0 C 9,4 C 93 % 1016,3 hPa 0,0 l/m 5,5 km/h (1 Bft) O 84 0 min 0,000 mm 0,0 UV-I 0 W/m 8,1 C 9,2 C 8,0 km/h (2 Bft) 91,49 %
09.11.2018 05:14 9,2 C 10,0 C 9,4 C 93 % 1016,3 hPa 0,0 l/m 5,3 km/h (1 Bft) O-NO 63 0 min 0,000 mm 0,0 UV-I 0 W/m 8,1 C 9,2 C 9,7 km/h (2 Bft) 93,62 %
09.11.2018 05:16 9,2 C 10,0 C 9,4 C 93 % 1016,3 hPa 0,0 l/m 6,4 km/h (2 Bft) N-NO 22 0 min 0,000 mm 0,0 UV-I 0 W/m 8,1 C 9,2 C 11,3 km/h (2 Bft) 93,62 %
09.11.2018 05:18 9,2 C 10,0 C 9,4 C 94 % 1016,3 hPa 0,0 l/m 6,9 km/h (2 Bft) O-NO 61 0 min 0,000 mm 0,0 UV-I 0 W/m 8,3 C 8,8 C 9,7 km/h (2 Bft) 91,84 %
09.11.2018 05:20 9,2 C 10,0 C 9,4 C 94 % 1016,3 hPa 0,0 l/m 6,0 km/h (2 Bft) O-NO 70 0 min 0,000 mm 0,0 UV-I 0 W/m 8,3 C 9,2 C 11,3 km/h (2 Bft) 91,49 %
09.11.2018 05:22 9,2 C 10,0 C 9,4 C 94 % 1016,3 hPa 0,0 l/m 4,9 km/h (1 Bft) O-NO 61 0 min 0,000 mm 0,0 UV-I 0 W/m 8,3 C 9,2 C 8,0 km/h (2 Bft) 91,49 %
09.11.2018 05:24 9,2 C 10,0 C 9,4 C 94 % 1016,3 hPa 0,0 l/m 6,0 km/h (2 Bft) O-NO 76 0 min 0,000 mm 0,0 UV-I 0 W/m 8,3 C 9,2 C 8,0 km/h (2 Bft) 91,49 %
09.11.2018 05:26 9,2 C 10,0 C 9,4 C 94 % 1016,3 hPa 0,0 l/m 5,0 km/h (1 Bft) O-NO 61 0 min 0,000 mm 0,0 UV-I 0 W/m 8,3 C 9,2 C 8,0 km/h (2 Bft) 95,74 %
09.11.2018 05:28 9,2 C 10,0 C 9,4 C 94 % 1016,4 hPa 0,0 l/m 5,8 km/h (2 Bft) O-NO 58 0 min 0,000 mm 0,0 UV-I 0 W/m 8,3 C 9,2 C 9,7 km/h (2 Bft) 91,49 %
09.11.2018 05:30 9,2 C 10,0 C 9,4 C 94 % 1016,4 hPa 0,0 l/m 5,0 km/h (1 Bft) O-NO 63 0 min 0,000 mm 0,0 UV-I 0 W/m 8,3 C 9,2 C 6,4 km/h (2 Bft) 91,49 %
09.11.2018 05:32 9,2 C 10,0 C 8,9 C 94 % 1016,3 hPa 0,0 l/m 4,5 km/h (1 Bft) O-NO 65 0 min 0,000 mm 0,0 UV-I 0 W/m 8,3 C 9,2 C 8,0 km/h (2 Bft) 91,49 %
09.11.2018 05:34 9,2 C 10,0 C 8,9 C 94 % 1016,3 hPa 0,0 l/m 5,5 km/h (1 Bft) O-NO 59 0 min 0,000 mm 0,0 UV-I 0 W/m 8,3 C 9,2 C 8,0 km/h (2 Bft) 95,74 %
09.11.2018 05:36 9,2 C 10,0 C 8,9 C 94 % 1016,2 hPa 0,0 l/m 6,6 km/h (2 Bft) NO 50 0 min 0,000 mm 0,0 UV-I 0 W/m 8,3 C 9,1 C 9,7 km/h (2 Bft) 93,62 %
09.11.2018 05:38 9,2 C 10,0 C 8,9 C 94 % 1016,2 hPa 0,0 l/m 6,3 km/h (2 Bft) O-NO 67 0 min 0,000 mm 0,0 UV-I 0 W/m 8,3 C 9,2 C 9,7 km/h (2 Bft) 95,74 %
09.11.2018 05:40 9,2 C 10,0 C 8,9 C 94 % 1016,2 hPa 0,0 l/m 6,4 km/h (2 Bft) O-NO 65 0 min 0,000 mm 0,0 UV-I 0 W/m 8,3 C 9,2 C 9,7 km/h (2 Bft) 95,74 %
09.11.2018 05:42 9,1 C 10,0 C 8,9 C 94 % 1016,2 hPa 0,0 l/m 5,6 km/h (1 Bft) O-NO 77 0 min 0,000 mm 0,0 UV-I 0 W/m 8,2 C 9,1 C 8,0 km/h (2 Bft) 95,83 %
09.11.2018 05:44 9,1 C 10,0 C 8,9 C 94 % 1016,2 hPa 0,0 l/m 5,9 km/h (2 Bft) O-NO 60 0 min 0,000 mm 0,0 UV-I 0 W/m 8,2 C 9,1 C 12,9 km/h (3 Bft) 94,74 %
09.11.2018 05:46 9,1 C 10,0 C 8,9 C 94 % 1016,2 hPa 0,0 l/m 6,5 km/h (2 Bft) O-NO 59 0 min 0,000 mm 0,0 UV-I 0 W/m 8,2 C 9,1 C 11,3 km/h (2 Bft) 97,96 %
09.11.2018 05:48 9,1 C 10,0 C 8,9 C 94 % 1016,2 hPa 0,0 l/m 5,9 km/h (2 Bft) NO 51 0 min 0,000 mm 0,0 UV-I 0 W/m 8,2 C 9,1 C 8,0 km/h (2 Bft) 97,87 %
09.11.2018 05:50 9,2 C 10,0 C 8,9 C 94 % 1016,2 hPa 0,0 l/m 6,1 km/h (2 Bft) O-NO 59 0 min 0,000 mm 0,0 UV-I 0 W/m 8,3 C 9,2 C 9,7 km/h (2 Bft) 100,00 %
09.11.2018 05:52 9,1 C 10,0 C 8,9 C 94 % 1016,3 hPa 0,0 l/m 7,0 km/h (2 Bft) O-NO 57 0 min 0,000 mm 0,0 UV-I 0 W/m 8,2 C 8,7 C 12,9 km/h (3 Bft) 100,00 %
09.11.2018 05:54 9,1 C 10,0 C 8,9 C 94 % 1016,3 hPa 0,0 l/m 7,0 km/h (2 Bft) O-NO 65 0 min 0,000 mm 0,0 UV-I 0 W/m 8,2 C 8,7 C 11,3 km/h (2 Bft) 98,00 %
09.11.2018 05:56 9,1 C 10,0 C 8,9 C 94 % 1016,3 hPa 0,0 l/m 6,8 km/h (2 Bft) NO 44 0 min 0,000 mm 0,0 UV-I 0 W/m 8,2 C 8,8 C 11,3 km/h (2 Bft) 95,74 %
09.11.2018 05:58 9,1 C 10,0 C 8,9 C 94 % 1016,4 hPa 0,0 l/m 6,4 km/h (2 Bft) O-NO 64 0 min 0,000 mm 0,0 UV-I 0 W/m 8,2 C 9,1 C 9,7 km/h (2 Bft) 100,00 %
09.11.2018 06:00 9,1 C 10,0 C 8,9 C 94 % 1016,4 hPa 0,0 l/m 4,7 km/h (1 Bft) NO 45 0 min 0,000 mm 0,0 UV-I 0 W/m 8,2 C 9,1 C 6,4 km/h (2 Bft) 100,00 %
09.11.2018 06:02 9,1 C 10,0 C 8,9 C 94 % 1016,4 hPa 0,0 l/m 5,1 km/h (1 Bft) NO 56 0 min 0,000 mm 0,0 UV-I 0 W/m 8,2 C 9,1 C 6,4 km/h (2 Bft) 100,00 %
09.11.2018 06:04 9,1 C 10,0 C 8,9 C 94 % 1016,4 hPa 0,0 l/m 6,2 km/h (2 Bft) NO 49 0 min 0,000 mm 0,0 UV-I 0 W/m 8,2 C 9,1 C 8,0 km/h (2 Bft) 100,00 %
09.11.2018 06:06 9,1 C 10,0 C 8,9 C 94 % 1016,4 hPa 0,0 l/m 4,9 km/h (1 Bft) NO 46 0 min 0,000 mm 0,0 UV-I 0 W/m 8,2 C 9,1 C 6,4 km/h (2 Bft) 100,00 %
09.11.2018 06:08 9,1 C 10,0 C 8,9 C 94 % 1016,4 hPa 0,0 l/m 5,0 km/h (1 Bft) NO 48 0 min 0,000 mm 0,0 UV-I 0 W/m 8,2 C 9,1 C 6,4 km/h (2 Bft) 100,00 %
09.11.2018 06:10 9,1 C 10,0 C 8,9 C 94 % 1016,4 hPa 0,0 l/m 5,7 km/h (1 Bft) NO 54 0 min 0,000 mm 0,0 UV-I 0 W/m 8,2 C 9,1 C 8,0 km/h (2 Bft) 100,00 %
09.11.2018 06:12 9,1 C 10,0 C 8,9 C 94 % 1016,4 hPa 0,0 l/m 5,7 km/h (1 Bft) NO 48 0 min 0,000 mm 0,0 UV-I 0 W/m 8,2 C 9,1 C 8,0 km/h (2 Bft) 100,00 %
09.11.2018 06:14 9,1 C 10,0 C 8,9 C 94 % 1016,3 hPa 0,0 l/m 5,0 km/h (1 Bft) NO 42 0 min 0,000 mm 0,0 UV-I 0 W/m 8,2 C 9,1 C 6,4 km/h (2 Bft) 100,00 %
09.11.2018 06:16 9,1 C 10,0 C 8,9 C 94 % 1016,4 hPa 0,0 l/m 5,6 km/h (1 Bft) NO 50 0 min 0,000 mm 0,0 UV-I 0 W/m 8,2 C 9,1 C 9,7 km/h (2 Bft) 98,00 %
09.11.2018 06:18 9,1 C 10,0 C 8,9 C 94 % 1016,3 hPa 0,0 l/m 7,3 km/h (2 Bft) O-NO 69 0 min 0,000 mm 0,0 UV-I 0 W/m 8,2 C 8,4 C 9,7 km/h (2 Bft) 98,04 %
09.11.2018 06:20 9,1 C 10,0 C 8,9 C 94 % 1016,3 hPa 0,0 l/m 7,4 km/h (2 Bft) O-NO 57 0 min 0,000 mm 0,0 UV-I 0 W/m 8,2 C 8,3 C 9,7 km/h (2 Bft) 100,00 %
09.11.2018 06:22 9,1 C 10,0 C 8,9 C 94 % 1016,3 hPa 0,0 l/m 6,7 km/h (2 Bft) O-NO 61 0 min 0,000 mm 0,0 UV-I 0 W/m 8,2 C 8,9 C 9,7 km/h (2 Bft) 100,00 %
09.11.2018 06:24 9,1 C 10,0 C 8,9 C 94 % 1016,3 hPa 0,0 l/m 5,0 km/h (1 Bft) O-NO 78 0 min 0,000 mm 0,0 UV-I 0 W/m 8,2 C 9,1 C 8,0 km/h (2 Bft) 97,56 %
09.11.2018 06:26 9,1 C 10,0 C 8,9 C 94 % 1016,3 hPa 0,0 l/m 6,4 km/h (2 Bft) O-NO 69 0 min 0,000 mm 0,0 UV-I 0 W/m 8,2 C 9,1 C 11,3 km/h (2 Bft) 93,62 %
09.11.2018 06:28 9,1 C 10,0 C 8,9 C 94 % 1016,3 hPa 0,0 l/m 5,0 km/h (1 Bft) O-NO 61 0 min 0,000 mm 0,0 UV-I 0 W/m 8,2 C 9,1 C 8,0 km/h (2 Bft) 93,62 %
09.11.2018 06:30 9,1 C 10,0 C 8,9 C 94 % 1016,3 hPa 0,0 l/m 4,2 km/h (1 Bft) O-NO 76 0 min 0,000 mm 0,0 UV-I 0 W/m 8,2 C 9,1 C 6,4 km/h (2 Bft) 97,87 %
09.11.2018 06:32 9,1 C 10,0 C 8,9 C 94 % 1016,4 hPa 0,0 l/m 4,8 km/h (1 Bft) O-NO 69 0 min 0,000 mm 0,0 UV-I 0 W/m 8,2 C 9,1 C 8,0 km/h (2 Bft) 98,00 %
09.11.2018 06:34 9,1 C 10,0 C 8,9 C 94 % 1016,4 hPa 0,0 l/m 4,2 km/h (1 Bft) O-NO 71 0 min 0,000 mm 0,0 UV-I 0 W/m 8,2 C 9,1 C 6,4 km/h (2 Bft) 95,74 %
09.11.2018 06:36 9,1 C 10,0 C 8,9 C 94 % 1016,4 hPa 0,0 l/m 3,0 km/h (1 Bft) NO 49 0 min 0,000 mm 0,0 UV-I 0 W/m 8,2 C 9,1 C 4,8 km/h (1 Bft) 97,87 %
09.11.2018 06:38 9,1 C 10,0 C 8,9 C 94 % 1016,4 hPa 0,0 l/m 5,0 km/h (1 Bft) NO 36 0 min 0,000 mm 0,0 UV-I 0 W/m 8,2 C 9,1 C 6,4 km/h (2 Bft) 95,74 %
09.11.2018 06:40 9,1 C 10,0 C 8,9 C 94 % 1016,4 hPa 0,0 l/m 5,5 km/h (1 Bft) O-NO 65 0 min 0,000 mm 0,0 UV-I 0 W/m 8,2 C 9,1 C 8,0 km/h (2 Bft) 97,87 %
09.11.2018 06:42 9,1 C 10,0 C 8,9 C 94 % 1016,5 hPa 0,0 l/m 3,6 km/h (1 Bft) NO 53 0 min 0,000 mm 0,0 UV-I 0 W/m 8,2 C 9,1 C 6,4 km/h (2 Bft) 96,00 %
09.11.2018 06:44 9,1 C 10,0 C 8,9 C 94 % 1016,5 hPa 0,0 l/m 5,5 km/h (1 Bft) O-NO 68 0 min 0,000 mm 0,0 UV-I 0 W/m 8,2 C 9,1 C 8,0 km/h (2 Bft) 95,74 %
09.11.2018 06:46 9,1 C 10,0 C 8,9 C 94 % 1016,6 hPa 0,0 l/m 4,6 km/h (1 Bft) O-NO 73 0 min 0,000 mm 0,0 UV-I 0 W/m 8,2 C 9,1 C 6,4 km/h (2 Bft) 94,44 %
09.11.2018 06:48 9,1 C 10,0 C 8,9 C 94 % 1016,6 hPa 0,0 l/m 4,4 km/h (1 Bft) NO 42 0 min 0,000 mm 0,0 UV-I 0 W/m 8,2 C 9,1 C 6,4 km/h (2 Bft) 100,00 %
09.11.2018 06:50 9,1 C 10,0 C 8,9 C 94 % 1016,6 hPa 0,0 l/m 3,8 km/h (1 Bft) NO 42 0 min 0,000 mm 0,0 UV-I 0 W/m 8,2 C 9,1 C 6,4 km/h (2 Bft) 100,00 %
09.11.2018 06:52 9,1 C 10,0 C 8,9 C 94 % 1016,7 hPa 0,0 l/m 2,2 km/h (1 Bft) NO 42 0 min 0,000 mm 0,0 UV-I 0 W/m 8,2 C 9,1 C 4,8 km/h (1 Bft) 100,00 %
09.11.2018 06:54 9,1 C 10,0 C 8,9 C 94 % 1016,7 hPa 0,0 l/m 0,2 km/h (0 Bft) NO 42 0 min 0,000 mm 0,0 UV-I 0 W/m 8,2 C 9,1 C 1,6 km/h (1 Bft) 100,00 %
09.11.2018 06:56 9,1 C 10,0 C 8,9 C 94 % 1016,7 hPa 0,0 l/m 1,1 km/h (1 Bft) NO 42 0 min 0,000 mm 0,0 UV-I 0 W/m 8,2 C 9,1 C 1,6 km/h (1 Bft) 100,00 %
09.11.2018 06:58 9,1 C 10,0 C 8,9 C 94 % 1016,8 hPa 0,0 l/m 2,5 km/h (1 Bft) NO 42 0 min 0,000 mm 0,0 UV-I 0 W/m 8,2 C 9,1 C 3,2 km/h (1 Bft) 97,87 %
09.11.2018 07:00 9,1 C 10,0 C 8,9 C 94 % 1016,7 hPa 0,0 l/m 3,1 km/h (1 Bft) NO 42 0 min 0,000 mm 0,0 UV-I 5 W/m 8,2 C 9,1 C 4,8 km/h (1 Bft) 100,00 %
09.11.2018 07:02 9,1 C 10,0 C 8,9 C 94 % 1016,7 hPa 0,0 l/m 2,8 km/h (1 Bft) NO 42 0 min 0,000 mm 0,0 UV-I 5 W/m 8,2 C 9,1 C 4,8 km/h (1 Bft) 100,00 %
09.11.2018 07:04 9,0 C 10,0 C 8,9 C 94 % 1016,7 hPa 0,0 l/m 2,4 km/h (1 Bft) NO 42 0 min 0,000 mm 0,0 UV-I 5 W/m 8,1 C 9,0 C 3,2 km/h (1 Bft) 100,00 %
09.11.2018 07:06 9,0 C 10,0 C 8,9 C 94 % 1016,7 hPa 0,0 l/m 2,1 km/h (1 Bft) NO 42 0 min 0,000 mm 0,0 UV-I 5 W/m 8,1 C 9,0 C 3,2 km/h (1 Bft) 97,87 %
09.11.2018 07:08 9,0 C 10,0 C 8,9 C 94 % 1016,8 hPa 0,0 l/m 1,6 km/h (1 Bft) NO 42 0 min 0,000 mm 0,0 UV-I 6 W/m 8,1 C 9,0 C 3,2 km/h (1 Bft) 97,87 %
09.11.2018 07:10 9,0 C 10,0 C 8,9 C 94 % 1016,9 hPa 0,0 l/m 2,3 km/h (1 Bft) NO 42 0 min 0,000 mm 0,0 UV-I 8 W/m 8,1 C 9,0 C 3,2 km/h (1 Bft) 96,00 %
09.11.2018 07:12 9,0 C 10,0 C 8,9 C 94 % 1016,9 hPa 0,0 l/m 3,7 km/h (1 Bft) NO 42 2 min 0,000 mm 0,0 UV-I 10 W/m 8,1 C 9,0 C 4,8 km/h (1 Bft) 97,37 %
09.11.2018 07:14 9,0 C 10,0 C 8,9 C 94 % 1017,0 hPa 0,0 l/m 2,7 km/h (1 Bft) NO 42 0 min 0,000 mm 0,0 UV-I 11 W/m 8,1 C 9,0 C 4,8 km/h (1 Bft) 97,87 %
09.11.2018 07:16 9,1 C 10,0 C 8,9 C 94 % 1016,9 hPa 0,0 l/m 2,3 km/h (1 Bft) NO 42 0 min 0,000 mm 0,0 UV-I 12 W/m 8,2 C 9,1 C 3,2 km/h (1 Bft) 95,74 %
09.11.2018 07:18 9,1 C 10,0 C 9,4 C 94 % 1017,0 hPa 0,0 l/m 2,2 km/h (1 Bft) NO 42 0 min 0,000 mm 0,0 UV-I 12 W/m 8,2 C 9,1 C 3,2 km/h (1 Bft) 97,87 %
09.11.2018 07:20 9,1 C 10,0 C 9,4 C 94 % 1017,1 hPa 0,0 l/m 1,5 km/h (1 Bft) NO 42 0 min 0,000 mm 0,0 UV-I 12 W/m 8,2 C 9,1 C 3,2 km/h (1 Bft) 97,87 %
09.11.2018 07:22 9,1 C 10,0 C 9,4 C 94 % 1017,1 hPa 0,0 l/m 1,3 km/h (1 Bft) NO 42 0 min 0,000 mm 0,0 UV-I 12 W/m 8,2 C 9,1 C 3,2 km/h (1 Bft) 93,62 %
09.11.2018 07:24 9,1 C 10,0 C 9,4 C 94 % 1017,2 hPa 0,0 l/m 1,0 km/h (0 Bft) NO 42 0 min 0,000 mm 0,0 UV-I 11 W/m 8,2 C 9,1 C 3,2 km/h (1 Bft) 97,87 %
09.11.2018 07:26 9,1 C 10,0 C 9,4 C 94 % 1017,1 hPa 0,0 l/m 0,8 km/h (0 Bft) NO 42 0 min 0,000 mm 0,0 UV-I 11 W/m 8,2 C 9,1 C 3,2 km/h (1 Bft) 95,74 %
09.11.2018 07:28 9,1 C 10,0 C 9,4 C 94 % 1017,2 hPa 0,0 l/m 2,9 km/h (1 Bft) NO 42 0 min 0,000 mm 0,0 UV-I 12 W/m 8,2 C 9,1 C 3,2 km/h (1 Bft) 97,87 %
09.11.2018 07:30 9,1 C 10,0 C 9,4 C 94 % 1017,2 hPa 0,0 l/m 2,0 km/h (1 Bft) NO 42 0 min 0,000 mm 0,0 UV-I 12 W/m 8,2 C 9,1 C 3,2 km/h (1 Bft) 93,62 %
09.11.2018 07:32 9,1 C 10,0 C 9,4 C 94 % 1017,2 hPa 0,0 l/m 2,5 km/h (1 Bft) NO 42 0 min 0,000 mm 0,0 UV-I 13 W/m 8,2 C 9,1 C 3,2 km/h (1 Bft) 97,92 %
09.11.2018 07:34 9,1 C 10,0 C 9,4 C 94 % 1017,2 hPa 0,0 l/m 2,7 km/h (1 Bft) NO 42 0 min 0,000 mm 0,0 UV-I 16 W/m 8,2 C 9,1 C 4,8 km/h (1 Bft) 97,87 %
09.11.2018 07:36 9,1 C 10,0 C 9,4 C 94 % 1017,3 hPa 0,0 l/m 2,0 km/h (1 Bft) NO 42 0 min 0,000 mm 0,0 UV-I 16 W/m 8,2 C 9,1 C 3,2 km/h (1 Bft) 98,00 %
09.11.2018 07:38 9,1 C 10,0 C 9,4 C 93 % 1017,3 hPa 0,0 l/m 1,3 km/h (1 Bft) NO 42 0 min 0,000 mm 0,0 UV-I 16 W/m 8,0 C 9,1 C 3,2 km/h (1 Bft) 97,87 %
09.11.2018 07:40 9,1 C 10,0 C 9,4 C 93 % 1017,3 hPa 0,0 l/m 2,6 km/h (1 Bft) NO 42 0 min 0,000 mm 0,0 UV-I 16 W/m 8,0 C 9,1 C 3,2 km/h (1 Bft) 97,87 %
09.11.2018 07:42 9,2 C 10,0 C 9,4 C 93 % 1017,3 hPa 0,0 l/m 4,0 km/h (1 Bft) NO 46 0 min 0,000 mm 0,0 UV-I 15 W/m 8,1 C 9,2 C 4,8 km/h (1 Bft) 100,00 %
09.11.2018 07:44 9,2 C 10,0 C 9,4 C 93 % 1017,2 hPa 0,0 l/m 3,3 km/h (1 Bft) NO 49 0 min 0,000 mm 0,0 UV-I 15 W/m 8,1 C 9,2 C 4,8 km/h (1 Bft) 97,87 %
09.11.2018 07:46 9,2 C 10,0 C 9,4 C 93 % 1017,2 hPa 0,0 l/m 3,2 km/h (1 Bft) NO 49 0 min 0,000 mm 0,0 UV-I 17 W/m 8,1 C 9,2 C 4,8 km/h (1 Bft) 95,74 %
09.11.2018 07:48 9,2 C 10,0 C 9,4 C 93 % 1017,3 hPa 0,0 l/m 2,7 km/h (1 Bft) NO 49 0 min 0,000 mm 0,0 UV-I 19 W/m 8,1 C 9,2 C 4,8 km/h (1 Bft) 97,87 %
09.11.2018 07:50 9,2 C 10,0 C 9,4 C 93 % 1017,3 hPa 0,0 l/m 2,0 km/h (1 Bft) NO 49 0 min 0,000 mm 0,0 UV-I 18 W/m 8,1 C 9,2 C 3,2 km/h (1 Bft) 97,87 %
09.11.2018 07:52 9,2 C 10,0 C 9,4 C 93 % 1017,2 hPa 0,0 l/m 2,5 km/h (1 Bft) NO 49 0 min 0,000 mm 0,0 UV-I 19 W/m 8,1 C 9,2 C 4,8 km/h (1 Bft) 97,87 %
09.11.2018 07:54 9,2 C 10,0 C 9,4 C 94 % 1017,2 hPa 0,0 l/m 2,5 km/h (1 Bft) NO 49 0 min 0,000 mm 0,0 UV-I 19 W/m 8,3 C 9,2 C 3,2 km/h (1 Bft) 95,74 %
09.11.2018 07:56 9,2 C 10,0 C 9,4 C 94 % 1017,2 hPa 0,0 l/m 3,0 km/h (1 Bft) NO 49 0 min 0,000 mm 0,0 UV-I 20 W/m 8,3 C 9,2 C 4,8 km/h (1 Bft) 97,30 %
09.11.2018 07:58 9,2 C 10,0 C 9,4 C 93 % 1017,2 hPa 0,0 l/m 3,7 km/h (1 Bft) NO 49 0 min 0,000 mm 0,0 UV-I 21 W/m 8,1 C 9,2 C 4,8 km/h (1 Bft) 98,00 %
09.11.2018 08:00 9,2 C 10,0 C 9,4 C 94 % 1017,2 hPa 0,0 l/m 3,1 km/h (1 Bft) NO 49 0 min 0,000 mm 0,0 UV-I 21 W/m 8,3 C 9,2 C 4,8 km/h (1 Bft) 97,87 %
09.11.2018 08:02 9,2 C 10,0 C 9,4 C 93 % 1017,2 hPa 0,0 l/m 2,3 km/h (1 Bft) NO 49 0 min 0,000 mm 0,0 UV-I 21 W/m 8,1 C 9,2 C 3,2 km/h (1 Bft) 98,00 %
09.11.2018 08:04 9,2 C 10,0 C 9,4 C 93 % 1017,2 hPa 0,0 l/m 2,6 km/h (1 Bft) NO 49 0 min 0,000 mm 0,0 UV-I 21 W/m 8,1 C 9,2 C 4,8 km/h (1 Bft) 97,87 %
09.11.2018 08:06 9,2 C 10,0 C 9,4 C 93 % 1017,2 hPa 0,0 l/m 2,1 km/h (1 Bft) NO 49 0 min 0,000 mm 0,0 UV-I 21 W/m 8,1 C 9,2 C 3,2 km/h (1 Bft) 96,00 %
09.11.2018 08:08 9,2 C 10,0 C 9,4 C 93 % 1017,2 hPa 0,0 l/m 2,8 km/h (1 Bft) NO 49 0 min 0,000 mm 0,0 UV-I 21 W/m 8,1 C 9,2 C 4,8 km/h (1 Bft) 95,74 %
09.11.2018 08:10 9,2 C 10,0 C 9,4 C 93 % 1017,2 hPa 0,0 l/m 1,2 km/h (1 Bft) NO 49 0 min 0,000 mm 0,0 UV-I 21 W/m 8,1 C 9,2 C 3,2 km/h (1 Bft) 97,87 %
09.11.2018 08:12 9,2 C 10,0 C 9,4 C 93 % 1017,2 hPa 0,0 l/m 1,5 km/h (1 Bft) O-NO 57 0 min 0,000 mm 0,0 UV-I 21 W/m 8,1 C 9,2 C 3,2 km/h (1 Bft) 97,62 %
09.11.2018 08:14 9,2 C 10,0 C 9,4 C 93 % 1017,2 hPa 0,0 l/m 2,2 km/h (1 Bft) O-NO 59 0 min 0,000 mm 0,0 UV-I 23 W/m 8,1 C 9,2 C 3,2 km/h (1 Bft) 100,00 %
09.11.2018 08:16 9,3 C 10,0 C 10,0 C 93 % 1017,2 hPa 0,0 l/m 1,7 km/h (1 Bft) O-NO 59 0 min 0,000 mm 0,0 UV-I 24 W/m 8,2 C 9,3 C 3,2 km/h (1 Bft) 100,00 %
09.11.2018 08:18 9,3 C 10,0 C 10,0 C 93 % 1017,2 hPa 0,0 l/m 2,0 km/h (1 Bft) O-NO 59 0 min 0,000 mm 0,0 UV-I 25 W/m 8,2 C 9,3 C 3,2 km/h (1 Bft) 100,00 %
09.11.2018 08:20 9,3 C 10,0 C 10,0 C 93 % 1017,3 hPa 0,0 l/m 3,2 km/h (1 Bft) O-NO 66 0 min 0,000 mm 0,0 UV-I 26 W/m 8,2 C 9,3 C 6,4 km/h (2 Bft) 97,37 %
09.11.2018 08:22 9,3 C 10,0 C 10,0 C 93 % 1017,3 hPa 0,0 l/m 3,8 km/h (1 Bft) O-NO 66 0 min 0,000 mm 0,0 UV-I 26 W/m 8,2 C 9,3 C 4,8 km/h (1 Bft) 100,00 %
09.11.2018 08:24 9,3 C 10,0 C 10,0 C 93 % 1017,3 hPa 0,0 l/m 3,5 km/h (1 Bft) O-NO 71 0 min 0,000 mm 0,0 UV-I 27 W/m 8,2 C 9,3 C 4,8 km/h (1 Bft) 97,87 %
09.11.2018 08:26 9,3 C 10,0 C 10,0 C 93 % 1017,3 hPa 0,0 l/m 2,8 km/h (1 Bft) O-NO 71 0 min 0,000 mm 0,0 UV-I 30 W/m 8,2 C 9,3 C 3,2 km/h (1 Bft) 100,00 %
09.11.2018 08:28 9,3 C 10,0 C 10,0 C 93 % 1017,3 hPa 0,0 l/m 3,5 km/h (1 Bft) O-NO 72 0 min 0,000 mm 0,0 UV-I 34 W/m 8,2 C 9,3 C 4,8 km/h (1 Bft) 100,00 %
09.11.2018 08:30 9,3 C 10,0 C 10,0 C 93 % 1017,3 hPa 0,0 l/m 3,1 km/h (1 Bft) O-NO 72 0 min 0,000 mm 0,0 UV-I 39 W/m 8,2 C 9,3 C 4,8 km/h (1 Bft) 100,00 %
09.11.2018 08:32 9,3 C 10,0 C 10,0 C 93 % 1017,3 hPa 0,0 l/m 4,3 km/h (1 Bft) O-NO 71 0 min 0,000 mm 0,0 UV-I 43 W/m 8,2 C 9,3 C 6,4 km/h (2 Bft) 97,87 %
09.11.2018 08:34 9,3 C 10,0 C 10,0 C 93 % 1017,2 hPa 0,0 l/m 4,3 km/h (1 Bft) O-NO 71 0 min 0,000 mm 0,0 UV-I 50 W/m 8,2 C 9,3 C 6,4 km/h (2 Bft) 100,00 %
09.11.2018 08:36 9,4 C 10,0 C 10,6 C 93 % 1017,3 hPa 0,0 l/m 3,2 km/h (1 Bft) NO 51 0 min 0,000 mm 0,0 UV-I 54 W/m 8,3 C 9,4 C 4,8 km/h (1 Bft) 98,00 %
09.11.2018 08:38 9,4 C 10,0 C 10,6 C 93 % 1017,3 hPa 0,0 l/m 2,9 km/h (1 Bft) NO 54 0 min 0,000 mm 0,0 UV-I 54 W/m 8,3 C 9,4 C 4,8 km/h (1 Bft) 100,00 %
09.11.2018 08:40 9,4 C 10,0 C 10,6 C 93 % 1017,3 hPa 0,0 l/m 3,7 km/h (1 Bft) O-NO 57 0 min 0,000 mm 0,0 UV-I 54 W/m 8,3 C 9,4 C 4,8 km/h (1 Bft) 100,00 %
09.11.2018 08:42 9,4 C 10,0 C 10,6 C 93 % 1017,4 hPa 0,0 l/m 1,5 km/h (1 Bft) O-NO 57 0 min 0,000 mm 0,0 UV-I 53 W/m 8,3 C 9,4 C 3,2 km/h (1 Bft) 97,87 %
09.11.2018 08:44 9,4 C 10,0 C 10,6 C 93 % 1017,4 hPa 0,0 l/m 1,4 km/h (1 Bft) O-NO 57 0 min 0,000 mm 0,0 UV-I 49 W/m 8,3 C 9,4 C 3,2 km/h (1 Bft) 97,87 %
09.11.2018 08:46 9,4 C 10,0 C 10,6 C 92 % 1017,4 hPa 0,0 l/m 1,2 km/h (1 Bft) O-NO 57 0 min 0,000 mm 0,0 UV-I 46 W/m 8,2 C 9,4 C 3,2 km/h (1 Bft) 97,87 %
09.11.2018 08:48 9,4 C 10,0 C 10,6 C 92 % 1017,4 hPa 0,0 l/m 1,4 km/h (1 Bft) O-NO 57 0 min 0,000 mm 0,0 UV-I 48 W/m 8,2 C 9,4 C 3,2 km/h (1 Bft) 97,92 %
09.11.2018 08:50 9,4 C 10,0 C 10,6 C 92 % 1017,5 hPa 0,0 l/m 1,3 km/h (1 Bft) O-NO 57 0 min 0,000 mm 0,0 UV-I 50 W/m 8,2 C 9,4 C 3,2 km/h (1 Bft) 97,87 %
09.11.2018 08:52 9,4 C 10,0 C 10,6 C 92 % 1017,5 hPa 0,0 l/m 1,0 km/h (0 Bft) O-NO 57 0 min 0,000 mm 0,0 UV-I 52 W/m 8,2 C 9,4 C 1,6 km/h (1 Bft) 97,87 %
09.11.2018 08:54 9,5 C 10,0 C 10,6 C 92 % 1017,5 hPa 0,0 l/m 2,0 km/h (1 Bft) O-NO 57 0 min 0,000 mm 0,0 UV-I 56 W/m 8,3 C 9,5 C 3,2 km/h (1 Bft) 97,87 %
09.11.2018 08:56 9,5 C 10,0 C 10,6 C 92 % 1017,4 hPa 0,0 l/m 3,2 km/h (1 Bft) O-NO 57 0 min 0,000 mm 0,0 UV-I 65 W/m 8,3 C 9,5 C 4,8 km/h (1 Bft) 95,74 %
09.11.2018 08:58 9,6 C 10,0 C 11,1 C 92 % 1017,4 hPa 0,0 l/m 4,0 km/h (1 Bft) O-NO 62 0 min 0,000 mm 0,0 UV-I 75 W/m 8,4 C 9,6 C 4,8 km/h (1 Bft) 97,87 %
09.11.2018 09:00 9,6 C 10,0 C 11,1 C 92 % 1017,3 hPa 0,0 l/m 3,6 km/h (1 Bft) O-NO 74 0 min 0,025 mm 0,0 UV-I 83 W/m 8,4 C 9,6 C 6,4 km/h (2 Bft) 97,87 %
09.11.2018 09:02 9,6 C 10,0 C 11,1 C 92 % 1017,3 hPa 0,0 l/m 4,1 km/h (1 Bft) O 80 0 min 0,000 mm 0,0 UV-I 89 W/m 8,4 C 9,6 C 4,8 km/h (1 Bft) 95,74 %
09.11.2018 09:04 9,6 C 10,0 C 11,7 C 92 % 1017,3 hPa 0,0 l/m 3,0 km/h (1 Bft) O 80 0 min 0,000 mm 0,0 UV-I 92 W/m 8,4 C 9,6 C 4,8 km/h (1 Bft) 95,74 %
09.11.2018 09:06 9,6 C 10,0 C 11,7 C 92 % 1017,3 hPa 0,0 l/m 3,0 km/h (1 Bft) O 80 0 min 0,000 mm 0,0 UV-I 91 W/m 8,4 C 9,6 C 4,8 km/h (1 Bft) 95,74 %
09.11.2018 09:08 9,6 C 10,0 C 11,7 C 92 % 1017,3 hPa 0,0 l/m 4,1 km/h (1 Bft) O 81 0 min 0,000 mm 0,0 UV-I 87 W/m 8,4 C 9,6 C 6,4 km/h (2 Bft) 95,74 %
09.11.2018 09:10 9,7 C 10,0 C 11,7 C 92 % 1017,3 hPa 0,0 l/m 4,3 km/h (1 Bft) O 84 0 min 0,000 mm 0,0 UV-I 85 W/m 8,5 C 9,7 C 6,4 km/h (2 Bft) 93,88 %
09.11.2018 09:12 9,6 C 10,0 C 11,7 C 91 % 1017,3 hPa 0,0 l/m 4,0 km/h (1 Bft) O 84 0 min 0,000 mm 0,0 UV-I 85 W/m 8,2 C 9,6 C 4,8 km/h (1 Bft) 94,74 %
09.11.2018 09:14 9,6 C 10,0 C 11,7 C 91 % 1017,3 hPa 0,0 l/m 4,5 km/h (1 Bft) O-SO 105 0 min 0,000 mm 0,0 UV-I 86 W/m 8,2 C 9,6 C 6,4 km/h (2 Bft) 91,49 %
09.11.2018 09:16 9,7 C 10,0 C 11,7 C 91 % 1017,2 hPa 0,0 l/m 4,9 km/h (1 Bft) O 92 0 min 0,000 mm 0,0 UV-I 83 W/m 8,3 C 9,7 C 6,4 km/h (2 Bft) 93,62 %
09.11.2018 09:18 9,7 C 10,0 C 11,7 C 91 % 1017,3 hPa 0,0 l/m 4,0 km/h (1 Bft) O-NO 71 0 min 0,000 mm 0,0 UV-I 77 W/m 8,3 C 9,7 C 6,4 km/h (2 Bft) 94,00 %
09.11.2018 09:20 9,7 C 10,0 C 11,7 C 92 % 1017,3 hPa 0,0 l/m 4,5 km/h (1 Bft) O 98 0 min 0,000 mm 0,0 UV-I 73 W/m 8,5 C 9,7 C 6,4 km/h (2 Bft) 92,31 %
09.11.2018 09:22 9,7 C 10,0 C 11,7 C 91 % 1017,3 hPa 0,0 l/m 4,8 km/h (1 Bft) O 92 0 min 0,000 mm 0,0 UV-I 72 W/m 8,3 C 9,7 C 6,4 km/h (2 Bft) 91,49 %
09.11.2018 09:24 9,7 C 10,0 C 11,7 C 91 % 1017,3 hPa 0,0 l/m 3,6 km/h (1 Bft) O 92 0 min 0,000 mm 0,0 UV-I 72 W/m 8,3 C 9,7 C 4,8 km/h (1 Bft) 93,62 %
09.11.2018 09:26 9,7 C 10,0 C 11,7 C 91 % 1017,3 hPa 0,0 l/m 2,6 km/h (1 Bft) O 90 0 min 0,000 mm 0,0 UV-I 76 W/m 8,3 C 9,7 C 4,8 km/h (1 Bft) 91,67 %
09.11.2018 09:28 9,7 C 10,0 C 11,7 C 91 % 1017,3 hPa 0,0 l/m 2,7 km/h (1 Bft) O 90 0 min 0,000 mm 0,0 UV-I 80 W/m 8,3 C 9,7 C 4,8 km/h (1 Bft) 93,62 %
09.11.2018 09:30 9,7 C 10,0 C 11,7 C 91 % 1017,3 hPa 0,0 l/m 4,8 km/h (1 Bft) O 94 0 min 0,000 mm 0,0 UV-I 82 W/m 8,3 C 9,7 C 6,4 km/h (2 Bft) 94,00 %
09.11.2018 09:32 9,7 C 10,0 C 11,7 C 91 % 1017,3 hPa 0,0 l/m 3,7 km/h (1 Bft) O 94 0 min 0,000 mm 0,0 UV-I 83 W/m 8,3 C 9,7 C 6,4 km/h (2 Bft) 93,62 %
09.11.2018 09:34 9,7 C 10,0 C 11,7 C 91 % 1017,3 hPa 0,0 l/m 4,5 km/h (1 Bft) O 96 0 min 0,000 mm 0,0 UV-I 78 W/m 8,3 C 9,7 C 6,4 km/h (2 Bft) 97,87 %
09.11.2018 09:36 9,7 C 10,0 C 11,7 C 90 % 1017,3 hPa 0,0 l/m 4,8 km/h (1 Bft) O 91 0 min 0,000 mm 0,0 UV-I 75 W/m 8,1 C 9,7 C 6,4 km/h (2 Bft) 93,62 %
09.11.2018 09:38 9,7 C 10,0 C 11,7 C 90 % 1017,3 hPa 0,0 l/m 6,7 km/h (2 Bft) O 87 0 min 0,000 mm 0,0 UV-I 71 W/m 8,1 C 9,5 C 11,3 km/h (2 Bft) 93,62 %
09.11.2018 09:40 9,7 C 10,0 C 11,7 C 90 % 1017,3 hPa 0,0 l/m 5,0 km/h (1 Bft) O-NO 67 0 min 0,000 mm 0,0 UV-I 69 W/m 8,1 C 9,7 C 6,4 km/h (2 Bft) 96,00 %
09.11.2018 09:42 9,7 C 10,0 C 11,1 C 91 % 1017,3 hPa 0,0 l/m 5,2 km/h (1 Bft) O-SO 109 0 min 0,000 mm 0,0 UV-I 69 W/m 8,3 C 9,7 C 8,0 km/h (2 Bft) 93,62 %
09.11.2018 09:44 9,7 C 10,0 C 11,1 C 91 % 1017,3 hPa 0,0 l/m 5,5 km/h (1 Bft) O-NO 71 0 min 0,000 mm 0,0 UV-I 71 W/m 8,3 C 9,7 C 9,7 km/h (2 Bft) 95,74 %
09.11.2018 09:46 9,7 C 10,0 C 11,1 C 91 % 1017,3 hPa 0,0 l/m 6,2 km/h (2 Bft) O 90 0 min 0,000 mm 0,0 UV-I 78 W/m 8,3 C 9,7 C 9,7 km/h (2 Bft) 97,87 %
09.11.2018 09:48 9,7 C 10,0 C 11,1 C 91 % 1017,3 hPa 0,0 l/m 7,1 km/h (2 Bft) O-SO 111 0 min 0,000 mm 0,0 UV-I 86 W/m 8,3 C 9,2 C 11,3 km/h (2 Bft) 97,87 %
09.11.2018 09:50 9,7 C 10,0 C 11,7 C 90 % 1017,3 hPa 0,0 l/m 5,5 km/h (1 Bft) O-SO 111 0 min 0,000 mm 0,0 UV-I 90 W/m 8,1 C 9,7 C 9,7 km/h (2 Bft) 97,87 %
09.11.2018 09:52 9,7 C 10,0 C 11,7 C 90 % 1017,3 hPa 0,0 l/m 3,0 km/h (1 Bft) O-SO 111 0 min 0,000 mm 0,0 UV-I 93 W/m 8,1 C 9,7 C 4,8 km/h (1 Bft) 95,74 %
09.11.2018 09:54 9,7 C 10,0 C 11,7 C 90 % 1017,3 hPa 0,0 l/m 2,3 km/h (1 Bft) O-SO 111 0 min 0,000 mm 0,0 UV-I 96 W/m 8,1 C 9,7 C 4,8 km/h (1 Bft) 97,87 %
09.11.2018 09:56 9,8 C 10,0 C 12,2 C 91 % 1017,3 hPa 0,0 l/m 3,5 km/h (1 Bft) O-SO 105 0 min 0,000 mm 0,0 UV-I 94 W/m 8,4 C 9,8 C 6,4 km/h (2 Bft) 95,74 %
09.11.2018 09:58 9,8 C 10,0 C 12,2 C 90 % 1017,4 hPa 0,0 l/m 2,8 km/h (1 Bft) O-SO 105 0 min 0,000 mm 0,0 UV-I 90 W/m 8,2 C 9,8 C 4,8 km/h (1 Bft) 97,22 %
09.11.2018 10:00 9,8 C 10,0 C 11,7 C 90 % 1017,4 hPa 0,0 l/m 2,8 km/h (1 Bft) O-SO 105 0 min 0,051 mm 0,0 UV-I 86 W/m 8,2 C 9,8 C 4,8 km/h (1 Bft) 100,00 %
09.11.2018 10:02 9,7 C 10,0 C 11,7 C 90 % 1017,4 hPa 0,0 l/m 3,7 km/h (1 Bft) O-NO 68 0 min 0,000 mm 0,0 UV-I 81 W/m 8,1 C 9,7 C 6,4 km/h (2 Bft) 100,00 %
09.11.2018 10:04 9,8 C 10,0 C 11,7 C 90 % 1017,3 hPa 0,0 l/m 4,1 km/h (1 Bft) O-NO 69 0 min 0,000 mm 0,0 UV-I 76 W/m 8,2 C 9,8 C 6,4 km/h (2 Bft) 100,00 %
09.11.2018 10:06 9,8 C 10,0 C 11,7 C 90 % 1017,3 hPa 0,0 l/m 4,1 km/h (1 Bft) O-SO 105 0 min 0,000 mm 0,0 UV-I 72 W/m 8,2 C 9,8 C 6,4 km/h (2 Bft) 97,87 %
09.11.2018 10:08 9,8 C 10,0 C 11,7 C 90 % 1017,3 hPa 0,0 l/m 5,2 km/h (1 Bft) O-NO 63 0 min 0,000 mm 0,0 UV-I 69 W/m 8,2 C 9,8 C 6,4 km/h (2 Bft) 100,00 %
09.11.2018 10:10 9,8 C 10,0 C 11,7 C 90 % 1017,2 hPa 0,0 l/m 5,1 km/h (1 Bft) O-NO 62 0 min 0,000 mm 0,0 UV-I 66 W/m 8,2 C 9,8 C 8,0 km/h (2 Bft) 100,00 %
09.11.2018 10:12 9,8 C 10,0 C 11,1 C 90 % 1017,3 hPa 0,0 l/m 6,5 km/h (2 Bft) O-NO 69 0 min 0,000 mm 0,0 UV-I 68 W/m 8,2 C 9,8 C 8,0 km/h (2 Bft) 98,00 %
09.11.2018 10:14 9,7 C 10,0 C 11,1 C 90 % 1017,4 hPa 0,0 l/m 5,6 km/h (1 Bft) O-NO 77 0 min 0,000 mm 0,0 UV-I 68 W/m 8,1 C 9,7 C 8,0 km/h (2 Bft) 100,00 %
09.11.2018 10:16 9,7 C 10,0 C 11,1 C 90 % 1017,3 hPa 0,0 l/m 5,2 km/h (1 Bft) O-SO 104 0 min 0,000 mm 0,0 UV-I 69 W/m 8,1 C 9,7 C 8,0 km/h (2 Bft) 95,74 %
09.11.2018 10:18 9,7 C 10,0 C 11,1 C 90 % 1017,4 hPa 0,0 l/m 4,3 km/h (1 Bft) O 83 0 min 0,000 mm 0,0 UV-I 69 W/m 8,1 C 9,7 C 6,4 km/h (2 Bft) 97,87 %
09.11.2018 10:20 9,7 C 10,0 C 11,1 C 90 % 1017,4 hPa 0,0 l/m 5,5 km/h (1 Bft) O 94 0 min 0,000 mm 0,0 UV-I 70 W/m 8,1 C 9,7 C 9,7 km/h (2 Bft) 100,00 %
09.11.2018 10:22 9,7 C 10,0 C 11,1 C 90 % 1017,4 hPa 0,0 l/m 4,7 km/h (1 Bft) O 101 0 min 0,000 mm 0,0 UV-I 70 W/m 8,1 C 9,7 C 9,7 km/h (2 Bft) 100,00 %
09.11.2018 10:24 9,7 C 10,0 C 11,1 C 89 % 1017,5 hPa 0,0 l/m 2,9 km/h (1 Bft) O 101 0 min 0,000 mm 0,0 UV-I 68 W/m 8,0 C 9,7 C 4,8 km/h (1 Bft) 100,00 %
09.11.2018 10:26 9,7 C 10,0 C 11,1 C 90 % 1017,5 hPa 0,0 l/m 1,4 km/h (1 Bft) O 101 0 min 0,000 mm 0,0 UV-I 64 W/m 8,1 C 9,7 C 3,2 km/h (1 Bft) 100,00 %
09.11.2018 10:28 9,7 C 10,0 C 11,1 C 90 % 1017,6 hPa 0,0 l/m 0,0 km/h (0 Bft) O 101 0 min 0,000 mm 0,0 UV-I 61 W/m 8,1 C 9,7 C 1,6 km/h (1 Bft) 100,00 %
09.11.2018 10:30 9,7 C 10,0 C 11,1 C 90 % 1017,6 hPa 0,0 l/m 2,2 km/h (1 Bft) O 101 0 min 0,000 mm 0,0 UV-I 57 W/m 8,1 C 9,7 C 3,2 km/h (1 Bft) 100,00 %
09.11.2018 10:32 9,8 C 10,0 C 11,1 C 90 % 1017,6 hPa 0,0 l/m 1,9 km/h (1 Bft) O 101 0 min 0,000 mm 0,0 UV-I 57 W/m 8,2 C 9,8 C 3,2 km/h (1 Bft) 95,74 %
09.11.2018 10:34 9,8 C 10,0 C 11,1 C 90 % 1017,5 hPa 0,0 l/m 1,2 km/h (1 Bft) O-SO 122 0 min 0,000 mm 0,0 UV-I 59 W/m 8,2 C 9,8 C 3,2 km/h (1 Bft) 97,87 %
09.11.2018 10:36 9,8 C 10,0 C 11,1 C 90 % 1017,5 hPa 0,0 l/m 2,3 km/h (1 Bft) O-SO 122 0 min 0,000 mm 0,0 UV-I 62 W/m 8,2 C 9,8 C 4,8 km/h (1 Bft) 95,74 %
09.11.2018 10:38 9,8 C 10,0 C 11,1 C 89 % 1017,4 hPa 0,0 l/m 1,2 km/h (1 Bft) O-SO 122 0 min 0,000 mm 0,0 UV-I 65 W/m 8,1 C 9,8 C 3,2 km/h (1 Bft) 93,62 %
09.11.2018 10:40 9,8 C 10,0 C 11,7 C 90 % 1017,4 hPa 0,0 l/m 3,0 km/h (1 Bft) NO 55 0 min 0,000 mm 0,0 UV-I 69 W/m 8,2 C 9,8 C 4,8 km/h (1 Bft) 95,83 %
09.11.2018 10:42 9,8 C 10,0 C 11,7 C 90 % 1017,4 hPa 0,0 l/m 5,5 km/h (1 Bft) NO 43 0 min 0,000 mm 0,0 UV-I 71 W/m 8,2 C 9,8 C 8,0 km/h (2 Bft) 97,83 %
09.11.2018 10:44 9,8 C 10,0 C 11,7 C 89 % 1017,4 hPa 0,0 l/m 4,9 km/h (1 Bft) O 79 0 min 0,000 mm 0,0 UV-I 71 W/m 8,1 C 9,8 C 9,7 km/h (2 Bft) 95,83 %
09.11.2018 10:46 9,8 C 10,0 C 11,7 C 89 % 1017,4 hPa 0,0 l/m 5,1 km/h (1 Bft) O-NO 71 0 min 0,000 mm 0,0 UV-I 72 W/m 8,1 C 9,8 C 8,0 km/h (2 Bft) 92,11 %
09.11.2018 10:48 9,8 C 10,0 C 11,7 C 89 % 1017,4 hPa 0,0 l/m 5,0 km/h (1 Bft) O-NO 63 0 min 0,000 mm 0,0 UV-I 76 W/m 8,1 C 9,8 C 8,0 km/h (2 Bft) 97,87 %
09.11.2018 10:50 9,8 C 10,0 C 11,7 C 89 % 1017,4 hPa 0,0 l/m 4,2 km/h (1 Bft) O 82 0 min 0,000 mm 0,0 UV-I 81 W/m 8,1 C 9,8 C 6,4 km/h (2 Bft) 97,87 %
09.11.2018 10:52 9,8 C 10,0 C 11,7 C 89 % 1017,4 hPa 0,0 l/m 2,3 km/h (1 Bft) O 82 0 min 0,000 mm 0,0 UV-I 78 W/m 8,1 C 9,8 C 4,8 km/h (1 Bft) 93,62 %
09.11.2018 10:54 9,9 C 10,0 C 11,7 C 90 % 1017,4 hPa 0,0 l/m 3,3 km/h (1 Bft) O 82 0 min 0,000 mm 0,0 UV-I 79 W/m 8,3 C 9,9 C 4,8 km/h (1 Bft) 97,87 %
09.11.2018 10:56 9,9 C 10,0 C 11,7 C 89 % 1017,3 hPa 0,0 l/m 2,1 km/h (1 Bft) O 83 0 min 0,000 mm 0,0 UV-I 80 W/m 8,2 C 9,9 C 3,2 km/h (1 Bft) 97,87 %
09.11.2018 10:58 9,9 C 10,0 C 11,7 C 89 % 1017,3 hPa 0,0 l/m 3,7 km/h (1 Bft) O 97 0 min 0,000 mm 0,0 UV-I 90 W/m 8,2 C 9,9 C 6,4 km/h (2 Bft) 97,87 %
09.11.2018 11:00 10,0 C 10,0 C 12,2 C 89 % 1017,3 hPa 0,0 l/m 3,3 km/h (1 Bft) S 178 0 min 0,000 mm 0,0 UV-I 91 W/m 8,3 C 10,0 C 6,4 km/h (2 Bft) 98,11 %
09.11.2018 11:02 10,0 C 10,0 C 12,2 C 90 % 1017,4 hPa 0,0 l/m 4,2 km/h (1 Bft) SO 125 0 min 0,026 mm 0,0 UV-I 89 W/m 8,4 C 10,0 C 8,0 km/h (2 Bft) 97,87 %
09.11.2018 11:04 10,0 C 10,0 C 12,2 C 89 % 1017,3 hPa 0,0 l/m 5,1 km/h (1 Bft) O-SO 123 0 min 0,000 mm 0,0 UV-I 97 W/m 8,3 C 10,0 C 8,0 km/h (2 Bft) 97,14 %
09.11.2018 11:06 9,9 C 10,0 C 12,2 C 89 % 1017,3 hPa 0,0 l/m 2,5 km/h (1 Bft) SO 125 0 min 0,000 mm 0,0 UV-I 108 W/m 8,2 C 9,9 C 4,8 km/h (1 Bft) 98,15 %
09.11.2018 11:08 9,9 C 10,0 C 12,2 C 89 % 1017,2 hPa 0,0 l/m 1,9 km/h (1 Bft) O-SO 111 0 min 0,000 mm 0,0 UV-I 120 W/m 8,2 C 9,9 C 6,4 km/h (2 Bft) 93,62 %
09.11.2018 11:10 10,0 C 10,0 C 12,2 C 89 % 1017,2 hPa 0,0 l/m 2,3 km/h (1 Bft) O-NO 65 0 min 0,000 mm 0,0 UV-I 129 W/m 8,3 C 10,0 C 6,4 km/h (2 Bft) 97,87 %
09.11.2018 11:12 10,1 C 10,0 C 12,2 C 89 % 1017,2 hPa 0,0 l/m 4,6 km/h (1 Bft) NO 55 0 min 0,000 mm 0,0 UV-I 131 W/m 8,4 C 10,1 C 6,4 km/h (2 Bft) 97,87 %
09.11.2018 11:14 10,1 C 10,0 C 12,2 C 89 % 1017,2 hPa 0,0 l/m 3,3 km/h (1 Bft) NO 54 0 min 0,000 mm 0,0 UV-I 122 W/m 8,4 C 10,1 C 6,4 km/h (2 Bft) 97,87 %
09.11.2018 11:16 10,1 C 10,0 C 12,2 C 88 % 1017,2 hPa 0,0 l/m 0,9 km/h (0 Bft) NO 54 0 min 0,000 mm 0,0 UV-I 109 W/m 8,2 C 10,1 C 3,2 km/h (1 Bft) 95,74 %
09.11.2018 11:18 9,9 C 10,0 C 12,2 C 87 % 1017,2 hPa 0,0 l/m 0,2 km/h (0 Bft) NO 54 0 min 0,000 mm 0,0 UV-I 105 W/m 7,8 C 9,9 C 1,6 km/h (1 Bft) 97,87 %
09.11.2018 11:20 9,9 C 10,0 C 12,2 C 88 % 1017,2 hPa 0,0 l/m 0,7 km/h (0 Bft) NO 54 0 min 0,000 mm 0,0 UV-I 100 W/m 8,0 C 9,9 C 1,6 km/h (1 Bft) 95,83 %
09.11.2018 11:22 9,9 C 10,0 C 12,2 C 88 % 1017,2 hPa 0,0 l/m 0,3 km/h (0 Bft) O-NO 71 0 min 0,000 mm 0,0 UV-I 89 W/m 8,0 C 9,9 C 3,2 km/h (1 Bft) 97,87 %
09.11.2018 11:24 9,9 C 10,0 C 12,2 C 88 % 1017,2 hPa 0,0 l/m 2,8 km/h (1 Bft) S-SW 205 0 min 0,000 mm 0,0 UV-I 78 W/m 8,0 C 9,9 C 4,8 km/h (1 Bft) 95,74 %
09.11.2018 11:26 9,9 C 10,0 C 12,2 C 88 % 1017,2 hPa 0,0 l/m 1,9 km/h (1 Bft) S-SW 205 0 min 0,000 mm 0,0 UV-I 82 W/m 8,0 C 9,9 C 4,8 km/h (1 Bft) 98,00 %
09.11.2018 11:28 9,8 C 10,0 C 12,2 C 88 % 1017,2 hPa 0,0 l/m 3,1 km/h (1 Bft) S-SW 204 0 min 0,000 mm 0,0 UV-I 89 W/m 7,9 C 9,8 C 4,8 km/h (1 Bft) 95,74 %
09.11.2018 11:30 9,8 C 10,0 C 11,7 C 88 % 1017,1 hPa 0,0 l/m 2,2 km/h (1 Bft) S-SW 204 0 min 0,000 mm 0,0 UV-I 88 W/m 7,9 C 9,8 C 3,2 km/h (1 Bft) 93,62 %
09.11.2018 11:32 9,9 C 10,0 C 11,7 C 88 % 1017,2 hPa 0,0 l/m 1,3 km/h (1 Bft) S-SW 204 0 min 0,000 mm 0,0 UV-I 88 W/m 8,0 C 9,9 C 3,2 km/h (1 Bft) 97,14 %
09.11.2018 11:34 9,9 C 10,0 C 11,7 C 88 % 1017,1 hPa 0,0 l/m 1,0 km/h (0 Bft) S-SW 204 0 min 0,000 mm 0,0 UV-I 94 W/m 8,0 C 9,9 C 3,2 km/h (1 Bft) 97,87 %
09.11.2018 11:36 10,0 C 10,0 C 12,2 C 88 % 1017,1 hPa 0,0 l/m 0,2 km/h (0 Bft) S-SW 204 0 min 0,000 mm 0,0 UV-I 105 W/m 8,1 C 10,0 C 1,6 km/h (1 Bft) 96,00 %
09.11.2018 11:38 10,0 C 10,0 C 12,2 C 88 % 1017,1 hPa 0,0 l/m 0,0 km/h (0 Bft) S-SW 204 0 min 0,000 mm 0,0 UV-I 114 W/m 8,1 C 10,0 C 0,0 km/h (0 Bft) 100,00 %
09.11.2018 11:40 10,1 C 10,0 C 12,2 C 88 % 1017,1 hPa 0,0 l/m 0,0 km/h (0 Bft) S-SW 204 0 min 0,000 mm 0,0 UV-I 122 W/m 8,2 C 10,1 C 0,0 km/h (0 Bft) 100,00 %
09.11.2018 11:42 10,1 C 10,0 C 12,8 C 88 % 1017,0 hPa 0,0 l/m 0,4 km/h (0 Bft) S-SW 204 0 min 0,000 mm 0,0 UV-I 126 W/m 8,2 C 10,1 C 3,2 km/h (1 Bft) 97,87 %
09.11.2018 11:44 10,2 C 10,0 C 12,8 C 88 % 1017,0 hPa 0,0 l/m 1,4 km/h (1 Bft) S-SW 204 0 min 0,000 mm 0,0 UV-I 120 W/m 8,3 C 10,2 C 3,2 km/h (1 Bft) 100,00 %
09.11.2018 11:46 10,1 C 10,0 C 12,8 C 87 % 1017,1 hPa 0,0 l/m 1,5 km/h (1 Bft) S-SW 203 0 min 0,000 mm 0,0 UV-I 117 W/m 8,0 C 10,1 C 3,2 km/h (1 Bft) 100,00 %
09.11.2018 11:48 10,1 C 10,0 C 12,8 C 88 % 1017,1 hPa 0,0 l/m 0,0 km/h (0 Bft) S-SW 203 0 min 0,000 mm 0,0 UV-I 114 W/m 8,2 C 10,1 C 0,0 km/h (0 Bft) 100,00 %
09.11.2018 11:50 10,2 C 10,0 C 12,8 C 88 % 1017,1 hPa 0,0 l/m 0,0 km/h (0 Bft) S-SW 203 0 min 0,000 mm 0,0 UV-I 109 W/m 8,3 C 10,2 C 0,0 km/h (0 Bft) 100,00 %
09.11.2018 11:52 10,2 C 10,0 C 12,8 C 88 % 1017,1 hPa 0,0 l/m 0,9 km/h (0 Bft) S-SW 203 0 min 0,000 mm 0,0 UV-I 113 W/m 8,3 C 10,2 C 3,2 km/h (1 Bft) 100,00 %
09.11.2018 11:54 10,2 C 10,0 C 12,8 C 87 % 1017,0 hPa 0,0 l/m 0,9 km/h (0 Bft) S-SW 203 0 min 0,000 mm 0,0 UV-I 116 W/m 8,1 C 10,2 C 1,6 km/h (1 Bft) 97,87 %
09.11.2018 11:56 10,2 C 10,0 C 12,8 C 87 % 1017,0 hPa 0,0 l/m 0,8 km/h (0 Bft) S-SW 203 0 min 0,000 mm 0,0 UV-I 115 W/m 8,1 C 10,2 C 1,6 km/h (1 Bft) 100,00 %
09.11.2018 11:58 10,2 C 10,0 C 12,8 C 87 % 1017,0 hPa 0,0 l/m 2,6 km/h (1 Bft) S-SW 203 0 min 0,000 mm 0,0 UV-I 109 W/m 8,1 C 10,2 C 4,8 km/h (1 Bft) 96,00 %
09.11.2018 12:00 10,2 C 10,0 C 12,8 C 87 % 1017,1 hPa 0,0 l/m 1,8 km/h (1 Bft) S-SW 203 0 min 0,000 mm 0,0 UV-I 109 W/m 8,1 C 10,2 C 3,2 km/h (1 Bft) 98,00 %
09.11.2018 12:02 10,2 C 10,0 C 12,8 C 87 % 1017,0 hPa 0,0 l/m 1,1 km/h (1 Bft) S-SW 203 0 min 0,050 mm 0,0 UV-I 110 W/m 8,1 C 10,2 C 3,2 km/h (1 Bft) 95,12 %
09.11.2018 12:04 10,2 C 10,0 C 12,8 C 87 % 1017,0 hPa 0,0 l/m 0,1 km/h (0 Bft) S-SW 203 0 min 0,000 mm 0,0 UV-I 105 W/m 8,1 C 10,2 C 1,6 km/h (1 Bft) 97,87 %
09.11.2018 12:06 10,2 C 10,0 C 12,8 C 88 % 1017,0 hPa 0,0 l/m 0,0 km/h (0 Bft) S-SW 203 0 min 0,000 mm 0,0 UV-I 100 W/m 8,3 C 10,2 C 0,0 km/h (0 Bft) 93,62 %
09.11.2018 12:08 10,2 C 10,0 C 12,8 C 87 % 1017,0 hPa 0,0 l/m 0,0 km/h (0 Bft) S-SW 203 0 min 0,000 mm 0,0 UV-I 96 W/m 8,1 C 10,2 C 0,0 km/h (0 Bft) 95,74 %
09.11.2018 12:10 10,2 C 10,0 C 12,8 C 87 % 1017,0 hPa 0,0 l/m 0,0 km/h (0 Bft) S-SW 203 0 min 0,000 mm 0,0 UV-I 92 W/m 8,1 C 10,2 C 1,6 km/h (1 Bft) 97,87 %
09.11.2018 12:12 10,2 C 10,0 C 12,8 C 87 % 1017,0 hPa 0,0 l/m 0,5 km/h (0 Bft) S-SW 203 0 min 0,000 mm 0,0 UV-I 91 W/m 8,1 C 10,2 C 3,2 km/h (1 Bft) 97,87 %
09.11.2018 12:14 10,2 C 10,0 C 12,8 C 87 % 1017,0 hPa 0,0 l/m 2,3 km/h (1 Bft) S-SW 203 0 min 0,000 mm 0,0 UV-I 88 W/m 8,1 C 10,2 C 3,2 km/h (1 Bft) 97,87 %
09.11.2018 12:16 10,1 C 10,0 C 12,2 C 87 % 1017,0 hPa 0,0 l/m 2,5 km/h (1 Bft) S-SW 203 0 min 0,000 mm 0,0 UV-I 84 W/m 8,0 C 10,1 C 4,8 km/h (1 Bft) 95,74 %
09.11.2018 12:18 10,1 C 10,0 C 12,2 C 87 % 1017,0 hPa 0,0 l/m 2,6 km/h (1 Bft) S-SW 203 0 min 0,000 mm 0,0 UV-I 81 W/m 8,0 C 10,1 C 4,8 km/h (1 Bft) 97,87 %
09.11.2018 12:20 10,1 C 10,0 C 12,2 C 88 % 1017,0 hPa 0,0 l/m 4,0 km/h (1 Bft) S-SW 203 0 min 0,000 mm 0,0 UV-I 80 W/m 8,2 C 10,1 C 4,8 km/h (1 Bft) 97,87 %
09.11.2018 12:22 10,2 C 10,0 C 12,2 C 88 % 1017,0 hPa 0,0 l/m 2,2 km/h (1 Bft) S-SW 203 0 min 0,000 mm 0,0 UV-I 79 W/m 8,3 C 10,2 C 3,2 km/h (1 Bft) 100,00 %
09.11.2018 12:24 10,2 C 10,0 C 12,2 C 88 % 1016,9 hPa 0,0 l/m 0,5 km/h (0 Bft) S-SW 203 0 min 0,000 mm 0,0 UV-I 78 W/m 8,3 C 10,2 C 1,6 km/h (1 Bft) 100,00 %
09.11.2018 12:26 10,2 C 10,0 C 12,2 C 87 % 1017,0 hPa 0,0 l/m 0,0 km/h (0 Bft) S-SW 203 0 min 0,000 mm 0,0 UV-I 74 W/m 8,1 C 10,2 C 0,0 km/h (0 Bft) 100,00 %
09.11.2018 12:28 10,3 C 10,0 C 12,2 C 87 % 1017,0 hPa 0,0 l/m 0,2 km/h (0 Bft) S-SW 203 0 min 0,000 mm 0,0 UV-I 74 W/m 8,2 C 10,3 C 1,6 km/h (1 Bft) 100,00 %
09.11.2018 12:30 10,3 C 10,0 C 12,2 C 87 % 1017,0 hPa 0,0 l/m 0,8 km/h (0 Bft) S-SW 203 0 min 0,000 mm 0,0 UV-I 76 W/m 8,2 C 10,3 C 1,6 km/h (1 Bft) 100,00 %
09.11.2018 12:32 10,4 C 10,0 C 12,2 C 88 % 1017,0 hPa 0,0 l/m 1,3 km/h (1 Bft) S-SW 204 0 min 0,000 mm 0,0 UV-I 78 W/m 8,5 C 10,4 C 3,2 km/h (1 Bft) 95,74 %
09.11.2018 12:34 10,3 C 10,0 C 11,7 C 87 % 1017,0 hPa 0,0 l/m 2,0 km/h (1 Bft) S-SW 204 0 min 0,000 mm 0,0 UV-I 79 W/m 8,2 C 10,3 C 3,2 km/h (1 Bft) 100,00 %
09.11.2018 12:36 10,3 C 10,0 C 11,7 C 87 % 1017,0 hPa 0,0 l/m 1,9 km/h (1 Bft) S-SW 204 0 min 0,000 mm 0,0 UV-I 81 W/m 8,2 C 10,3 C 3,2 km/h (1 Bft) 100,00 %
09.11.2018 12:38 10,3 C 10,0 C 12,2 C 87 % 1016,9 hPa 0,0 l/m 0,7 km/h (0 Bft) S-SW 204 0 min 0,000 mm 0,0 UV-I 87 W/m 8,2 C 10,3 C 1,6 km/h (1 Bft) 100,00 %
09.11.2018 12:40 10,3 C 10,0 C 12,2 C 87 % 1016,9 hPa 0,0 l/m 0,0 km/h (0 Bft) S-SW 204 0 min 0,000 mm 0,0 UV-I 95 W/m 8,2 C 10,3 C 0,0 km/h (0 Bft) 97,87 %
09.11.2018 12:42 10,3 C 10,0 C 12,2 C 87 % 1016,8 hPa 0,0 l/m 0,3 km/h (0 Bft) S-SW 204 0 min 0,000 mm 0,0 UV-I 103 W/m 8,2 C 10,3 C 1,6 km/h (1 Bft) 97,87 %
09.11.2018 12:44 10,3 C 10,0 C 12,2 C 87 % 1016,8 hPa 0,0 l/m 1,7 km/h (1 Bft) S 169 0 min 0,000 mm 0,0 UV-I 113 W/m 8,2 C 10,3 C 3,2 km/h (1 Bft) 100,00 %
09.11.2018 12:46 10,3 C 10,0 C 12,8 C 87 % 1016,7 hPa 0,0 l/m 0,8 km/h (0 Bft) S 169 0 min 0,000 mm 0,0 UV-I 123 W/m 8,2 C 10,3 C 3,2 km/h (1 Bft) 97,87 %
09.11.2018 12:48 10,4 C 10,0 C 12,8 C 87 % 1016,7 hPa 0,0 l/m 2,7 km/h (1 Bft) S-SO 163 0 min 0,000 mm 0,0 UV-I 128 W/m 8,3 C 10,4 C 6,4 km/h (2 Bft) 100,00 %
09.11.2018 12:50 10,4 C 10,0 C 12,8 C 88 % 1016,7 hPa 0,0 l/m 1,4 km/h (1 Bft) S-SO 163 0 min 0,000 mm 0,0 UV-I 137 W/m 8,5 C 10,4 C 1,6 km/h (1 Bft) 100,00 %
09.11.2018 12:52 10,6 C 10,0 C 13,3 C 88 % 1016,7 hPa 0,0 l/m 1,5 km/h (1 Bft) S-SO 163 0 min 0,000 mm 0,0 UV-I 141 W/m 8,7 C 10,6 C 3,2 km/h (1 Bft) 100,00 %
09.11.2018 12:54 10,6 C 10,0 C 13,3 C 87 % 1016,6 hPa 0,0 l/m 2,3 km/h (1 Bft) S-SO 163 0 min 0,000 mm 0,0 UV-I 135 W/m 8,5 C 10,6 C 6,4 km/h (2 Bft) 100,00 %
09.11.2018 12:56 10,4 C 10,0 C 13,3 C 87 % 1016,6 hPa 0,0 l/m 3,0 km/h (1 Bft) S-SO 163 0 min 0,000 mm 0,0 UV-I 125 W/m 8,3 C 10,4 C 6,4 km/h (2 Bft) 100,00 %
09.11.2018 12:58 10,4 C 10,0 C 13,3 C 87 % 1016,7 hPa 0,0 l/m 2,0 km/h (1 Bft) S-SO 163 0 min 0,000 mm 0,0 UV-I 113 W/m 8,3 C 10,4 C 3,2 km/h (1 Bft) 100,00 %
09.11.2018 13:00 10,4 C 10,0 C 13,3 C 87 % 1016,6 hPa 0,0 l/m 1,6 km/h (1 Bft) S-SO 163 0 min 0,000 mm 0,0 UV-I 107 W/m 8,3 C 10,4 C 3,2 km/h (1 Bft) 100,00 %
09.11.2018 13:02 10,6 C 10,0 C 13,3 C 87 % 1016,7 hPa 0,0 l/m 3,1 km/h (1 Bft) S-SO 163 0 min 0,051 mm 0,0 UV-I 100 W/m 8,5 C 10,6 C 6,4 km/h (2 Bft) 100,00 %
09.11.2018 13:04 10,5 C 10,0 C 13,3 C 86 % 1016,6 hPa 0,0 l/m 2,5 km/h (1 Bft) S-SO 163 0 min 0,000 mm 0,0 UV-I 98 W/m 8,3 C 10,5 C 6,4 km/h (2 Bft) 100,00 %
09.11.2018 13:06 10,5 C 10,0 C 13,3 C 86 % 1016,7 hPa 0,0 l/m 0,8 km/h (0 Bft) S-SO 163 0 min 0,000 mm 0,0 UV-I 99 W/m 8,3 C 10,5 C 1,6 km/h (1 Bft) 93,62 %
09.11.2018 13:08 10,4 C 10,0 C 12,8 C 87 % 1016,6 hPa 0,0 l/m 0,9 km/h (0 Bft) S-SO 163 0 min 0,000 mm 0,0 UV-I 99 W/m 8,3 C 10,4 C 3,2 km/h (1 Bft) 95,12 %
09.11.2018 13:10 10,4 C 10,0 C 12,8 C 87 % 1016,6 hPa 0,0 l/m 1,5 km/h (1 Bft) S-SO 163 0 min 0,000 mm 0,0 UV-I 96 W/m 8,3 C 10,4 C 3,2 km/h (1 Bft) 96,00 %
09.11.2018 13:12 10,4 C 10,0 C 12,8 C 87 % 1016,6 hPa 0,0 l/m 2,4 km/h (1 Bft) S-SO 163 0 min 0,000 mm 0,0 UV-I 93 W/m 8,3 C 10,4 C 6,4 km/h (2 Bft) 94,00 %
09.11.2018 13:14 10,5 C 10,0 C 12,8 C 87 % 1016,6 hPa 0,0 l/m 2,7 km/h (1 Bft) S-SO 163 0 min 0,000 mm 0,0 UV-I 91 W/m 8,4 C 10,5 C 3,2 km/h (1 Bft) 91,49 %
09.11.2018 13:16 10,6 C 10,0 C 12,8 C 88 % 1016,6 hPa 0,0 l/m 1,7 km/h (1 Bft) S-SO 163 0 min 0,000 mm 0,0 UV-I 90 W/m 8,7 C 10,6 C 3,2 km/h (1 Bft) 87,23 %
09.11.2018 13:18 10,7 C 10,0 C 12,8 C 87 % 1016,6 hPa 0,0 l/m 0,6 km/h (0 Bft) S-SO 163 0 min 0,000 mm 0,0 UV-I 87 W/m 8,6 C 10,7 C 1,6 km/h (1 Bft) 95,74 %
09.11.2018 13:20 10,6 C 10,0 C 12,8 C 87 % 1016,6 hPa 0,0 l/m 0,0 km/h (0 Bft) S-SO 163 0 min 0,000 mm 0,0 UV-I 84 W/m 8,5 C 10,6 C 0,0 km/h (0 Bft) 91,49 %
09.11.2018 13:22 10,5 C 10,0 C 12,2 C 86 % 1016,6 hPa 0,0 l/m 1,0 km/h (0 Bft) S-SO 163 0 min 0,000 mm 0,0 UV-I 84 W/m 8,3 C 10,5 C 3,2 km/h (1 Bft) 92,00 %
09.11.2018 13:24 10,5 C 10,0 C 12,8 C 86 % 1016,5 hPa 0,0 l/m 1,5 km/h (1 Bft) S-SO 163 0 min 0,000 mm 0,0 UV-I 85 W/m 8,3 C 10,5 C 3,2 km/h (1 Bft) 92,11 %
09.11.2018 13:26 10,4 C 10,0 C 12,2 C 86 % 1016,5 hPa 0,0 l/m 0,2 km/h (0 Bft) S-SO 163 0 min 0,000 mm 0,0 UV-I 86 W/m 8,2 C 10,4 C 1,6 km/h (1 Bft) 91,49 %
09.11.2018 13:28 10,4 C 10,0 C 12,2 C 86 % 1016,4 hPa 0,0 l/m 0,1 km/h (0 Bft) S-SO 163 0 min 0,000 mm 0,0 UV-I 84 W/m 8,2 C 10,4 C 1,6 km/h (1 Bft) 92,00 %
09.11.2018 13:30 10,4 C 10,0 C 12,8 C 87 % 1016,4 hPa 0,0 l/m 2,2 km/h (1 Bft) S-SO 150 0 min 0,000 mm 0,0 UV-I 84 W/m 8,3 C 10,4 C 6,4 km/h (2 Bft) 91,49 %
09.11.2018 13:32 10,4 C 10,0 C 12,8 C 87 % 1016,4 hPa 0,0 l/m 4,5 km/h (1 Bft) O-NO 74 0 min 0,000 mm 0,0 UV-I 85 W/m 8,3 C 10,4 C 6,4 km/h (2 Bft) 93,62 %
09.11.2018 13:34 10,5 C 10,0 C 12,2 C 87 % 1016,4 hPa 0,0 l/m 2,5 km/h (1 Bft) O-NO 75 0 min 0,000 mm 0,0 UV-I 83 W/m 8,4 C 10,5 C 4,8 km/h (1 Bft) 89,36 %
09.11.2018 13:36 10,5 C 10,0 C 12,2 C 87 % 1016,5 hPa 0,0 l/m 2,1 km/h (1 Bft) O-NO 74 0 min 0,000 mm 0,0 UV-I 79 W/m 8,4 C 10,5 C 3,2 km/h (1 Bft) 93,62 %
09.11.2018 13:38 10,5 C 10,0 C 12,2 C 87 % 1016,5 hPa 0,0 l/m 3,2 km/h (1 Bft) O-NO 75 0 min 0,000 mm 0,0 UV-I 77 W/m 8,4 C 10,5 C 4,8 km/h (1 Bft) 91,49 %
09.11.2018 13:40 10,4 C 10,0 C 12,2 C 86 % 1016,4 hPa 0,0 l/m 2,6 km/h (1 Bft) O-NO 76 0 min 0,000 mm 0,0 UV-I 77 W/m 8,2 C 10,4 C 4,8 km/h (1 Bft) 94,00 %
09.11.2018 13:42 10,4 C 10,0 C 12,2 C 86 % 1016,5 hPa 0,0 l/m 3,2 km/h (1 Bft) O-NO 77 0 min 0,000 mm 0,0 UV-I 73 W/m 8,2 C 10,4 C 4,8 km/h (1 Bft) 95,74 %
09.11.2018 13:44 10,4 C 10,0 C 12,2 C 87 % 1016,5 hPa 0,0 l/m 2,8 km/h (1 Bft) O-NO 77 0 min 0,000 mm 0,0 UV-I 69 W/m 8,3 C 10,4 C 4,8 km/h (1 Bft) 93,62 %
09.11.2018 13:46 10,4 C 10,0 C 12,2 C 87 % 1016,4 hPa 0,0 l/m 3,9 km/h (1 Bft) O-NO 77 0 min 0,000 mm 0,0 UV-I 67 W/m 8,3 C 10,4 C 6,4 km/h (2 Bft) 97,22 %
09.11.2018 13:48 10,5 C 10,0 C 12,2 C 88 % 1016,3 hPa 0,0 l/m 3,8 km/h (1 Bft) O-NO 76 0 min 0,000 mm 0,0 UV-I 70 W/m 8,6 C 10,5 C 4,8 km/h (1 Bft) 96,30 %
09.11.2018 13:50 10,6 C 10,0 C 12,2 C 88 % 1016,2 hPa 0,0 l/m 3,8 km/h (1 Bft) O-NO 76 0 min 0,000 mm 0,0 UV-I 70 W/m 8,7 C 10,6 C 4,8 km/h (1 Bft) 98,11 %
09.11.2018 13:52 10,5 C 10,0 C 12,2 C 87 % 1016,2 hPa 0,0 l/m 1,8 km/h (1 Bft) S-SO 155 0 min 0,000 mm 0,0 UV-I 69 W/m 8,4 C 10,5 C 3,2 km/h (1 Bft) 97,87 %
09.11.2018 13:54 10,5 C 10,0 C 12,2 C 87 % 1016,2 hPa 0,0 l/m 2,7 km/h (1 Bft) S-SO 155 0 min 0,000 mm 0,0 UV-I 66 W/m 8,4 C 10,5 C 4,8 km/h (1 Bft) 93,62 %
09.11.2018 13:56 10,5 C 10,0 C 12,2 C 87 % 1016,2 hPa 0,0 l/m 2,3 km/h (1 Bft) S-SO 155 0 min 0,000 mm 0,0 UV-I 63 W/m 8,4 C 10,5 C 4,8 km/h (1 Bft) 97,37 %
09.11.2018 13:58 10,5 C 10,0 C 12,2 C 87 % 1016,2 hPa 0,0 l/m 2,8 km/h (1 Bft) S-SO 150 0 min 0,000 mm 0,0 UV-I 61 W/m 8,4 C 10,5 C 4,8 km/h (1 Bft) 97,87 %
09.11.2018 14:00 10,5 C 10,0 C 12,2 C 87 % 1016,2 hPa 0,0 l/m 4,7 km/h (1 Bft) O-NO 61 0 min 0,051 mm 0,0 UV-I 60 W/m 8,4 C 10,5 C 6,4 km/h (2 Bft) 93,62 %
09.11.2018 14:02 10,5 C 10,0 C 12,2 C 87 % 1016,2 hPa 0,0 l/m 4,9 km/h (1 Bft) O 82 0 min 0,000 mm 0,0 UV-I 60 W/m 8,4 C 10,5 C 6,4 km/h (2 Bft) 95,74 %
09.11.2018 14:04 10,5 C 10,0 C 11,7 C 87 % 1016,1 hPa 0,0 l/m 3,7 km/h (1 Bft) O 82 0 min 0,000 mm 0,0 UV-I 60 W/m 8,4 C 10,5 C 6,4 km/h (2 Bft) 95,74 %
09.11.2018 14:06 10,4 C 10,0 C 11,7 C 87 % 1016,1 hPa 0,0 l/m 3,3 km/h (1 Bft) O 82 0 min 0,000 mm 0,0 UV-I 57 W/m 8,3 C 10,4 C 4,8 km/h (1 Bft) 98,00 %
09.11.2018 14:08 10,4 C 10,0 C 11,7 C 87 % 1016,0 hPa 0,0 l/m 2,6 km/h (1 Bft) O 82 0 min 0,000 mm 0,0 UV-I 56 W/m 8,3 C 10,4 C 4,8 km/h (1 Bft) 95,12 %
09.11.2018 14:10 10,4 C 10,0 C 11,7 C 87 % 1016,0 hPa 0,0 l/m 2,1 km/h (1 Bft) O 82 0 min 0,000 mm 0,0 UV-I 56 W/m 8,3 C 10,4 C 3,2 km/h (1 Bft) 97,87 %
09.11.2018 14:12 10,4 C 10,0 C 11,7 C 87 % 1016,0 hPa 0,0 l/m 2,3 km/h (1 Bft) O 83 0 min 0,000 mm 0,0 UV-I 56 W/m 8,3 C 10,4 C 4,8 km/h (1 Bft) 97,87 %
09.11.2018 14:14 10,4 C 10,0 C 11,7 C 87 % 1016,0 hPa 0,0 l/m 3,9 km/h (1 Bft) O 92 0 min 0,000 mm 0,0 UV-I 54 W/m 8,3 C 10,4 C 4,8 km/h (1 Bft) 97,87 %
09.11.2018 14:16 10,4 C 10,0 C 11,7 C 88 % 1015,9 hPa 0,0 l/m 3,1 km/h (1 Bft) O 92 0 min 0,000 mm 0,0 UV-I 56 W/m 8,5 C 10,4 C 4,8 km/h (1 Bft) 97,87 %
09.11.2018 14:18 10,4 C 10,0 C 11,7 C 87 % 1016,0 hPa 0,0 l/m 2,8 km/h (1 Bft) O 92 0 min 0,000 mm 0,0 UV-I 58 W/m 8,3 C 10,4 C 4,8 km/h (1 Bft) 97,22 %
09.11.2018 14:20 10,4 C 10,0 C 11,7 C 87 % 1015,9 hPa 0,0 l/m 3,2 km/h (1 Bft) O 97 0 min 0,000 mm 0,0 UV-I 58 W/m 8,3 C 10,4 C 4,8 km/h (1 Bft) 98,36 %
09.11.2018 14:22 10,4 C 10,0 C 11,7 C 87 % 1015,9 hPa 0,0 l/m 2,0 km/h (1 Bft) O 97 0 min 0,000 mm 0,0 UV-I 56 W/m 8,3 C 10,4 C 4,8 km/h (1 Bft) 97,92 %
09.11.2018 14:24 10,4 C 10,0 C 11,7 C 87 % 1015,9 hPa 0,0 l/m 1,9 km/h (1 Bft) O 97 0 min 0,000 mm 0,0 UV-I 54 W/m 8,3 C 10,4 C 3,2 km/h (1 Bft) 100,00 %
09.11.2018 14:26 10,4 C 10,0 C 11,7 C 87 % 1015,9 hPa 0,0 l/m 1,2 km/h (1 Bft) O 97 0 min 0,000 mm 0,0 UV-I 53 W/m 8,3 C 10,4 C 3,2 km/h (1 Bft) 100,00 %
09.11.2018 14:28 10,3 C 10,0 C 11,7 C 87 % 1016,0 hPa 0,0 l/m 1,1 km/h (1 Bft) O 97 0 min 0,000 mm 0,0 UV-I 51 W/m 8,2 C 10,3 C 3,2 km/h (1 Bft) 100,00 %
09.11.2018 14:30 10,3 C 10,0 C 11,7 C 87 % 1015,9 hPa 0,0 l/m 1,3 km/h (1 Bft) O 96 0 min 0,000 mm 0,0 UV-I 49 W/m 8,2 C 10,3 C 4,8 km/h (1 Bft) 95,74 %
09.11.2018 14:32 10,4 C 10,0 C 11,7 C 87 % 1015,9 hPa 0,0 l/m 4,0 km/h (1 Bft) O 88 0 min 0,000 mm 0,0 UV-I 49 W/m 8,3 C 10,4 C 6,4 km/h (2 Bft) 100,00 %
09.11.2018 14:34 10,4 C 10,0 C 11,7 C 87 % 1015,9 hPa 0,0 l/m 3,6 km/h (1 Bft) O 94 0 min 0,000 mm 0,0 UV-I 50 W/m 8,3 C 10,4 C 6,4 km/h (2 Bft) 97,37 %
09.11.2018 14:36 10,4 C 10,0 C 11,7 C 87 % 1015,9 hPa 0,0 l/m 3,8 km/h (1 Bft) O 92 0 min 0,000 mm 0,0 UV-I 51 W/m 8,3 C 10,4 C 6,4 km/h (2 Bft) 100,00 %
09.11.2018 14:38 10,4 C 10,0 C 11,7 C 87 % 1015,9 hPa 0,0 l/m 3,0 km/h (1 Bft) O 93 0 min 0,000 mm 0,0 UV-I 49 W/m 8,3 C 10,4 C 4,8 km/h (1 Bft) 100,00 %
09.11.2018 14:40 10,4 C 10,0 C 11,7 C 87 % 1015,9 hPa 0,0 l/m 2,7 km/h (1 Bft) O 93 0 min 0,000 mm 0,0 UV-I 49 W/m 8,3 C 10,4 C 4,8 km/h (1 Bft) 100,00 %
09.11.2018 14:42 10,4 C 10,0 C 11,7 C 87 % 1015,9 hPa 0,0 l/m 3,5 km/h (1 Bft) O 94 0 min 0,000 mm 0,0 UV-I 49 W/m 8,3 C 10,4 C 4,8 km/h (1 Bft) 100,00 %
09.11.2018 14:44 10,4 C 10,0 C 11,7 C 87 % 1015,9 hPa 0,0 l/m 2,3 km/h (1 Bft) O 94 0 min 0,000 mm 0,0 UV-I 47 W/m 8,3 C 10,4 C 4,8 km/h (1 Bft) 95,74 %
09.11.2018 14:46 10,4 C 10,0 C 11,7 C 87 % 1015,9 hPa 0,0 l/m 3,4 km/h (1 Bft) O 90 0 min 0,000 mm 0,0 UV-I 47 W/m 8,3 C 10,4 C 4,8 km/h (1 Bft) 97,14 %
09.11.2018 14:48 10,4 C 10,0 C 11,7 C 87 % 1015,8 hPa 0,0 l/m 7,7 km/h (2 Bft) O-SO 103 0 min 0,000 mm 0,0 UV-I 47 W/m 8,3 C 9,5 C 12,9 km/h (3 Bft) 98,00 %
09.11.2018 14:50 10,3 C 10,0 C 11,7 C 87 % 1015,9 hPa 0,0 l/m 5,4 km/h (1 Bft) O-SO 111 0 min 0,000 mm 0,0 UV-I 47 W/m 8,2 C 10,3 C 11,3 km/h (2 Bft) 97,87 %
09.11.2018 14:52 10,3 C 10,0 C 11,1 C 87 % 1015,8 hPa 0,0 l/m 4,5 km/h (1 Bft) O-SO 113 0 min 0,000 mm 0,0 UV-I 47 W/m 8,2 C 10,3 C 9,7 km/h (2 Bft) 97,22 %
09.11.2018 14:54 10,3 C 10,0 C 11,1 C 87 % 1015,8 hPa 0,0 l/m 4,0 km/h (1 Bft) SO 131 0 min 0,000 mm 0,0 UV-I 47 W/m 8,2 C 10,3 C 8,0 km/h (2 Bft) 95,08 %
09.11.2018 14:56 10,3 C 10,0 C 11,1 C 87 % 1015,8 hPa 0,0 l/m 3,4 km/h (1 Bft) SO 128 0 min 0,000 mm 0,0 UV-I 47 W/m 8,2 C 10,3 C 6,4 km/h (2 Bft) 95,74 %
09.11.2018 14:58 10,3 C 10,0 C 11,1 C 87 % 1015,8 hPa 0,0 l/m 4,0 km/h (1 Bft) SO 128 0 min 0,000 mm 0,0 UV-I 46 W/m 8,2 C 10,3 C 4,8 km/h (1 Bft) 91,49 %
09.11.2018 15:00 10,3 C 10,0 C 11,7 C 87 % 1015,8 hPa 0,0 l/m 4,6 km/h (1 Bft) SO 136 0 min 0,025 mm 0,0 UV-I 46 W/m 8,2 C 10,3 C 6,4 km/h (2 Bft) 94,44 %
09.11.2018 15:02 10,3 C 10,0 C 11,7 C 87 % 1015,8 hPa 0,0 l/m 4,5 km/h (1 Bft) O-SO 109 0 min 0,000 mm 0,0 UV-I 46 W/m 8,2 C 10,3 C 6,4 km/h (2 Bft) 96,23 %
09.11.2018 15:04 10,3 C 10,0 C 11,7 C 87 % 1015,8 hPa 0,0 l/m 5,2 km/h (1 Bft) O 85 0 min 0,000 mm 0,0 UV-I 44 W/m 8,2 C 10,3 C 9,7 km/h (2 Bft) 97,87 %
09.11.2018 15:06 10,3 C 10,0 C 11,7 C 87 % 1015,8 hPa 0,0 l/m 3,8 km/h (1 Bft) O 90 0 min 0,000 mm 0,0 UV-I 44 W/m 8,2 C 10,3 C 6,4 km/h (2 Bft) 96,00 %
09.11.2018 15:08 10,4 C 10,0 C 11,7 C 87 % 1015,7 hPa 0,0 l/m 3,9 km/h (1 Bft) O 91 0 min 0,000 mm 0,0 UV-I 45 W/m 8,3 C 10,4 C 4,8 km/h (1 Bft) 95,74 %
09.11.2018 15:10 10,3 C 10,0 C 11,7 C 87 % 1015,7 hPa 0,0 l/m 2,2 km/h (1 Bft) O 91 0 min 0,000 mm 0,0 UV-I 43 W/m 8,2 C 10,3 C 4,8 km/h (1 Bft) 95,74 %
09.11.2018 15:12 10,3 C 10,0 C 11,1 C 87 % 1015,7 hPa 0,0 l/m 3,3 km/h (1 Bft) O 90 0 min 0,000 mm 0,0 UV-I 41 W/m 8,2 C 10,3 C 4,8 km/h (1 Bft) 97,87 %
09.11.2018 15:14 10,3 C 10,0 C 11,1 C 87 % 1015,7 hPa 0,0 l/m 6,1 km/h (2 Bft) O-NO 74 0 min 0,000 mm 0,0 UV-I 39 W/m 8,2 C 10,3 C 8,0 km/h (2 Bft) 100,00 %
09.11.2018 15:16 10,3 C 10,0 C 11,1 C 87 % 1015,7 hPa 0,0 l/m 3,7 km/h (1 Bft) O 91 0 min 0,000 mm 0,0 UV-I 37 W/m 8,2 C 10,3 C 6,4 km/h (2 Bft) 97,87 %
09.11.2018 15:18 10,3 C 10,0 C 11,1 C 87 % 1015,7 hPa 0,0 l/m 6,5 km/h (2 Bft) O 80 0 min 0,000 mm 0,0 UV-I 37 W/m 8,2 C 10,3 C 11,3 km/h (2 Bft) 95,74 %
09.11.2018 15:20 10,3 C 10,0 C 11,1 C 87 % 1015,7 hPa 0,0 l/m 5,5 km/h (1 Bft) O-NO 76 0 min 0,000 mm 0,0 UV-I 36 W/m 8,2 C 10,3 C 8,0 km/h (2 Bft) 97,87 %
09.11.2018 15:22 10,2 C 10,0 C 11,1 C 87 % 1015,6 hPa 0,0 l/m 4,3 km/h (1 Bft) O-NO 73 0 min 0,000 mm 0,0 UV-I 35 W/m 8,1 C 10,2 C 8,0 km/h (2 Bft) 97,87 %
09.11.2018 15:24 10,2 C 10,0 C 11,1 C 87 % 1015,6 hPa 0,0 l/m 3,8 km/h (1 Bft) O-NO 69 0 min 0,000 mm 0,0 UV-I 34 W/m 8,1 C 10,2 C 6,4 km/h (2 Bft) 97,87 %
09.11.2018 15:26 10,2 C 10,0 C 10,6 C 87 % 1015,5 hPa 0,0 l/m 7,9 km/h (2 Bft) O-NO 67 0 min 0,000 mm 0,0 UV-I 33 W/m 8,1 C 9,1 C 12,9 km/h (3 Bft) 95,74 %
09.11.2018 15:28 10,2 C 10,0 C 10,6 C 88 % 1015,5 hPa 0,0 l/m 7,9 km/h (2 Bft) NO 54 0 min 0,000 mm 0,0 UV-I 33 W/m 8,3 C 9,1 C 11,3 km/h (2 Bft) 97,87 %
09.11.2018 15:30 10,2 C 10,0 C 10,6 C 88 % 1015,5 hPa 0,0 l/m 6,2 km/h (2 Bft) NO 40 0 min 0,000 mm 0,0 UV-I 32 W/m 8,3 C 10,2 C 8,0 km/h (2 Bft) 97,87 %
09.11.2018 15:32 10,2 C 10,0 C 10,6 C 88 % 1015,5 hPa 0,0 l/m 5,1 km/h (1 Bft) NO 38 0 min 0,000 mm 0,0 UV-I 31 W/m 8,3 C 10,2 C 6,4 km/h (2 Bft) 93,62 %
09.11.2018 15:34 10,2 C 10,0 C 10,6 C 88 % 1015,5 hPa 0,0 l/m 5,8 km/h (2 Bft) NO 44 0 min 0,000 mm 0,0 UV-I 28 W/m 8,3 C 10,2 C 8,0 km/h (2 Bft) 97,37 %
09.11.2018 15:36 10,2 C 10,0 C 10,6 C 88 % 1015,5 hPa 0,0 l/m 4,9 km/h (1 Bft) O-NO 78 0 min 0,000 mm 0,0 UV-I 28 W/m 8,3 C 10,2 C 8,0 km/h (2 Bft) 95,83 %
09.11.2018 15:38 10,2 C 10,0 C 10,6 C 87 % 1015,5 hPa 0,0 l/m 6,9 km/h (2 Bft) O-NO 64 0 min 0,000 mm 0,0 UV-I 28 W/m 8,1 C 9,8 C 11,3 km/h (2 Bft) 98,00 %
09.11.2018 15:40 10,2 C 10,0 C 10,6 C 87 % 1015,5 hPa 0,0 l/m 6,4 km/h (2 Bft) O-NO 69 0 min 0,000 mm 0,0 UV-I 27 W/m 8,1 C 10,2 C 8,0 km/h (2 Bft) 100,00 %
09.11.2018 15:42 10,1 C 10,0 C 10,6 C 87 % 1015,5 hPa 0,0 l/m 4,1 km/h (1 Bft) O 97 0 min 0,000 mm 0,0 UV-I 26 W/m 8,0 C 10,1 C 6,4 km/h (2 Bft) 100,00 %
09.11.2018 15:44 10,2 C 10,0 C 10,6 C 88 % 1015,4 hPa 0,0 l/m 4,9 km/h (1 Bft) O 95 0 min 0,000 mm 0,0 UV-I 24 W/m 8,3 C 10,2 C 9,7 km/h (2 Bft) 97,87 %
09.11.2018 15:46 10,2 C 10,0 C 10,6 C 88 % 1015,4 hPa 0,0 l/m 5,6 km/h (1 Bft) O 101 0 min 0,000 mm 0,0 UV-I 21 W/m 8,3 C 10,2 C 9,7 km/h (2 Bft) 97,87 %
09.11.2018 15:48 10,1 C 10,0 C 10,6 C 88 % 1015,5 hPa 0,0 l/m 4,6 km/h (1 Bft) O-NO 78 0 min 0,000 mm 0,0 UV-I 20 W/m 8,2 C 10,1 C 9,7 km/h (2 Bft) 100,00 %
09.11.2018 15:50 10,1 C 10,0 C 10,6 C 88 % 1015,5 hPa 0,0 l/m 5,8 km/h (2 Bft) O 94 0 min 0,000 mm 0,0 UV-I 19 W/m 8,2 C 10,1 C 9,7 km/h (2 Bft) 97,87 %
09.11.2018 15:52 10,1 C 10,0 C 10,6 C 88 % 1015,5 hPa 0,0 l/m 2,6 km/h (1 Bft) O 92 0 min 0,000 mm 0,0 UV-I 18 W/m 8,2 C 10,1 C 4,8 km/h (1 Bft) 100,00 %
09.11.2018 15:54 10,1 C 10,0 C 10,6 C 88 % 1015,5 hPa 0,0 l/m 2,5 km/h (1 Bft) O 92 0 min 0,000 mm 0,0 UV-I 18 W/m 8,2 C 10,1 C 4,8 km/h (1 Bft) 100,00 %
09.11.2018 15:56 10,1 C 10,0 C 10,6 C 88 % 1015,5 hPa 0,0 l/m 3,6 km/h (1 Bft) O-NO 64 0 min 0,000 mm 0,0 UV-I 16 W/m 8,2 C 10,1 C 6,4 km/h (2 Bft) 100,00 %
09.11.2018 15:58 10,1 C 10,0 C 10,0 C 88 % 1015,5 hPa 0,0 l/m 5,1 km/h (1 Bft) O 82 0 min 0,000 mm 0,0 UV-I 15 W/m 8,2 C 10,1 C 6,4 km/h (2 Bft) 100,00 %
09.11.2018 16:00 10,1 C 10,0 C 10,0 C 88 % 1015,5 hPa 0,0 l/m 5,1 km/h (1 Bft) O 80 0 min 0,000 mm 0,0 UV-I 14 W/m 8,2 C 10,1 C 9,7 km/h (2 Bft) 100,00 %
09.11.2018 16:02 10,1 C 10,0 C 10,0 C 88 % 1015,4 hPa 0,0 l/m 5,1 km/h (1 Bft) O-NO 73 0 min 0,026 mm 0,0 UV-I 13 W/m 8,2 C 10,1 C 6,4 km/h (2 Bft) 97,87 %
09.11.2018 16:04 10,1 C 10,0 C 10,0 C 88 % 1015,4 hPa 0,0 l/m 4,4 km/h (1 Bft) O-NO 76 0 min 0,000 mm 0,0 UV-I 12 W/m 8,2 C 10,1 C 6,4 km/h (2 Bft) 100,00 %
09.11.2018 16:06 10,1 C 10,0 C 10,0 C 88 % 1015,4 hPa 0,0 l/m 3,8 km/h (1 Bft) NO 51 0 min 0,000 mm 0,0 UV-I 12 W/m 8,2 C 10,1 C 8,0 km/h (2 Bft) 100,00 %
09.11.2018 16:08 10,1 C 10,0 C 10,0 C 88 % 1015,4 hPa 0,0 l/m 6,3 km/h (2 Bft) O-NO 61 0 min 0,000 mm 0,0 UV-I 11 W/m 8,2 C 10,1 C 9,7 km/h (2 Bft) 95,74 %
09.11.2018 16:10 10,0 C 10,0 C 10,0 C 88 % 1015,3 hPa 0,0 l/m 7,2 km/h (2 Bft) O 86 0 min 0,000 mm 0,0 UV-I 11 W/m 8,1 C 9,4 C 11,3 km/h (2 Bft) 97,87 %
09.11.2018 16:12 10,0 C 10,0 C 10,0 C 88 % 1015,4 hPa 0,0 l/m 5,6 km/h (1 Bft) NO 51 0 min 0,000 mm 0,0 UV-I 11 W/m 8,1 C 10,0 C 9,7 km/h (2 Bft) 97,87 %
09.11.2018 16:14 9,9 C 10,0 C 10,0 C 89 % 1015,4 hPa 0,0 l/m 6,8 km/h (2 Bft) O-NO 59 0 min 0,000 mm 0,0 UV-I 11 W/m 8,2 C 9,6 C 12,9 km/h (3 Bft) 93,62 %
09.11.2018 16:16 9,9 C 10,0 C 10,0 C 89 % 1015,4 hPa 0,0 l/m 6,3 km/h (2 Bft) O-NO 60 0 min 0,000 mm 0,0 UV-I 9 W/m 8,2 C 9,9 C 8,0 km/h (2 Bft) 95,83 %
09.11.2018 16:19 9,9 C 10,0 C 10,0 C 89 % 1015,4 hPa 0,0 l/m 4,6 km/h (1 Bft) NO 52 0 min 0,000 mm 0,0 UV-I 8 W/m 8,2 C 9,9 C 6,4 km/h (2 Bft) 97,37 %
09.11.2018 16:20 9,9 C 10,0 C 10,0 C 89 % 1015,4 hPa 0,0 l/m 5,3 km/h (1 Bft) O-NO 71 0 min 0,000 mm 0,0 UV-I 7 W/m 8,2 C 9,9 C 6,4 km/h (2 Bft) 100,00 %
09.11.2018 16:22 9,9 C 10,0 C 10,0 C 89 % 1015,4 hPa 0,0 l/m 5,5 km/h (1 Bft) O-NO 65 0 min 0,000 mm 0,0 UV-I 7 W/m 8,2 C 9,9 C 8,0 km/h (2 Bft) 95,74 %
09.11.2018 16:24 9,8 C 10,0 C 10,0 C 89 % 1015,4 hPa 0,0 l/m 5,7 km/h (1 Bft) O-NO 66 0 min 0,000 mm 0,0 UV-I 7 W/m 8,1 C 9,8 C 9,7 km/h (2 Bft) 95,74 %
09.11.2018 16:26 9,8 C 10,0 C 10,0 C 89 % 1015,4 hPa 0,0 l/m 6,3 km/h (2 Bft) O-NO 74 0 min 0,000 mm 0,0 UV-I 6 W/m 8,1 C 9,8 C 8,0 km/h (2 Bft) 97,87 %
09.11.2018 16:28 9,8 C 10,0 C 10,0 C 89 % 1015,4 hPa 0,0 l/m 6,2 km/h (2 Bft) NO 53 0 min 0,000 mm 0,0 UV-I 5 W/m 8,1 C 9,8 C 9,7 km/h (2 Bft) 98,00 %
09.11.2018 16:30 9,8 C 10,0 C 10,0 C 89 % 1015,5 hPa 0,0 l/m 4,0 km/h (1 Bft) O-NO 76 0 min 0,000 mm 0,0 UV-I 5 W/m 8,1 C 9,8 C 6,4 km/h (2 Bft) 97,87 %
09.11.2018 16:32 9,8 C 10,0 C 10,0 C 89 % 1015,4 hPa 0,0 l/m 3,7 km/h (1 Bft) O 92 0 min 0,000 mm 0,0 UV-I 5 W/m 8,1 C 9,8 C 6,4 km/h (2 Bft) 97,87 %
09.11.2018 16:34 9,8 C 10,0 C 9,4 C 89 % 1015,4 hPa 0,0 l/m 3,9 km/h (1 Bft) O 90 0 min 0,000 mm 0,0 UV-I 5 W/m 8,1 C 9,8 C 6,4 km/h (2 Bft) 100,00 %
09.11.2018 16:36 9,8 C 10,0 C 9,4 C 89 % 1015,4 hPa 0,0 l/m 3,9 km/h (1 Bft) O 99 0 min 0,000 mm 0,0 UV-I 0 W/m 8,1 C 9,8 C 6,4 km/h (2 Bft) 100,00 %
09.11.2018 16:38 9,8 C 10,0 C 9,4 C 89 % 1015,4 hPa 0,0 l/m 5,1 km/h (1 Bft) O 83 0 min 0,000 mm 0,0 UV-I 0 W/m 8,1 C 9,8 C 8,0 km/h (2 Bft) 97,87 %
09.11.2018 16:40 9,8 C 10,0 C 9,4 C 89 % 1015,3 hPa 0,0 l/m 5,1 km/h (1 Bft) O-SO 105 0 min 0,000 mm 0,0 UV-I 0 W/m 8,1 C 9,8 C 9,7 km/h (2 Bft) 95,12 %
09.11.2018 16:42 9,8 C 10,0 C 9,4 C 89 % 1015,4 hPa 0,0 l/m 5,2 km/h (1 Bft) O-NO 78 0 min 0,000 mm 0,0 UV-I 0 W/m 8,1 C 9,8 C 9,7 km/h (2 Bft) 97,87 %
09.11.2018 16:44 9,8 C 10,0 C 9,4 C 89 % 1015,4 hPa 0,0 l/m 4,8 km/h (1 Bft) O 84 0 min 0,000 mm 0,0 UV-I 0 W/m 8,1 C 9,8 C 6,4 km/h (2 Bft) 100,00 %
09.11.2018 16:46 9,8 C 10,0 C 9,4 C 89 % 1015,4 hPa 0,0 l/m 4,0 km/h (1 Bft) O 86 0 min 0,000 mm 0,0 UV-I 0 W/m 8,1 C 9,8 C 6,4 km/h (2 Bft) 97,87 %
09.11.2018 16:48 9,7 C 10,0 C 9,4 C 89 % 1015,5 hPa 0,0 l/m 1,7 km/h (1 Bft) O 86 0 min 0,000 mm 0,0 UV-I 0 W/m 8,0 C 9,7 C 3,2 km/h (1 Bft) 100,00 %
09.11.2018 16:50 9,8 C 10,0 C 9,4 C 89 % 1015,5 hPa 0,0 l/m 3,2 km/h (1 Bft) O-NO 73 0 min 0,000 mm 0,0 UV-I 0 W/m 8,1 C 9,8 C 4,8 km/h (1 Bft) 100,00 %
09.11.2018 16:52 9,7 C 10,0 C 9,4 C 89 % 1015,5 hPa 0,0 l/m 4,6 km/h (1 Bft) O 98 0 min 0,000 mm 0,0 UV-I 0 W/m 8,0 C 9,7 C 9,7 km/h (2 Bft) 97,87 %
09.11.2018 16:54 9,7 C 10,0 C 9,4 C 89 % 1015,5 hPa 0,0 l/m 5,0 km/h (1 Bft) O-SO 102 0 min 0,000 mm 0,0 UV-I 0 W/m 8,0 C 9,7 C 9,7 km/h (2 Bft) 95,83 %
09.11.2018 16:56 9,7 C 10,0 C 9,4 C 89 % 1015,5 hPa 0,0 l/m 4,1 km/h (1 Bft) O-SO 102 0 min 0,000 mm 0,0 UV-I 0 W/m 8,0 C 9,7 C 4,8 km/h (1 Bft) 98,00 %
09.11.2018 16:58 9,7 C 10,0 C 9,4 C 89 % 1015,5 hPa 0,0 l/m 3,5 km/h (1 Bft) O-SO 104 0 min 0,000 mm 0,0 UV-I 0 W/m 8,0 C 9,7 C 4,8 km/h (1 Bft) 100,00 %
09.11.2018 17:00 9,7 C 10,0 C 9,4 C 89 % 1015,5 hPa 0,0 l/m 3,6 km/h (1 Bft) O 101 0 min 0,000 mm 0,0 UV-I 0 W/m 8,0 C 9,7 C 4,8 km/h (1 Bft) 98,00 %
09.11.2018 17:02 9,7 C 10,0 C 9,4 C 89 % 1015,5 hPa 0,0 l/m 4,5 km/h (1 Bft) O 93 0 min 0,000 mm 0,0 UV-I 0 W/m 8,0 C 9,7 C 8,0 km/h (2 Bft) 100,00 %
09.11.2018 17:04 9,7 C 10,0 C 9,4 C 89 % 1015,5 hPa 0,0 l/m 3,7 km/h (1 Bft) O 95 0 min 0,000 mm 0,0 UV-I 0 W/m 8,0 C 9,7 C 6,4 km/h (2 Bft) 100,00 %
09.11.2018 17:06 9,7 C 10,0 C 9,4 C 90 % 1015,5 hPa 0,0 l/m 3,9 km/h (1 Bft) O 98 0 min 0,000 mm 0,0 UV-I 0 W/m 8,1 C 9,7 C 6,4 km/h (2 Bft) 95,74 %
09.11.2018 17:08 9,7 C 10,0 C 9,4 C 90 % 1015,6 hPa 0,0 l/m 3,6 km/h (1 Bft) O 98 0 min 0,000 mm 0,0 UV-I 0 W/m 8,1 C 9,7 C 4,8 km/h (1 Bft) 98,00 %
09.11.2018 17:10 9,7 C 10,0 C 9,4 C 90 % 1015,5 hPa 0,0 l/m 4,1 km/h (1 Bft) O 82 0 min 0,000 mm 0,0 UV-I 0 W/m 8,1 C 9,7 C 4,8 km/h (1 Bft) 95,74 %
09.11.2018 17:12 9,7 C 10,0 C 9,4 C 90 % 1015,5 hPa 0,0 l/m 3,4 km/h (1 Bft) O-SO 110 0 min 0,000 mm 0,0 UV-I 0 W/m 8,1 C 9,7 C 6,4 km/h (2 Bft) 93,62 %
09.11.2018 17:14 9,7 C 10,0 C 9,4 C 90 % 1015,6 hPa 0,0 l/m 3,9 km/h (1 Bft) O 86 0 min 0,000 mm 0,0 UV-I 0 W/m 8,1 C 9,7 C 4,8 km/h (1 Bft) 98,00 %
09.11.2018 17:16 9,7 C 10,0 C 9,4 C 90 % 1015,6 hPa 0,0 l/m 4,5 km/h (1 Bft) O 88 0 min 0,000 mm 0,0 UV-I 0 W/m 8,1 C 9,7 C 6,4 km/h (2 Bft) 97,37 %
09.11.2018 17:18 9,7 C 10,0 C 9,4 C 90 % 1015,6 hPa 0,0 l/m 3,4 km/h (1 Bft) O-NO 74 0 min 0,000 mm 0,0 UV-I 0 W/m 8,1 C 9,7 C 6,4 km/h (2 Bft) 94,00 %
09.11.2018 17:20 9,7 C 10,0 C 9,4 C 90 % 1015,5 hPa 0,0 l/m 5,2 km/h (1 Bft) O-SO 103 0 min 0,000 mm 0,0 UV-I 0 W/m 8,1 C 9,7 C 8,0 km/h (2 Bft) 95,74 %
09.11.2018 17:22 9,6 C 10,0 C 9,4 C 90 % 1015,5 hPa 0,0 l/m 4,7 km/h (1 Bft) O-SO 104 0 min 0,000 mm 0,0 UV-I 0 W/m 8,0 C 9,6 C 6,4 km/h (2 Bft) 97,87 %
09.11.2018 17:24 9,6 C 10,0 C 9,4 C 90 % 1015,6 hPa 0,0 l/m 4,7 km/h (1 Bft) O-SO 103 0 min 0,000 mm 0,0 UV-I 0 W/m 8,0 C 9,6 C 6,4 km/h (2 Bft) 97,87 %
09.11.2018 17:26 9,6 C 10,0 C 9,4 C 89 % 1015,5 hPa 0,0 l/m 4,8 km/h (1 Bft) O 93 0 min 0,000 mm 0,0 UV-I 0 W/m 7,9 C 9,6 C 9,7 km/h (2 Bft) 95,74 %
09.11.2018 17:28 9,6 C 10,0 C 9,4 C 89 % 1015,6 hPa 0,0 l/m 3,7 km/h (1 Bft) O-SO 121 0 min 0,000 mm 0,0 UV-I 0 W/m 7,9 C 9,6 C 4,8 km/h (1 Bft) 93,62 %
09.11.2018 17:30 9,6 C 10,0 C 9,4 C 89 % 1015,6 hPa 0,0 l/m 4,2 km/h (1 Bft) O 92 0 min 0,000 mm 0,0 UV-I 0 W/m 7,9 C 9,6 C 6,4 km/h (2 Bft) 95,83 %
09.11.2018 17:32 9,6 C 10,0 C 9,4 C 89 % 1015,6 hPa 0,0 l/m 3,0 km/h (1 Bft) SO 131 0 min 0,000 mm 0,0 UV-I 0 W/m 7,9 C 9,6 C 4,8 km/h (1 Bft) 93,62 %
09.11.2018 17:34 9,6 C 10,0 C 9,4 C 89 % 1015,7 hPa 0,0 l/m 3,7 km/h (1 Bft) O-SO 121 0 min 0,000 mm 0,0 UV-I 0 W/m 7,9 C 9,6 C 6,4 km/h (2 Bft) 89,36 %
09.11.2018 17:36 9,6 C 10,0 C 9,4 C 89 % 1015,7 hPa 0,0 l/m 5,6 km/h (1 Bft) O 84 0 min 0,000 mm 0,0 UV-I 0 W/m 7,9 C 9,6 C 8,0 km/h (2 Bft) 91,49 %
09.11.2018 17:38 9,6 C 10,0 C 9,4 C 89 % 1015,6 hPa 0,0 l/m 6,1 km/h (2 Bft) O-NO 68 0 min 0,000 mm 0,0 UV-I 0 W/m 7,9 C 9,6 C 9,7 km/h (2 Bft) 93,62 %
09.11.2018 17:40 9,6 C 10,0 C 9,4 C 89 % 1015,6 hPa 0,0 l/m 5,8 km/h (2 Bft) O 91 0 min 0,000 mm 0,0 UV-I 0 W/m 7,9 C 9,6 C 9,7 km/h (2 Bft) 96,00 %
09.11.2018 17:42 9,6 C 10,0 C 9,4 C 89 % 1015,6 hPa 0,0 l/m 6,3 km/h (2 Bft) O 101 0 min 0,000 mm 0,0 UV-I 0 W/m 7,9 C 9,6 C 9,7 km/h (2 Bft) 93,62 %
09.11.2018 17:44 9,5 C 10,0 C 9,4 C 89 % 1015,6 hPa 0,0 l/m 5,2 km/h (1 Bft) O 81 0 min 0,000 mm 0,0 UV-I 0 W/m 7,8 C 9,5 C 9,7 km/h (2 Bft) 95,74 %
09.11.2018 17:46 9,5 C 10,0 C 9,4 C 89 % 1015,6 hPa 0,0 l/m 7,1 km/h (2 Bft) O 100 0 min 0,000 mm 0,0 UV-I 0 W/m 7,8 C 9,0 C 12,9 km/h (3 Bft) 95,74 %
09.11.2018 17:48 9,5 C 10,0 C 9,4 C 89 % 1015,7 hPa 0,0 l/m 5,1 km/h (1 Bft) O-SO 105 0 min 0,000 mm 0,0 UV-I 0 W/m 7,8 C 9,5 C 6,4 km/h (2 Bft) 95,74 %
09.11.2018 17:50 9,5 C 10,0 C 9,4 C 89 % 1015,7 hPa 0,0 l/m 4,6 km/h (1 Bft) O 94 0 min 0,000 mm 0,0 UV-I 0 W/m 7,8 C 9,5 C 9,7 km/h (2 Bft) 93,62 %
09.11.2018 17:52 9,4 C 10,0 C 9,4 C 89 % 1015,7 hPa 0,0 l/m 4,6 km/h (1 Bft) SO 126 0 min 0,000 mm 0,0 UV-I 0 W/m 7,7 C 9,4 C 8,0 km/h (2 Bft) 91,43 %
09.11.2018 17:54 9,5 C 10,0 C 9,4 C 89 % 1015,6 hPa 0,0 l/m 5,6 km/h (1 Bft) SO 124 0 min 0,000 mm 0,0 UV-I 0 W/m 7,8 C 9,5 C 6,4 km/h (2 Bft) 96,00 %
09.11.2018 17:56 9,5 C 10,0 C 9,4 C 89 % 1015,6 hPa 0,0 l/m 4,2 km/h (1 Bft) SO 124 0 min 0,000 mm 0,0 UV-I 0 W/m 7,8 C 9,5 C 6,4 km/h (2 Bft) 95,74 %
09.11.2018 17:58 9,5 C 10,0 C 9,4 C 89 % 1015,6 hPa 0,0 l/m 6,0 km/h (2 Bft) SO 124 0 min 0,000 mm 0,0 UV-I 0 W/m 7,8 C 9,5 C 11,3 km/h (2 Bft) 95,74 %
09.11.2018 18:00 9,4 C 10,0 C 9,4 C 89 % 1015,5 hPa 0,0 l/m 7,0 km/h (2 Bft) O 80 0 min 0,000 mm 0,0 UV-I 0 W/m 7,7 C 9,0 C 11,3 km/h (2 Bft) 95,74 %
09.11.2018 18:02 9,4 C 10,0 C 9,4 C 89 % 1015,4 hPa 0,0 l/m 5,4 km/h (1 Bft) O 98 0 min 0,000 mm 0,0 UV-I 0 W/m 7,7 C 9,4 C 6,4 km/h (2 Bft) 98,11 %
09.11.2018 18:04 9,4 C 10,0 C 9,4 C 89 % 1015,4 hPa 0,0 l/m 5,3 km/h (1 Bft) O 84 0 min 0,000 mm 0,0 UV-I 0 W/m 7,7 C 9,4 C 8,0 km/h (2 Bft) 97,44 %
09.11.2018 18:06 9,4 C 10,0 C 9,4 C 89 % 1015,4 hPa 0,0 l/m 6,7 km/h (2 Bft) O 95 0 min 0,000 mm 0,0 UV-I 0 W/m 7,7 C 9,2 C 11,3 km/h (2 Bft) 97,87 %
09.11.2018 18:08 9,4 C 10,0 C 9,4 C 89 % 1015,5 hPa 0,0 l/m 8,3 km/h (2 Bft) O-NO 76 0 min 0,000 mm 0,0 UV-I 0 W/m 7,7 C 8,0 C 11,3 km/h (2 Bft) 95,74 %
09.11.2018 18:10 9,4 C 10,0 C 9,4 C 90 % 1015,4 hPa 0,0 l/m 5,6 km/h (1 Bft) O-NO 71 0 min 0,000 mm 0,0 UV-I 0 W/m 7,8 C 9,4 C 9,7 km/h (2 Bft) 98,00 %
09.11.2018 18:12 9,4 C 10,0 C 9,4 C 89 % 1015,4 hPa 0,0 l/m 5,9 km/h (2 Bft) O 100 0 min 0,000 mm 0,0 UV-I 0 W/m 7,7 C 9,4 C 9,7 km/h (2 Bft) 97,87 %
09.11.2018 18:14 9,5 C 10,0 C 9,4 C 90 % 1015,5 hPa 0,0 l/m 5,6 km/h (1 Bft) O-NO 67 0 min 0,000 mm 0,0 UV-I 0 W/m 7,9 C 9,5 C 9,7 km/h (2 Bft) 97,87 %
09.11.2018 18:16 9,5 C 10,0 C 9,4 C 90 % 1015,5 hPa 0,0 l/m 5,8 km/h (2 Bft) O-NO 68 0 min 0,000 mm 0,0 UV-I 0 W/m 7,9 C 9,5 C 11,3 km/h (2 Bft) 97,87 %
09.11.2018 18:18 9,5 C 10,0 C 9,4 C 90 % 1015,5 hPa 0,0 l/m 5,4 km/h (1 Bft) NO 54 0 min 0,000 mm 0,0 UV-I 0 W/m 7,9 C 9,5 C 8,0 km/h (2 Bft) 95,74 %
09.11.2018 18:20 9,5 C 10,0 C 9,4 C 90 % 1015,5 hPa 0,0 l/m 5,5 km/h (1 Bft) NO 49 0 min 0,000 mm 0,0 UV-I 0 W/m 7,9 C 9,5 C 8,0 km/h (2 Bft) 96,00 %
09.11.2018 18:22 9,5 C 10,0 C 9,4 C 90 % 1015,5 hPa 0,0 l/m 4,9 km/h (1 Bft) NO 51 0 min 0,000 mm 0,0 UV-I 0 W/m 7,9 C 9,5 C 6,4 km/h (2 Bft) 97,87 %
09.11.2018 18:24 9,4 C 10,0 C 9,4 C 90 % 1015,5 hPa 0,0 l/m 3,7 km/h (1 Bft) NO 55 0 min 0,000 mm 0,0 UV-I 0 W/m 7,8 C 9,4 C 6,4 km/h (2 Bft) 96,00 %
09.11.2018 18:26 9,4 C 10,0 C 9,4 C 90 % 1015,5 hPa 0,0 l/m 3,5 km/h (1 Bft) O-NO 58 0 min 0,000 mm 0,0 UV-I 0 W/m 7,8 C 9,4 C 6,4 km/h (2 Bft) 97,14 %
09.11.2018 18:28 9,4 C 10,0 C 9,4 C 90 % 1015,5 hPa 0,0 l/m 4,9 km/h (1 Bft) NO 53 0 min 0,000 mm 0,0 UV-I 0 W/m 7,8 C 9,4 C 6,4 km/h (2 Bft) 98,00 %
09.11.2018 18:30 9,4 C 10,0 C 9,4 C 90 % 1015,5 hPa 0,0 l/m 4,2 km/h (1 Bft) NO 53 0 min 0,000 mm 0,0 UV-I 0 W/m 7,8 C 9,4 C 6,4 km/h (2 Bft) 95,74 %
09.11.2018 18:32 9,4 C 10,0 C 9,4 C 90 % 1015,4 hPa 0,0 l/m 6,6 km/h (2 Bft) NO 42 0 min 0,000 mm 0,0 UV-I 0 W/m 7,8 C 9,3 C 9,7 km/h (2 Bft) 97,87 %
09.11.2018 18:34 9,4 C 10,0 C 9,4 C 90 % 1015,4 hPa 0,0 l/m 8,4 km/h (2 Bft) NO 53 0 min 0,000 mm 0,0 UV-I 0 W/m 7,8 C 7,9 C 11,3 km/h (2 Bft) 100,00 %
09.11.2018 18:36 9,4 C 10,0 C 9,4 C 90 % 1015,4 hPa 0,0 l/m 5,7 km/h (1 Bft) O-NO 61 0 min 0,000 mm 0,0 UV-I 0 W/m 7,8 C 9,4 C 8,0 km/h (2 Bft) 100,00 %
09.11.2018 18:38 9,4 C 10,0 C 9,4 C 90 % 1015,4 hPa 0,0 l/m 5,0 km/h (1 Bft) O-NO 61 0 min 0,000 mm 0,0 UV-I 0 W/m 7,8 C 9,4 C 6,4 km/h (2 Bft) 100,00 %
09.11.2018 18:40 9,4 C 10,0 C 9,4 C 90 % 1015,3 hPa 0,0 l/m 6,6 km/h (2 Bft) O-NO 57 0 min 0,000 mm 0,0 UV-I 0 W/m 7,8 C 9,3 C 8,0 km/h (2 Bft) 100,00 %
09.11.2018 18:42 9,4 C 10,0 C 9,4 C 90 % 1015,3 hPa 0,0 l/m 4,6 km/h (1 Bft) NO 56 0 min 0,000 mm 0,0 UV-I 0 W/m 7,8 C 9,4 C 6,4 km/h (2 Bft) 100,00 %
09.11.2018 18:44 9,4 C 10,0 C 9,4 C 90 % 1015,4 hPa 0,0 l/m 3,8 km/h (1 Bft) O 79 0 min 0,000 mm 0,0 UV-I 0 W/m 7,8 C 9,4 C 4,8 km/h (1 Bft) 100,00 %
09.11.2018 18:46 9,5 C 10,0 C 9,4 C 90 % 1015,3 hPa 0,0 l/m 2,9 km/h (1 Bft) O-NO 71 0 min 0,000 mm 0,0 UV-I 0 W/m 7,9 C 9,5 C 4,8 km/h (1 Bft) 97,87 %
09.11.2018 18:48 9,4 C 10,0 C 9,4 C 90 % 1015,4 hPa 0,0 l/m 2,2 km/h (1 Bft) O-NO 71 0 min 0,000 mm 0,0 UV-I 0 W/m 7,8 C 9,4 C 4,8 km/h (1 Bft) 100,00 %
09.11.2018 18:50 9,4 C 10,0 C 9,4 C 90 % 1015,4 hPa 0,0 l/m 2,7 km/h (1 Bft) O-NO 69 0 min 0,000 mm 0,0 UV-I 0 W/m 7,8 C 9,4 C 6,4 km/h (2 Bft) 100,00 %
09.11.2018 18:52 9,4 C 10,0 C 9,4 C 90 % 1015,4 hPa 0,0 l/m 2,5 km/h (1 Bft) O-NO 70 0 min 0,000 mm 0,0 UV-I 0 W/m 7,8 C 9,4 C 4,8 km/h (1 Bft) 100,00 %
09.11.2018 18:54 9,5 C 10,0 C 9,4 C 90 % 1015,4 hPa 0,0 l/m 2,7 km/h (1 Bft) SO 137 0 min 0,000 mm 0,0 UV-I 0 W/m 7,9 C 9,5 C 6,4 km/h (2 Bft) 93,62 %
09.11.2018 18:56 9,5 C 10,0 C 9,4 C 90 % 1015,4 hPa 0,0 l/m 1,4 km/h (1 Bft) SO 137 0 min 0,000 mm 0,0 UV-I 0 W/m 7,9 C 9,5 C 3,2 km/h (1 Bft) 98,00 %
09.11.2018 18:58 9,6 C 10,0 C 9,4 C 90 % 1015,4 hPa 0,0 l/m 0,3 km/h (0 Bft) SO 137 0 min 0,000 mm 0,0 UV-I 0 W/m 8,0 C 9,6 C 1,6 km/h (1 Bft) 97,87 %
09.11.2018 19:00 9,5 C 10,0 C 9,4 C 90 % 1015,3 hPa 0,0 l/m 0,0 km/h (0 Bft) SO 137 0 min 0,000 mm 0,0 UV-I 0 W/m 7,9 C 9,5 C 1,6 km/h (1 Bft) 95,74 %
09.11.2018 19:02 9,5 C 10,0 C 9,4 C 90 % 1015,4 hPa 0,0 l/m 0,0 km/h (0 Bft) SO 137 0 min 0,000 mm 0,0 UV-I 0 W/m 7,9 C 9,5 C 1,6 km/h (1 Bft) 100,00 %
09.11.2018 19:04 9,5 C 10,0 C 9,4 C 91 % 1015,3 hPa 0,0 l/m 1,0 km/h (0 Bft) SO 137 0 min 0,000 mm 0,0 UV-I 0 W/m 8,1 C 9,5 C 3,2 km/h (1 Bft) 97,87 %
09.11.2018 19:06 9,4 C 10,0 C 9,4 C 91 % 1015,3 hPa 0,0 l/m 1,5 km/h (1 Bft) SO 137 0 min 0,000 mm 0,0 UV-I 0 W/m 8,0 C 9,4 C 3,2 km/h (1 Bft) 95,74 %
09.11.2018 19:08 9,4 C 10,0 C 9,4 C 91 % 1015,3 hPa 0,0 l/m 0,9 km/h (0 Bft) SO 137 0 min 0,000 mm 0,0 UV-I 0 W/m 8,0 C 9,4 C 1,6 km/h (1 Bft) 95,74 %
09.11.2018 19:09 9,4 C 10,0 C 9,4 C 91 % 1015,3 hPa 0,0 l/m 1,3 km/h (1 Bft) SO 137 0 min 0,000 mm 0,0 UV-I 0 W/m 8,0 C 9,4 C 3,2 km/h (1 Bft) 94,00 %
09.11.2018 19:12 9,4 C 10,0 C 9,4 C 91 % 1015,2 hPa 0,0 l/m 1,5 km/h (1 Bft) SO 137 0 min 0,000 mm 0,0 UV-I 0 W/m 8,0 C 9,4 C 3,2 km/h (1 Bft) 91,49 %
09.11.2018 19:14 9,4 C 10,0 C 9,4 C 91 % 1015,2 hPa 0,0 l/m 1,2 km/h (1 Bft) SO 137 0 min 0,000 mm 0,0 UV-I 0 W/m 8,0 C 9,4 C 3,2 km/h (1 Bft) 95,74 %
09.11.2018 19:16 9,4 C 10,0 C 9,4 C 91 % 1015,2 hPa 0,0 l/m 0,9 km/h (0 Bft) SO 137 0 min 0,000 mm 0,0 UV-I 0 W/m 8,0 C 9,4 C 1,6 km/h (1 Bft) 95,74 %
09.11.2018 19:18 9,4 C 10,0 C 9,4 C 91 % 1015,2 hPa 0,0 l/m 2,2 km/h (1 Bft) SO 137 0 min 0,000 mm 0,0 UV-I 0 W/m 8,0 C 9,4 C 3,2 km/h (1 Bft) 95,74 %
09.11.2018 19:20 9,4 C 10,0 C 9,4 C 91 % 1015,2 hPa 0,0 l/m 2,8 km/h (1 Bft) SO 137 0 min 0,000 mm 0,0 UV-I 0 W/m 8,0 C 9,4 C 4,8 km/h (1 Bft) 97,22 %
09.11.2018 19:22 9,5 C 10,0 C 9,4 C 91 % 1015,2 hPa 0,0 l/m 1,7 km/h (1 Bft) SO 137 0 min 0,000 mm 0,0 UV-I 0 W/m 8,1 C 9,5 C 3,2 km/h (1 Bft) 96,23 %
09.11.2018 19:24 9,5 C 10,0 C 9,4 C 91 % 1015,2 hPa 0,0 l/m 0,7 km/h (0 Bft) SO 137 0 min 0,000 mm 0,0 UV-I 0 W/m 8,1 C 9,5 C 1,6 km/h (1 Bft) 95,74 %
09.11.2018 19:26 9,4 C 10,0 C 9,4 C 91 % 1015,2 hPa 0,0 l/m 1,8 km/h (1 Bft) SO 137 0 min 0,000 mm 0,0 UV-I 0 W/m 8,0 C 9,4 C 3,2 km/h (1 Bft) 95,83 %
09.11.2018 19:28 9,5 C 10,0 C 9,4 C 91 % 1015,1 hPa 0,0 l/m 1,9 km/h (1 Bft) SO 137 0 min 0,000 mm 0,0 UV-I 0 W/m 8,1 C 9,5 C 3,2 km/h (1 Bft) 96,00 %
09.11.2018 19:30 9,5 C 10,0 C 9,4 C 91 % 1015,1 hPa 0,0 l/m 1,7 km/h (1 Bft) SO 137 0 min 0,000 mm 0,0 UV-I 0 W/m 8,1 C 9,5 C 3,2 km/h (1 Bft) 97,87 %
09.11.2018 19:32 9,5 C 10,0 C 9,4 C 91 % 1015,2 hPa 0,0 l/m 2,4 km/h (1 Bft) SO 137 0 min 0,000 mm 0,0 UV-I 0 W/m 8,1 C 9,5 C 3,2 km/h (1 Bft) 93,62 %
09.11.2018 19:34 9,5 C 10,0 C 9,4 C 91 % 1015,2 hPa 0,0 l/m 2,1 km/h (1 Bft) SO 137 0 min 0,000 mm 0,0 UV-I 0 W/m 8,1 C 9,5 C 3,2 km/h (1 Bft) 97,87 %
09.11.2018 19:36 9,5 C 10,0 C 9,4 C 91 % 1015,2 hPa 0,0 l/m 3,5 km/h (1 Bft) NO 48 0 min 0,000 mm 0,0 UV-I 0 W/m 8,1 C 9,5 C 4,8 km/h (1 Bft) 97,14 %
09.11.2018 19:38 9,5 C 10,0 C 9,4 C 91 % 1015,2 hPa 0,0 l/m 4,1 km/h (1 Bft) O-NO 76 0 min 0,000 mm 0,0 UV-I 0 W/m 8,1 C 9,5 C 6,4 km/h (2 Bft) 96,00 %
09.11.2018 19:40 9,5 C 10,0 C 9,4 C 91 % 1015,2 hPa 0,0 l/m 4,3 km/h (1 Bft) O 79 0 min 0,000 mm 0,0 UV-I 0 W/m 8,1 C 9,5 C 6,4 km/h (2 Bft) 100,00 %
09.11.2018 19:42 9,6 C 10,0 C 9,4 C 91 % 1015,2 hPa 0,0 l/m 3,7 km/h (1 Bft) O 81 0 min 0,000 mm 0,0 UV-I 0 W/m 8,2 C 9,6 C 4,8 km/h (1 Bft) 100,00 %
09.11.2018 19:44 9,6 C 10,0 C 9,4 C 91 % 1015,2 hPa 0,0 l/m 3,4 km/h (1 Bft) O-SO 109 0 min 0,000 mm 0,0 UV-I 0 W/m 8,2 C 9,6 C 4,8 km/h (1 Bft) 93,62 %
09.11.2018 19:46 9,6 C 10,0 C 9,4 C 91 % 1015,2 hPa 0,0 l/m 3,9 km/h (1 Bft) O-SO 115 0 min 0,000 mm 0,0 UV-I 0 W/m 8,2 C 9,6 C 4,8 km/h (1 Bft) 100,00 %
09.11.2018 19:48 9,7 C 10,0 C 9,4 C 90 % 1015,2 hPa 0,0 l/m 3,4 km/h (1 Bft) O-SO 113 0 min 0,000 mm 0,0 UV-I 0 W/m 8,1 C 9,7 C 4,8 km/h (1 Bft) 97,87 %
09.11.2018 19:50 9,7 C 10,0 C 9,4 C 90 % 1015,2 hPa 0,0 l/m 3,9 km/h (1 Bft) O 80 0 min 0,000 mm 0,0 UV-I 0 W/m 8,1 C 9,7 C 6,4 km/h (2 Bft) 100,00 %
09.11.2018 19:52 9,7 C 10,0 C 9,4 C 90 % 1015,2 hPa 0,0 l/m 3,6 km/h (1 Bft) O 80 0 min 0,000 mm 0,0 UV-I 0 W/m 8,1 C 9,7 C 4,8 km/h (1 Bft) 100,00 %
09.11.2018 19:54 9,7 C 10,0 C 9,4 C 91 % 1015,2 hPa 0,0 l/m 3,8 km/h (1 Bft) O 80 0 min 0,000 mm 0,0 UV-I 0 W/m 8,3 C 9,7 C 4,8 km/h (1 Bft) 100,00 %
09.11.2018 19:56 9,6 C 10,0 C 9,4 C 90 % 1015,1 hPa 0,0 l/m 4,8 km/h (1 Bft) O-NO 73 0 min 0,000 mm 0,0 UV-I 0 W/m 8,0 C 9,6 C 6,4 km/h (2 Bft) 97,87 %
09.11.2018 19:58 9,6 C 10,0 C 9,4 C 91 % 1015,1 hPa 0,0 l/m 4,2 km/h (1 Bft) O-NO 76 0 min 0,000 mm 0,0 UV-I 0 W/m 8,2 C 9,6 C 6,4 km/h (2 Bft) 100,00 %
09.11.2018 20:00 9,6 C 10,0 C 9,4 C 91 % 1015,1 hPa 0,0 l/m 5,4 km/h (1 Bft) O 98 0 min 0,000 mm 0,0 UV-I 0 W/m 8,2 C 9,6 C 8,0 km/h (2 Bft) 100,00 %
09.11.2018 20:02 9,6 C 10,0 C 9,4 C 91 % 1015,0 hPa 0,0 l/m 5,4 km/h (1 Bft) O 92 0 min 0,000 mm 0,0 UV-I 0 W/m 8,2 C 9,6 C 6,4 km/h (2 Bft) 100,00 %
09.11.2018 20:04 9,6 C 10,0 C 9,4 C 91 % 1015,0 hPa 0,0 l/m 5,3 km/h (1 Bft) O 88 0 min 0,000 mm 0,0 UV-I 0 W/m 8,2 C 9,6 C 11,3 km/h (2 Bft) 97,87 %
09.11.2018 20:06 9,6 C 10,0 C 9,4 C 91 % 1014,9 hPa 0,0 l/m 6,0 km/h (2 Bft) O-NO 76 0 min 0,000 mm 0,0 UV-I 0 W/m 8,2 C 9,6 C 11,3 km/h (2 Bft) 100,00 %
09.11.2018 20:08 9,6 C 10,0 C 9,4 C 91 % 1014,9 hPa 0,0 l/m 5,5 km/h (1 Bft) O-NO 74 0 min 0,000 mm 0,0 UV-I 0 W/m 8,2 C 9,6 C 9,7 km/h (2 Bft) 98,00 %
09.11.2018 20:10 9,6 C 10,0 C 9,4 C 91 % 1014,9 hPa 0,0 l/m 4,2 km/h (1 Bft) O-SO 117 0 min 0,000 mm 0,0 UV-I 0 W/m 8,2 C 9,6 C 6,4 km/h (2 Bft) 95,74 %
09.11.2018 20:12 9,6 C 10,0 C 9,4 C 91 % 1014,9 hPa 0,0 l/m 4,8 km/h (1 Bft) O-SO 111 0 min 0,000 mm 0,0 UV-I 0 W/m 8,2 C 9,6 C 9,7 km/h (2 Bft) 100,00 %
09.11.2018 20:14 9,6 C 10,0 C 9,4 C 91 % 1014,8 hPa 0,0 l/m 6,4 km/h (2 Bft) O-SO 119 0 min 0,000 mm 0,0 UV-I 0 W/m 8,2 C 9,6 C 9,7 km/h (2 Bft) 100,00 %
09.11.2018 20:16 9,6 C 10,0 C 9,4 C 91 % 1014,9 hPa 0,0 l/m 5,8 km/h (2 Bft) O-SO 112 0 min 0,000 mm 0,0 UV-I 0 W/m 8,2 C 9,6 C 11,3 km/h (2 Bft) 95,74 %
09.11.2018 20:18 9,6 C 10,0 C 9,4 C 91 % 1014,9 hPa 0,0 l/m 8,3 km/h (2 Bft) O-SO 111 0 min 0,000 mm 0,0 UV-I 0 W/m 8,2 C 8,2 C 11,3 km/h (2 Bft) 95,74 %
09.11.2018 20:20 9,6 C 10,0 C 9,4 C 91 % 1014,9 hPa 0,0 l/m 6,2 km/h (2 Bft) O 92 0 min 0,000 mm 0,0 UV-I 0 W/m 8,2 C 9,6 C 12,9 km/h (3 Bft) 98,00 %
09.11.2018 20:22 9,6 C 10,0 C 9,4 C 91 % 1014,8 hPa 0,0 l/m 7,4 km/h (2 Bft) O 94 0 min 0,000 mm 0,0 UV-I 0 W/m 8,2 C 8,9 C 11,3 km/h (2 Bft) 94,74 %
09.11.2018 20:24 9,6 C 10,0 C 9,4 C 91 % 1014,8 hPa 0,0 l/m 8,9 km/h (2 Bft) O 100 0 min 0,000 mm 0,0 UV-I 0 W/m 8,2 C 7,8 C 12,9 km/h (3 Bft) 97,87 %
09.11.2018 20:26 9,6 C 10,0 C 9,4 C 91 % 1014,8 hPa 0,0 l/m 6,7 km/h (2 Bft) O 92 0 min 0,000 mm 0,0 UV-I 0 W/m 8,2 C 9,4 C 11,3 km/h (2 Bft) 98,11 %
09.11.2018 20:28 9,6 C 10,0 C 9,4 C 91 % 1014,8 hPa 0,0 l/m 7,7 km/h (2 Bft) O 92 0 min 0,000 mm 0,0 UV-I 0 W/m 8,2 C 8,6 C 12,9 km/h (3 Bft) 95,74 %
09.11.2018 20:30 9,6 C 10,0 C 9,4 C 91 % 1014,8 hPa 0,0 l/m 5,3 km/h (1 Bft) O-SO 107 0 min 0,000 mm 0,0 UV-I 0 W/m 8,2 C 9,6 C 9,7 km/h (2 Bft) 97,87 %
09.11.2018 20:32 9,5 C 10,0 C 9,4 C 91 % 1014,9 hPa 0,0 l/m 6,5 km/h (2 Bft) O 86 0 min 0,000 mm 0,0 UV-I 0 W/m 8,1 C 9,5 C 12,9 km/h (3 Bft) 95,74 %
09.11.2018 20:34 9,5 C 10,0 C 9,4 C 91 % 1014,9 hPa 0,0 l/m 5,3 km/h (1 Bft) O 88 0 min 0,000 mm 0,0 UV-I 0 W/m 8,1 C 9,5 C 8,0 km/h (2 Bft) 93,62 %
09.11.2018 20:36 9,5 C 10,0 C 9,4 C 91 % 1014,9 hPa 0,0 l/m 4,2 km/h (1 Bft) O-NO 78 0 min 0,000 mm 0,0 UV-I 0 W/m 8,1 C 9,5 C 6,4 km/h (2 Bft) 97,37 %
09.11.2018 20:38 9,4 C 10,0 C 9,4 C 91 % 1014,9 hPa 0,0 l/m 4,3 km/h (1 Bft) O 82 0 min 0,000 mm 0,0 UV-I 0 W/m 8,0 C 9,4 C 6,4 km/h (2 Bft) 97,92 %
09.11.2018 20:40 9,4 C 10,0 C 9,4 C 91 % 1014,9 hPa 0,0 l/m 5,6 km/h (1 Bft) O 94 0 min 0,000 mm 0,0 UV-I 0 W/m 8,0 C 9,4 C 14,5 km/h (3 Bft) 95,74 %
09.11.2018 20:42 9,4 C 10,0 C 9,4 C 91 % 1014,9 hPa 0,0 l/m 6,5 km/h (2 Bft) O-NO 71 0 min 0,000 mm 0,0 UV-I 0 W/m 8,0 C 9,4 C 11,3 km/h (2 Bft) 97,87 %
09.11.2018 20:44 9,4 C 10,0 C 9,4 C 91 % 1014,9 hPa 0,0 l/m 7,4 km/h (2 Bft) NO 56 0 min 0,000 mm 0,0 UV-I 0 W/m 8,0 C 8,7 C 12,9 km/h (3 Bft) 100,00 %
09.11.2018 20:46 9,4 C 10,0 C 9,4 C 91 % 1015,0 hPa 0,0 l/m 7,3 km/h (2 Bft) O 83 0 min 0,000 mm 0,0 UV-I 0 W/m 8,0 C 8,7 C 11,3 km/h (2 Bft) 97,87 %
09.11.2018 20:48 9,3 C 10,0 C 9,4 C 91 % 1015,0 hPa 0,0 l/m 8,9 km/h (2 Bft) O 86 0 min 0,000 mm 0,0 UV-I 0 W/m 7,9 C 7,5 C 12,9 km/h (3 Bft) 95,74 %
09.11.2018 20:50 9,3 C 10,0 C 9,4 C 91 % 1015,0 hPa 0,0 l/m 5,8 km/h (2 Bft) O-NO 64 0 min 0,000 mm 0,0 UV-I 0 W/m 7,9 C 9,3 C 11,3 km/h (2 Bft) 100,00 %
09.11.2018 20:52 9,3 C 10,0 C 9,4 C 91 % 1014,9 hPa 0,0 l/m 6,4 km/h (2 Bft) O-NO 63 0 min 0,000 mm 0,0 UV-I 0 W/m 7,9 C 9,3 C 9,7 km/h (2 Bft) 98,00 %
09.11.2018 20:54 9,3 C 10,0 C 9,4 C 91 % 1014,9 hPa 0,0 l/m 10,0 km/h (2 Bft) O-NO 69 0 min 0,000 mm 0,0 UV-I 0 W/m 7,9 C 6,8 C 14,5 km/h (3 Bft) 97,87 %
09.11.2018 20:56 9,3 C 10,0 C 9,4 C 91 % 1014,9 hPa 0,0 l/m 8,0 km/h (2 Bft) O 80 0 min 0,000 mm 0,0 UV-I 0 W/m 7,9 C 8,1 C 12,9 km/h (3 Bft) 97,87 %
09.11.2018 20:58 9,3 C 10,0 C 9,4 C 91 % 1014,9 hPa 0,0 l/m 11,6 km/h (2 Bft) O 80 0 min 0,000 mm 0,0 UV-I 0 W/m 7,9 C 5,9 C 16,1 km/h (3 Bft) 100,00 %
09.11.2018 21:00 9,2 C 10,0 C 9,4 C 91 % 1014,9 hPa 0,0 l/m 12,5 km/h (3 Bft) O 92 0 min 0,000 mm 0,0 UV-I 0 W/m 7,8 C 5,3 C 16,1 km/h (3 Bft) 100,00 %
09.11.2018 21:02 9,2 C 10,0 C 9,4 C 91 % 1015,0 hPa 0,0 l/m 7,0 km/h (2 Bft) O-NO 75 0 min 0,000 mm 0,0 UV-I 0 W/m 7,8 C 8,8 C 11,3 km/h (2 Bft) 97,87 %
09.11.2018 21:04 9,2 C 10,0 C 9,4 C 91 % 1015,0 hPa 0,0 l/m 6,1 km/h (2 Bft) O 100 0 min 0,000 mm 0,0 UV-I 0 W/m 7,8 C 9,2 C 9,7 km/h (2 Bft) 98,00 %
09.11.2018 21:06 9,2 C 10,0 C 9,4 C 91 % 1015,0 hPa 0,0 l/m 5,8 km/h (2 Bft) O 83 0 min 0,000 mm 0,0 UV-I 0 W/m 7,8 C 9,2 C 9,7 km/h (2 Bft) 95,74 %
09.11.2018 21:08 9,2 C 10,0 C 9,4 C 91 % 1015,1 hPa 0,0 l/m 5,1 km/h (1 Bft) O 101 0 min 0,000 mm 0,0 UV-I 0 W/m 7,8 C 9,2 C 9,7 km/h (2 Bft) 97,87 %
09.11.2018 21:10 9,2 C 10,0 C 9,4 C 91 % 1015,1 hPa 0,0 l/m 3,2 km/h (1 Bft) O 93 0 min 0,000 mm 0,0 UV-I 0 W/m 7,8 C 9,2 C 4,8 km/h (1 Bft) 97,87 %
09.11.2018 21:12 9,2 C 10,0 C 9,4 C 91 % 1015,1 hPa 0,0 l/m 2,0 km/h (1 Bft) O 93 0 min 0,000 mm 0,0 UV-I 0 W/m 7,8 C 9,2 C 3,2 km/h (1 Bft) 97,37 %
09.11.2018 21:14 9,2 C 10,0 C 9,4 C 91 % 1015,1 hPa 0,0 l/m 2,0 km/h (1 Bft) O-NO 78 0 min 0,000 mm 0,0 UV-I 0 W/m 7,8 C 9,2 C 6,4 km/h (2 Bft) 96,00 %
09.11.2018 21:16 9,2 C 10,0 C 8,9 C 91 % 1015,1 hPa 0,0 l/m 3,7 km/h (1 Bft) O-NO 78 0 min 0,000 mm 0,0 UV-I 0 W/m 7,8 C 9,2 C 4,8 km/h (1 Bft) 98,00 %
09.11.2018 21:18 9,2 C 10,0 C 9,4 C 91 % 1015,1 hPa 0,0 l/m 3,3 km/h (1 Bft) O 79 0 min 0,000 mm 0,0 UV-I 0 W/m 7,8 C 9,2 C 4,8 km/h (1 Bft) 95,74 %
09.11.2018 21:20 9,2 C 10,0 C 9,4 C 91 % 1015,1 hPa 0,0 l/m 2,8 km/h (1 Bft) O-NO 78 0 min 0,000 mm 0,0 UV-I 0 W/m 7,8 C 9,2 C 4,8 km/h (1 Bft) 97,92 %
09.11.2018 21:22 9,2 C 10,0 C 9,4 C 91 % 1015,0 hPa 0,0 l/m 3,9 km/h (1 Bft) O 88 0 min 0,000 mm 0,0 UV-I 0 W/m 7,8 C 9,2 C 6,4 km/h (2 Bft) 95,74 %
09.11.2018 21:24 9,2 C 10,0 C 9,4 C 91 % 1015,0 hPa 0,0 l/m 4,8 km/h (1 Bft) O 101 0 min 0,000 mm 0,0 UV-I 0 W/m 7,8 C 9,2 C 6,4 km/h (2 Bft) 97,87 %
09.11.2018 21:26 9,1 C 10,0 C 8,9 C 91 % 1015,0 hPa 0,0 l/m 4,8 km/h (1 Bft) NO 52 0 min 0,000 mm 0,0 UV-I 0 W/m 7,7 C 9,1 C 8,0 km/h (2 Bft) 97,14 %
09.11.2018 21:28 9,1 C 10,0 C 8,9 C 91 % 1015,0 hPa 0,0 l/m 7,9 km/h (2 Bft) O-NO 70 0 min 0,000 mm 0,0 UV-I 0 W/m 7,7 C 8,0 C 12,9 km/h (3 Bft) 96,00 %
09.11.2018 21:30 9,1 C 10,0 C 8,9 C 91 % 1014,9 hPa 0,0 l/m 8,3 km/h (2 Bft) O-NO 63 0 min 0,000 mm 0,0 UV-I 0 W/m 7,7 C 7,7 C 12,9 km/h (3 Bft) 94,34 %
09.11.2018 21:32 9,0 C 10,0 C 8,9 C 91 % 1015,0 hPa 0,0 l/m 6,9 km/h (2 Bft) O-NO 62 0 min 0,000 mm 0,0 UV-I 0 W/m 7,6 C 8,6 C 11,3 km/h (2 Bft) 95,74 %
09.11.2018 21:34 9,0 C 10,0 C 8,9 C 92 % 1014,9 hPa 0,0 l/m 9,0 km/h (2 Bft) O-NO 76 0 min 0,000 mm 0,0 UV-I 0 W/m 7,8 C 7,1 C 14,5 km/h (3 Bft) 92,00 %
09.11.2018 21:36 9,0 C 10,0 C 8,9 C 92 % 1014,9 hPa 0,0 l/m 6,4 km/h (2 Bft) O 80 0 min 0,000 mm 0,0 UV-I 0 W/m 7,8 C 9,0 C 11,3 km/h (2 Bft) 91,43 %
09.11.2018 21:38 9,0 C 10,0 C 8,9 C 92 % 1014,9 hPa 0,0 l/m 7,4 km/h (2 Bft) O 86 0 min 0,000 mm 0,0 UV-I 0 W/m 7,8 C 8,2 C 11,3 km/h (2 Bft) 94,34 %
09.11.2018 21:40 9,0 C 10,0 C 8,9 C 92 % 1014,9 hPa 0,0 l/m 6,9 km/h (2 Bft) O 96 0 min 0,000 mm 0,0 UV-I 0 W/m 7,8 C 8,6 C 11,3 km/h (2 Bft) 92,45 %
09.11.2018 21:42 9,0 C 10,0 C 8,9 C 92 % 1014,9 hPa 0,0 l/m 6,6 km/h (2 Bft) O 98 0 min 0,000 mm 0,0 UV-I 0 W/m 7,8 C 8,9 C 9,7 km/h (2 Bft) 94,74 %
09.11.2018 21:44 9,0 C 10,0 C 8,9 C 92 % 1014,9 hPa 0,0 l/m 6,2 km/h (2 Bft) O 90 0 min 0,000 mm 0,0 UV-I 0 W/m 7,8 C 9,0 C 11,3 km/h (2 Bft) 91,49 %
09.11.2018 21:46 9,0 C 10,0 C 8,9 C 92 % 1014,8 hPa 0,0 l/m 6,4 km/h (2 Bft) O-NO 74 0 min 0,000 mm 0,0 UV-I 0 W/m 7,8 C 9,0 C 8,0 km/h (2 Bft) 95,74 %
09.11.2018 21:48 9,0 C 10,0 C 8,9 C 92 % 1014,8 hPa 0,0 l/m 4,3 km/h (1 Bft) NO 42 0 min 0,000 mm 0,0 UV-I 0 W/m 7,8 C 9,0 C 6,4 km/h (2 Bft) 96,23 %
09.11.2018 21:50 9,0 C 10,0 C 8,9 C 92 % 1014,8 hPa 0,0 l/m 6,2 km/h (2 Bft) O-NO 58 0 min 0,000 mm 0,0 UV-I 0 W/m 7,8 C 9,0 C 8,0 km/h (2 Bft) 89,47 %
09.11.2018 21:52 8,9 C 10,0 C 8,9 C 92 % 1014,8 hPa 0,0 l/m 5,4 km/h (1 Bft) O 92 0 min 0,000 mm 0,0 UV-I 0 W/m 7,7 C 8,9 C 9,7 km/h (2 Bft) 95,83 %
09.11.2018 21:54 8,9 C 10,0 C 8,9 C 92 % 1014,8 hPa 0,0 l/m 7,9 km/h (2 Bft) O-NO 67 0 min 0,000 mm 0,0 UV-I 0 W/m 7,7 C 7,8 C 12,9 km/h (3 Bft) 92,00 %
09.11.2018 21:56 8,9 C 10,0 C 8,9 C 92 % 1014,8 hPa 0,0 l/m 8,5 km/h (2 Bft) O-SO 102 0 min 0,000 mm 0,0 UV-I 0 W/m 7,7 C 7,3 C 11,3 km/h (2 Bft) 95,74 %
09.11.2018 21:58 8,9 C 10,0 C 8,9 C 92 % 1014,8 hPa 0,0 l/m 7,1 km/h (2 Bft) O 101 0 min 0,000 mm 0,0 UV-I 0 W/m 7,7 C 8,4 C 11,3 km/h (2 Bft) 93,62 %
09.11.2018 22:00 8,9 C 10,0 C 8,9 C 92 % 1014,8 hPa 0,0 l/m 6,1 km/h (2 Bft) O 86 0 min 0,000 mm 0,0 UV-I 0 W/m 7,7 C 8,9 C 9,7 km/h (2 Bft) 95,74 %
09.11.2018 22:02 8,9 C 10,0 C 8,9 C 92 % 1014,8 hPa 0,0 l/m 5,9 km/h (2 Bft) O-NO 75 0 min 0,000 mm 0,0 UV-I 0 W/m 7,7 C 8,9 C 9,7 km/h (2 Bft) 93,18 %
09.11.2018 22:04 8,9 C 10,0 C 8,9 C 92 % 1014,8 hPa 0,0 l/m 4,4 km/h (1 Bft) O-NO 74 0 min 0,000 mm 0,0 UV-I 0 W/m 7,7 C 8,9 C 6,4 km/h (2 Bft) 91,49 %
09.11.2018 22:06 8,9 C 10,0 C 8,9 C 92 % 1014,8 hPa 0,0 l/m 4,9 km/h (1 Bft) O 86 0 min 0,000 mm 0,0 UV-I 0 W/m 7,7 C 8,9 C 6,4 km/h (2 Bft) 97,87 %
09.11.2018 22:08 8,9 C 10,0 C 8,9 C 93 % 1014,7 hPa 0,0 l/m 6,3 km/h (2 Bft) O-SO 118 0 min 0,000 mm 0,0 UV-I 0 W/m 7,8 C 8,9 C 12,9 km/h (3 Bft) 95,74 %
09.11.2018 22:10 8,9 C 10,0 C 8,9 C 92 % 1014,7 hPa 0,0 l/m 9,3 km/h (2 Bft) O 82 0 min 0,000 mm 0,0 UV-I 0 W/m 7,7 C 6,8 C 12,9 km/h (3 Bft) 95,74 %
09.11.2018 22:12 8,9 C 10,0 C 8,9 C 92 % 1014,7 hPa 0,0 l/m 8,8 km/h (2 Bft) O 80 0 min 0,000 mm 0,0 UV-I 0 W/m 7,7 C 7,1 C 12,9 km/h (3 Bft) 97,87 %
09.11.2018 22:14 8,9 C 10,0 C 8,9 C 92 % 1014,7 hPa 0,0 l/m 9,6 km/h (2 Bft) O 86 0 min 0,000 mm 0,0 UV-I 0 W/m 7,7 C 6,6 C 14,5 km/h (3 Bft) 97,87 %
09.11.2018 22:16 8,9 C 10,0 C 8,9 C 93 % 1014,7 hPa 0,0 l/m 7,7 km/h (2 Bft) O 98 0 min 0,000 mm 0,0 UV-I 0 W/m 7,8 C 7,9 C 12,9 km/h (3 Bft) 93,62 %
09.11.2018 22:18 8,9 C 10,0 C 8,9 C 93 % 1014,7 hPa 0,0 l/m 7,7 km/h (2 Bft) O-NO 74 0 min 0,000 mm 0,0 UV-I 0 W/m 7,8 C 7,9 C 14,5 km/h (3 Bft) 98,00 %
09.11.2018 22:20 8,9 C 10,0 C 8,9 C 93 % 1014,8 hPa 0,0 l/m 9,7 km/h (2 Bft) O-NO 74 0 min 0,000 mm 0,0 UV-I 0 W/m 7,8 C 6,6 C 14,5 km/h (3 Bft) 97,87 %
09.11.2018 22:22 8,9 C 10,0 C 8,9 C 93 % 1014,8 hPa 0,0 l/m 10,4 km/h (2 Bft) NO 46 0 min 0,000 mm 0,0 UV-I 0 W/m 7,8 C 6,1 C 14,5 km/h (3 Bft) 97,87 %
09.11.2018 22:24 8,9 C 10,0 C 8,9 C 93 % 1014,8 hPa 0,0 l/m 9,4 km/h (2 Bft) O-NO 77 0 min 0,000 mm 0,0 UV-I 0 W/m 7,8 C 6,8 C 14,5 km/h (3 Bft) 94,74 %
09.11.2018 22:26 8,8 C 10,0 C 8,9 C 93 % 1014,8 hPa 0,0 l/m 11,6 km/h (2 Bft) O 79 0 min 0,000 mm 0,0 UV-I 0 W/m 7,7 C 5,3 C 16,1 km/h (3 Bft) 98,15 %
09.11.2018 22:28 8,8 C 10,0 C 8,9 C 93 % 1014,8 hPa 0,0 l/m 9,6 km/h (2 Bft) O 84 0 min 0,000 mm 0,0 UV-I 0 W/m 7,7 C 6,5 C 14,5 km/h (3 Bft) 97,87 %
09.11.2018 22:30 8,8 C 10,0 C 8,9 C 93 % 1014,7 hPa 0,0 l/m 9,1 km/h (2 Bft) O-NO 62 0 min 0,000 mm 0,0 UV-I 0 W/m 7,7 C 6,8 C 14,5 km/h (3 Bft) 97,87 %
09.11.2018 22:32 8,8 C 10,0 C 8,9 C 93 % 1014,7 hPa 0,0 l/m 11,3 km/h (2 Bft) O-NO 68 0 min 0,000 mm 0,0 UV-I 0 W/m 7,7 C 5,5 C 16,1 km/h (3 Bft) 95,83 %
09.11.2018 22:34 8,8 C 10,0 C 8,9 C 93 % 1014,6 hPa 0,0 l/m 11,4 km/h (2 Bft) O-SO 105 0 min 0,000 mm 0,0 UV-I 0 W/m 7,7 C 5,5 C 14,5 km/h (3 Bft) 97,87 %
09.11.2018 22:36 8,7 C 10,0 C 8,9 C 93 % 1014,6 hPa 0,0 l/m 10,1 km/h (2 Bft) O-SO 110 0 min 0,000 mm 0,0 UV-I 0 W/m 7,6 C 6,1 C 16,1 km/h (3 Bft) 95,74 %
09.11.2018 22:38 8,8 C 10,0 C 8,9 C 93 % 1014,6 hPa 0,0 l/m 6,8 km/h (2 Bft) O-SO 109 0 min 0,000 mm 0,0 UV-I 0 W/m 7,7 C 8,5 C 11,3 km/h (2 Bft) 97,87 %
09.11.2018 22:40 8,8 C 10,0 C 8,9 C 93 % 1014,6 hPa 0,0 l/m 6,1 km/h (2 Bft) O-NO 78 0 min 0,000 mm 0,0 UV-I 0 W/m 7,7 C 8,8 C 14,5 km/h (3 Bft) 100,00 %
09.11.2018 22:42 8,7 C 10,0 C 8,9 C 93 % 1014,6 hPa 0,0 l/m 10,7 km/h (2 Bft) O-NO 59 0 min 0,000 mm 0,0 UV-I 0 W/m 7,6 C 5,7 C 16,1 km/h (3 Bft) 100,00 %
09.11.2018 22:44 8,7 C 10,0 C 8,9 C 93 % 1014,6 hPa 0,0 l/m 9,3 km/h (2 Bft) O-NO 74 0 min 0,000 mm 0,0 UV-I 0 W/m 7,6 C 6,6 C 16,1 km/h (3 Bft) 100,00 %
09.11.2018 22:46 8,7 C 10,0 C 8,9 C 93 % 1014,6 hPa 0,0 l/m 5,3 km/h (1 Bft) NO 43 0 min 0,000 mm 0,0 UV-I 0 W/m 7,6 C 8,7 C 8,0 km/h (2 Bft) 100,00 %
09.11.2018 22:48 8,7 C 10,0 C 8,9 C 93 % 1014,6 hPa 0,0 l/m 6,4 km/h (2 Bft) O-NO 78 0 min 0,000 mm 0,0 UV-I 0 W/m 7,6 C 8,7 C 12,9 km/h (3 Bft) 100,00 %
09.11.2018 22:50 8,7 C 10,0 C 8,9 C 94 % 1014,6 hPa 0,0 l/m 5,5 km/h (1 Bft) O-NO 72 0 min 0,000 mm 0,0 UV-I 0 W/m 7,8 C 8,7 C 11,3 km/h (2 Bft) 100,00 %
09.11.2018 22:52 8,7 C 10,0 C 8,9 C 94 % 1014,6 hPa 0,0 l/m 7,1 km/h (2 Bft) O-NO 67 0 min 0,000 mm 0,0 UV-I 0 W/m 7,8 C 8,2 C 11,3 km/h (2 Bft) 100,00 %
09.11.2018 22:54 8,7 C 10,0 C 8,9 C 94 % 1014,6 hPa 0,0 l/m 11,0 km/h (2 Bft) O-NO 66 0 min 0,000 mm 0,0 UV-I 0 W/m 7,8 C 5,6 C 14,5 km/h (3 Bft) 97,87 %
09.11.2018 22:56 8,7 C 10,0 C 8,9 C 94 % 1014,5 hPa 0,0 l/m 8,0 km/h (2 Bft) O-NO 69 0 min 0,000 mm 0,0 UV-I 0 W/m 7,8 C 7,5 C 12,9 km/h (3 Bft) 96,00 %
09.11.2018 22:58 8,7 C 10,0 C 8,9 C 94 % 1014,5 hPa 0,0 l/m 8,8 km/h (2 Bft) O-NO 73 0 min 0,000 mm 0,0 UV-I 0 W/m 7,8 C 6,9 C 12,9 km/h (3 Bft) 98,00 %
09.11.2018 23:00 8,7 C 10,0 C 8,9 C 94 % 1014,5 hPa 0,0 l/m 5,5 km/h (1 Bft) O 89 0 min 0,000 mm 0,0 UV-I 0 W/m 7,8 C 8,7 C 9,7 km/h (2 Bft) 100,00 %
09.11.2018 23:02 8,7 C 10,0 C 8,9 C 94 % 1014,4 hPa 0,0 l/m 6,1 km/h (2 Bft) O 92 0 min 0,000 mm 0,0 UV-I 0 W/m 7,8 C 8,7 C 9,7 km/h (2 Bft) 93,62 %
09.11.2018 23:04 8,7 C 10,0 C 8,9 C 94 % 1014,4 hPa 0,0 l/m 7,2 km/h (2 Bft) O-NO 72 0 min 0,000 mm 0,0 UV-I 0 W/m 7,8 C 8,1 C 11,3 km/h (2 Bft) 95,74 %
09.11.2018 23:06 8,7 C 10,0 C 8,9 C 94 % 1014,4 hPa 0,0 l/m 8,4 km/h (2 Bft) O 84 0 min 0,000 mm 0,0 UV-I 0 W/m 7,8 C 7,2 C 12,9 km/h (3 Bft) 95,74 %
09.11.2018 23:08 8,7 C 10,0 C 8,9 C 94 % 1014,4 hPa 0,0 l/m 7,7 km/h (2 Bft) O 98 0 min 0,000 mm 0,0 UV-I 0 W/m 7,8 C 7,7 C 11,3 km/h (2 Bft) 97,22 %
09.11.2018 23:10 8,7 C 10,0 C 8,9 C 94 % 1014,5 hPa 0,0 l/m 5,6 km/h (1 Bft) O-SO 119 0 min 0,000 mm 0,0 UV-I 0 W/m 7,8 C 8,7 C 11,3 km/h (2 Bft) 96,00 %
09.11.2018 23:12 8,7 C 10,0 C 8,9 C 94 % 1014,5 hPa 0,0 l/m 8,4 km/h (2 Bft) O-SO 111 0 min 0,000 mm 0,0 UV-I 0 W/m 7,8 C 7,2 C 14,5 km/h (3 Bft) 95,74 %
09.11.2018 23:14 8,7 C 10,0 C 8,9 C 94 % 1014,4 hPa 0,0 l/m 5,8 km/h (2 Bft) O 84 0 min 0,000 mm 0,0 UV-I 0 W/m 7,8 C 8,7 C 9,7 km/h (2 Bft) 93,62 %
09.11.2018 23:16 8,7 C 10,0 C 8,9 C 94 % 1014,4 hPa 0,0 l/m 7,5 km/h (2 Bft) O 94 0 min 0,000 mm 0,0 UV-I 0 W/m 7,8 C 7,9 C 12,9 km/h (3 Bft) 93,62 %
09.11.2018 23:18 8,7 C 10,0 C 8,9 C 94 % 1014,3 hPa 0,0 l/m 7,9 km/h (2 Bft) O-SO 102 0 min 0,000 mm 0,0 UV-I 0 W/m 7,8 C 7,6 C 12,9 km/h (3 Bft) 89,36 %
09.11.2018 23:20 8,7 C 10,0 C 8,9 C 94 % 1014,3 hPa 0,0 l/m 9,5 km/h (2 Bft) O-SO 113 0 min 0,000 mm 0,0 UV-I 0 W/m 7,8 C 6,5 C 12,9 km/h (3 Bft) 95,74 %
09.11.2018 23:22 8,7 C 10,0 C 8,9 C 94 % 1014,3 hPa 0,0 l/m 6,4 km/h (2 Bft) O-SO 119 0 min 0,000 mm 0,0 UV-I 0 W/m 7,8 C 8,7 C 12,9 km/h (3 Bft) 95,74 %
09.11.2018 23:24 8,7 C 10,0 C 8,9 C 94 % 1014,3 hPa 0,0 l/m 7,0 km/h (2 Bft) S-SO 148 0 min 0,000 mm 0,0 UV-I 0 W/m 7,8 C 8,2 C 11,3 km/h (2 Bft) 91,49 %
09.11.2018 23:26 8,7 C 10,0 C 8,9 C 94 % 1014,3 hPa 0,0 l/m 5,7 km/h (1 Bft) O-SO 121 0 min 0,000 mm 0,0 UV-I 0 W/m 7,8 C 8,7 C 11,3 km/h (2 Bft) 97,87 %
09.11.2018 23:28 8,7 C 10,0 C 8,9 C 94 % 1014,3 hPa 0,0 l/m 6,8 km/h (2 Bft) O 95 0 min 0,000 mm 0,0 UV-I 0 W/m 7,8 C 8,4 C 11,3 km/h (2 Bft) 95,74 %
09.11.2018 23:30 8,7 C 10,0 C 8,9 C 94 % 1014,3 hPa 0,0 l/m 6,6 km/h (2 Bft) O-SO 105 0 min 0,000 mm 0,0 UV-I 0 W/m 7,8 C 8,6 C 11,3 km/h (2 Bft) 93,62 %
09.11.2018 23:32 8,7 C 10,0 C 8,9 C 94 % 1014,3 hPa 0,0 l/m 5,8 km/h (2 Bft) O-SO 104 0 min 0,000 mm 0,0 UV-I 0 W/m 7,8 C 8,7 C 11,3 km/h (2 Bft) 96,23 %
09.11.2018 23:34 8,7 C 10,0 C 8,9 C 94 % 1014,3 hPa 0,0 l/m 6,3 km/h (2 Bft) O 89 0 min 0,000 mm 0,0 UV-I 0 W/m 7,8 C 8,7 C 9,7 km/h (2 Bft) 95,74 %
09.11.2018 23:36 8,7 C 10,0 C 8,9 C 94 % 1014,2 hPa 0,0 l/m 5,7 km/h (1 Bft) O 88 0 min 0,000 mm 0,0 UV-I 0 W/m 7,8 C 8,7 C 9,7 km/h (2 Bft) 95,74 %
09.11.2018 23:38 8,7 C 10,0 C 8,9 C 94 % 1014,1 hPa 0,0 l/m 8,7 km/h (2 Bft) O 80 0 min 0,000 mm 0,0 UV-I 0 W/m 7,8 C 7,0 C 12,9 km/h (3 Bft) 100,00 %
09.11.2018 23:40 8,7 C 10,0 C 8,9 C 94 % 1014,0 hPa 0,0 l/m 9,7 km/h (2 Bft) O 96 0 min 0,000 mm 0,0 UV-I 0 W/m 7,8 C 6,3 C 12,9 km/h (3 Bft) 100,00 %
09.11.2018 23:42 8,7 C 10,0 C 8,9 C 94 % 1014,0 hPa 0,0 l/m 8,3 km/h (2 Bft) O 82 0 min 0,000 mm 0,0 UV-I 0 W/m 7,8 C 7,3 C 12,9 km/h (3 Bft) 100,00 %
09.11.2018 23:44 8,7 C 10,0 C 8,9 C 94 % 1013,9 hPa 0,0 l/m 12,3 km/h (3 Bft) O-NO 78 0 min 0,000 mm 0,0 UV-I 0 W/m 7,8 C 4,9 C 17,7 km/h (3 Bft) 97,87 %
09.11.2018 23:46 8,7 C 10,0 C 8,9 C 95 % 1013,9 hPa 0,0 l/m 12,9 km/h (3 Bft) NO 52 0 min 0,000 mm 0,0 UV-I 0 W/m 7,9 C 4,6 C 16,1 km/h (3 Bft) 98,11 %
09.11.2018 23:48 8,7 C 10,0 C 8,9 C 95 % 1013,9 hPa 0,0 l/m 14,1 km/h (3 Bft) O 84 0 min 0,000 mm 0,0 UV-I 0 W/m 7,9 C 4,0 C 17,7 km/h (3 Bft) 100,00 %
09.11.2018 23:50 8,7 C 10,0 C 8,9 C 95 % 1013,9 hPa 0,0 l/m 14,5 km/h (3 Bft) O-NO 68 0 min 0,000 mm 0,0 UV-I 0 W/m 7,9 C 3,8 C 19,3 km/h (3 Bft) 96,00 %
09.11.2018 23:52 8,7 C 10,0 C 8,9 C 95 % 1014,0 hPa 0,0 l/m 12,9 km/h (3 Bft) O 90 0 min 0,000 mm 0,0 UV-I 0 W/m 7,9 C 4,6 C 17,7 km/h (3 Bft) 100,00 %
09.11.2018 23:54 8,7 C 10,0 C 8,9 C 95 % 1014,1 hPa 0,0 l/m 10,6 km/h (2 Bft) O 91 0 min 0,000 mm 0,0 UV-I 0 W/m 7,9 C 5,8 C 16,1 km/h (3 Bft) 97,87 %
09.11.2018 23:56 8,7 C 10,0 C 8,9 C 95 % 1014,2 hPa 0,0 l/m 11,5 km/h (2 Bft) O-NO 63 0 min 0,000 mm 0,0 UV-I 0 W/m 7,9 C 5,3 C 16,1 km/h (3 Bft) 100,00 %
09.11.2018 23:58 8,7 C 10,0 C 8,9 C 95 % 1014,3 hPa 0,0 l/m 9,3 km/h (2 Bft) O-NO 61 0 min 0,000 mm 0,0 UV-I 0 W/m 7,9 C 6,6 C 14,5 km/h (3 Bft) 100,00 %
_ Min-Zeit 22:36 00:00 05:32 13:04 23:44 - 10:28 - - - - - - 21:32 04:00 11:38 00:02
Minimum _ 8,7 C 10,0 C 8,9 C 86 % 1013,9 hPa - 0,0 km/h (0 Bft) - - - - - - 7,6 C 3,0 C 0,0 km/h (0 Bft) 9,52 %
_ Max-Zeit 13:18 00:00 12:52 23:46 00:00 00:30 04:00 - - 07:12 10:00 00:00 12:52 12:52 13:18 04:00 00:06
Maximum _ 10,7 C 10,0 C 13,3 C 95 % 1017,9 hPa 0,2 l/m 18,2 km/h
O-NO (3 Bft)
- - 2 min 0,051 mm 0,0 UV-I 141 W/m 8,7 C 10,7 C 24,1 km/h
O-NO (4 Bft)
100,00 %
Durchschnitt _ 9,6 C 10,0 C 10,1 C 91 % 1016,2 hPa #0,2 l/m 5,9 km/h (2 Bft) O - #2 min. #0,305 mm 0,0 UV-I 60 W/m 8,2 C 8,7 C 9,1 km/h (2 Bft) 96,96 %